     2              OBSERVATION DATA                        RINEX VERSION / TYPE
DAT2RIN 1.01d Dan Johnson 14SEP96 6:26:56 GMT               PGM / RUN BY / DATE
Mojave '96 team Central Washington U                        OBSERVER / AGENCY
16329 TRIMBLE 4000SSI Nav 7.09 Sig 3.03                     REC # / TYPE / VERS
66919 TRIMBLE CHOKE                                         ANT # / TYPE
MOND MONDAY                                                 MARKER NAME
 -2439737.0000 -4645851.0000  3615005.0000                  APPROX POSITION XYZ
        0.0614        0.0000        0.0000                  ANTENNA: DELTA H/E/N
     1     1     0                                          WAVELENGTH FACT L1/2
     4    L1    C1    L2    P2                              # / TYPES OF OBSERV
    30                                                      INTERVAL
                                                            COMMENT
PANGA GPS Data Analysis Center                              COMMENT
Department of Geology                                       COMMENT
Central Washington University                               COMMENT
Ellensburg, WA 98926                                        COMMENT
                                                            COMMENT
http://www.panga.cwu.edu                                    COMMENT
ftp://panga.cwu.edu                                         COMMENT
                                                            COMMENT
  1996     9    11     0    38   30.000000                  TIME OF FIRST OBS
  1996     9    11    15    12    0.000000                  TIME OF LAST OBS
    22                                                      # OF SATELLITES
           1    51    51    51    51                        PRN / # OF OBS
           2   858   858   847   847                        PRN / # OF OBS
           3   371   371   368   368                        PRN / # OF OBS
           4   769   769   762   762                        PRN / # OF OBS
           5   570   570   566   566                        PRN / # OF OBS
           6   258   258   255   255                        PRN / # OF OBS
           7   744   744   741   741                        PRN / # OF OBS
           9   588   588   586   586                        PRN / # OF OBS
          10   640   640   627   627                        PRN / # OF OBS
          14   506   506   505   505                        PRN / # OF OBS
          15   518   518   513   513                        PRN / # OF OBS
          16   677   677   658   658                        PRN / # OF OBS
          17    79    80    77    77                        PRN / # OF OBS
          18   770   770   766   766                        PRN / # OF OBS
          19   858   859   856   856                        PRN / # OF OBS
          22   531   531   531   531                        PRN / # OF OBS
          24   590   590   587   587                        PRN / # OF OBS
          25   251   251   251   251                        PRN / # OF OBS
          26   458   458   454   454                        PRN / # OF OBS
          27   824   824   821   821                        PRN / # OF OBS
          29   645   645   645   645                        PRN / # OF OBS
          31   507   507   504   504                        PRN / # OF OBS
                                                            END OF HEADER
 96  9 11  0 38 30.0000000  0  6  1 14 15 22 25 29
    585202.74910  24209816.66400    433723.99450  24209821.53940
   -290503.24910  21816777.23400   -226362.70850  21816781.68840
    398268.78810  21244415.61700    310341.47350  21244420.45740
   -419724.27510  23940349.57000   -298263.52350  23940355.34840
    380226.55810  21166133.54700    296282.83750  21166137.05140
   -145986.80010  22262353.01600   -113752.02850  22262356.69540
 96  9 11  0 39  0.0000000  0  6  1 14 15 22 25 29
    686506.97800  24229093.93800    512662.35540  24229098.81340
   -336133.96300  21808093.97700   -261919.09440  21808098.61740
    470035.20200  21258072.35200    366263.33740  21258077.18040
   -487668.61800  23927420.03100   -351207.09840  23927425.11740
    448589.04600  21179142.51600    349552.30540  21179145.87940
   -167380.55500  22258282.09400   -130422.46240  22258286.16040
 96  9 11  0 39 30.0000000  0  6  1 14 15 22 25 29
    788293.76300  24248463.72700    591976.67840  24248468.48440
   -381077.09900  21799541.57800   -296939.71140  21799546.03140
    542853.52600  21271929.22700    423004.87740  21271934.09040
   -555065.68100  23914594.40600   -403724.23340  23914599.44540
    517917.24700  21192335.20300    403574.27740  21192338.56640
   -188118.23000  22254335.65600   -146581.67740  22254339.14840
 96  9 11  0 40  0.0000000  0  6  1 14 15 22 25 29
    890525.02900  24267917.81300    671637.40740  24267922.47740
   -425393.76500  21791108.67200   -331472.16940  21791113.06640
    616670.36400  21285976.04700    480524.47840  21285980.94540
   -621973.35500  23901862.81300   -455859.99140  23901867.87540
    588156.39900  21205701.01600    458306.08440  21205704.53140
   -208252.72000  22250504.45300   -162270.86940  22250508.05140
 96  9 11  0 40 30.0000000  0  6  1 14 15 22 25 29
    993172.98700  24287450.84400    751622.79240  24287455.75440
   -469106.72900  21782790.09400   -365534.20840  21782794.27740
    691457.50000  21300207.67200    538800.15440  21300212.62940
   -688431.24200  23889215.92200   -507645.28640  23889222.15640
    659265.29800  21219232.93000    513715.61540  21219236.23440
   -227808.85200  22246783.01600   -177509.39540  22246786.93040
 96  9 11  0 41  0.0000000  0  6  1 14 15 22 25 29
   1096164.07500  24307049.17200    831875.58140  24307053.50840
   -512265.01800  21774577.35200   -399164.03640  21774581.74640
    767157.25900  21314612.78900    597786.95940  21314617.65240
   -754502.65200  23876643.00800   -559129.44740  23876648.65640
    731176.80000  21232917.33600    569750.54640  21232920.71140
   -246851.66900  22243159.27300   -192347.94840  22243163.08240
 96  9 11  0 41 30.0000000  0  6  1 14 15 22 25 29
   1199494.07600  24326712.60200    912392.43140  24326717.20740
   -554882.77100  21766467.43000   -432372.66540  21766471.83640
    843746.55100  21329187.30500    657466.91040  21329192.23840
   -820197.38500  23864142.00000   -610320.06940  23864148.29340
    803848.23900  21246746.10900    626377.64140  21246749.36740
   -265410.67300  22239627.60900   -206809.49240  22239631.27740
 96  9 11  0 42  0.0000000  0  6  1 14 15 22 25 29
   1303150.77700  24346438.15600    993163.85340  24346443.52340
   -596951.71500  21758462.10200   -465153.65240  21758466.55540
    921204.39500  21343927.07000    717823.65240  21343931.93440
   -885524.78600  23851710.14800   -661224.46140  23851715.39840
    877237.89900  21260711.75000    683564.39240  21260715.16040
   -283498.85400  22236185.40600   -220904.16640  22236189.28540
 96  9 11  0 42 30.0000000  0  6  1 14 15 22 25 29
   1407102.43600  24366219.18800   1074165.11040  24366224.70740
   -638467.85200  21750561.46100   -497503.88040  21750565.96140
    999512.97400  21358828.92200    778843.30840  21358833.82040
   -950484.27200  23839348.53900   -711842.19140  23839354.51640
    951318.44800  21274808.74200    741289.49640  21274812.34040
   -301139.50300  22232828.66400   -234650.10940  22232832.47340
 96  9 11  0 43  0.0000000  0  6  1 14 15 22 25 29
   1511333.35200  24386053.32000   1155383.99240  24386058.38340
   -679445.46300  21742763.85900   -529434.48240  21742768.30140
   1078648.85500  21373887.80500    840507.61240  21373892.62140
  -1015076.09600  23827057.86700   -762173.38140  23827063.51640
   1026067.35300  21289033.08600    799535.39540  21289036.47340
   -318361.48400  22229551.41400   -248069.81840  22229555.17640
 96  9 11  0 43 30.0000000  0  6  1 14 15 22 25 29
   1615822.89200  24405938.00000   1236804.37440  24405942.18440
   -719914.08400  21735063.06300   -560968.46440  21735067.71540
   1158582.37200  21389098.60200    902793.45240  21389103.46540
  -1079333.98600  23814829.30500   -812244.40340  23814835.24640
   1101465.69300  21303380.86700    858287.34740  21303384.25440
   -335177.29000  22226351.29700   -261173.02540  22226354.81340
 96  9 11  0 44  0.0000000  0  6  1 14 15 22 25 29
   1720539.70900  24425864.80500   1318401.87540  24425869.25840
   -759890.14300  21727455.95300   -592118.63040  21727460.55940
   1239304.13500  21404459.43800    965693.51640  21404464.40640
  -1143287.19900  23802659.82000   -862078.01540  23802665.25840
   1177525.12000  21317854.53100    917554.43540  21317857.82440
   -351588.02700  22223228.66400   -273960.59540  22223232.18040
 96  9 11  0 44 30.0000000  0  6  1 14 15 22 25 29
   1825461.20500  24445830.15600   1400158.84940  24445835.58240
   -799402.72100  21719936.84400   -622907.64340  21719941.48440
   1320798.32200  21419967.26600   1029195.45940  21419972.10540
  -1206960.90900  23790542.62500   -911693.81640  23790548.70740
   1254260.85500  21332456.87500    977348.51240  21332460.20340
   -367613.46300  22220178.83600   -286447.93940  22220182.39840
 96  9 11  0 45  0.0000000  0  6  1 14 15 22 25 29
   1930574.48400  24465832.55500   1482065.27740  24465837.94540
   -838491.18500  21712498.49200   -653366.18040  21712502.81640
   1403033.52800  21435616.13300   1093274.83340  21435621.06640
  -1270404.68700  23778469.52300   -961130.44640  23778475.14840
   1331651.69600  21347183.82000   1037653.06940  21347187.20740
   -383273.31000  22217199.08600   -298650.39940  22217202.69540
 96  9 11  0 45 30.0000000  0  6  1 14 15 22 25 29
   2035876.11900  24485870.42200   1564118.49540  24485875.52040
   -877167.36700  21705138.48400   -683503.45240  21705143.07840
   1486001.91200  21451404.37500   1157925.51040  21451409.30940
  -1333640.44200  23766436.41400  -1010404.99840  23766442.35540
   1409689.28000  21362033.80500   1098461.57840  21362037.02740
   -398566.88400  22214288.69500   -310567.45440  22214292.18840
 96  9 11  0 46  0.0000000  0  6  1 14 15 22 25 29
   2141359.71600  24505944.03100   1646313.45640  24505948.43840
   -915435.59600  21697856.58600   -713322.84740  21697860.81640
   1569695.66000  21467330.87500   1223141.39540  21467335.86740
  -1396653.67500  23754445.10200  -1059506.12340  23754450.76240
   1488369.14400  21377006.10200   1159770.56040  21377009.37140
   -413520.34600  22211443.18000   -322219.48840  22211446.80140
 96  9 11  0 46 30.0000000  0  6  1 14 15 22 25 29
   2247038.33700  24526054.15600   1728660.42740  24526059.19540
   -953289.80500  21690653.19500   -742819.62640  21690657.57840
   1654114.64900  21483395.28100   1288922.40740  21483400.23840
  -1459410.66900  23742503.06300  -1108407.62740  23742508.04340
   1567682.29200  21392098.92200   1221573.01340  21392102.23840
   -428132.56000  22208662.50800   -333605.61340  22208666.32840
 96  9 11  0 47  0.0000000  0  6  1 14 15 22 25 29
   2352902.21500  24546199.38300   1811151.73740  24546204.79740
   -990743.43100  21683525.85900   -772004.26340  21683530.19540
   1739237.65400  21499593.78100   1355252.00240  21499598.63340
  -1521904.70600  23730611.03900  -1157104.20840  23730615.85540
   1647587.41700  21407304.43800   1283836.74340  21407307.77740
   -442416.02200  22205944.53900   -344735.56640  22205948.13740
 96  9 11  0 47 30.0000000  0  6  1 14 15 22 25 29
   2458929.46000  24566375.35900   1893770.32740  24566379.19140
  -1027806.40000  21676472.97700   -800884.48240  21676477.23040
   1825049.40300  21515923.22700   1422118.28540  21515928.19540
  -1584118.51100  23718771.68800  -1205582.42340  23718777.80540
   1728066.70200  21422619.08600   1346547.87340  21422622.43840
   -456396.33100  22203284.04700   -355629.29840  22203287.86740
 96  9 11  0 48  0.0010000  0  6  1 14 15 22 25 29
   2565131.74600  24586585.08300   1976525.34140  24586590.02840
  -1064466.92600  21669496.66900   -829451.12240  21669501.16940
   1911556.41200  21532384.95000   1489526.32740  21532389.87240
  -1646036.06500  23706988.96600  -1253829.80040  23706995.02440
   1809130.01200  21438044.93500   1409714.08540  21438048.23940
   -470073.40600  22200681.55200   -366286.74240  22200685.44240
 96  9 11  0 48 30.0010000  0  6  1 14 15 22 25 29
   2671510.25700  24606828.72400   2059417.66540  24606834.45440
  -1100724.28200  21662597.36400   -857703.59840  21662601.73540
   1998753.48600  21548977.95000   1557472.08340  21548982.64940
  -1707655.81600  23695263.28600  -1301845.12640  23695268.41940
   1890744.83700  21453575.73100   1473310.05140  21453579.07140
   -483441.46300  22198137.52100   -376703.39740  22198141.13040
 96  9 11  0 49  0.0010000  0  6  1 14 15 22 25 29
   2778067.28000  24627105.37200   2142449.06140  24627110.42340
  -1136588.54500  21655772.54400   -885649.76540  21655776.86840
   2086633.40700  21565700.91900   1625949.92740  21565705.74740
  -1769005.37200  23683589.11400  -1349649.91040  23683595.07940
   1972888.99600  21469207.09100   1537318.48540  21469210.52440
   -496506.32200  22195651.66100   -386883.78640  22195655.34140
 96  9 11  0 49 30.0010000  0  6  1 14 15 22 25 29
   2884771.93100  24647410.34900   2225595.54140  24647415.51740
  -1172089.30300  21649016.81700   -913312.68740  21649021.24740
   2175168.70100  21582548.79400   1694938.44540  21582553.77440
  -1830125.31200  23671958.20000  -1397275.79740  23671963.34540
   2055535.81700  21484934.41900   1601718.60140  21484937.86440
   -509305.80500  22193215.70000   -396857.39640  22193219.53240
 96  9 11  0 50  0.0010000  0  6  1 14 15 22 25 29
   2991605.41900  24667740.03600   2308842.39440  24667746.23540
  -1207236.45100  21642328.69200   -940700.06540  21642332.89940
   2264344.54400  21599518.30200   1764426.09840  21599523.13040
  -1891034.54400  23660367.77100  -1444737.48540  23660373.54840
   2138673.20700  21500754.98900   1666500.98140  21500758.41140
   -521840.38100  22190830.41900   -406624.58540  22190834.14640
 96  9 11  0 50 30.0010000  0  6  1 14 15 22 25 29
   3098555.14700  24688092.00500   2392179.78240  24688096.51740
  -1242027.09300  21635708.12200   -967809.65540  21635712.48140
   2354152.80400  21616608.24700   1834406.54140  21616613.12240
  -1951731.24100  23648817.16900  -1492033.58240  23648822.57140
   2222297.61300  21516668.12200   1731662.85040  21516671.42740
   -534104.46800  22188496.83300   -416180.99840  22188500.56040
 96  9 11  0 51  0.0010000  0  6  1 14 15 22 25 29
   3205618.15100  24708465.47400   2475605.51340  24708472.45040
  -1276441.76300  21629159.14600   -994626.26740  21629163.41140
   2444588.90100  21633817.77800   1904876.21240  21633822.68840
  -2012212.71400  23637307.91900  -1539161.94040  23637313.56740
   2306438.01500  21532679.61400   1797226.79840  21532682.93140
   -546093.11100  22186215.30200   -425522.78240  22186218.61840
 96  9 11  0 51 30.0010000  0  6  1 14 15 22 25 29
   3312790.62900  24728860.07500   2559116.47440  24728864.44640
  -1310469.01800  21622684.14600  -1021141.00040  21622688.39940
   2535650.53900  21651146.16900   1975833.32040  21651151.22040
  -2072464.14900  23625842.16100  -1586111.06740  23625847.83340
   2391119.75200  21548793.91900   1863212.56540  21548797.23540
   -557809.22500  22183985.81000   -434652.20340  22183989.52440
 96  9 11  0 52  0.0010000  0  6  1 14 15 22 25 29
   3420084.50700  24749277.40300   2642722.06940  24749283.00540
  -1344090.54600  21616286.09100  -1047339.58540  21616290.34540
   2627342.41400  21668594.49700   2047281.52140  21668599.41940
  -2132474.66500  23614422.90300  -1632872.44340  23614427.75540
   2476357.20400  21565014.16100   1929631.36140  21565017.53640
   -569221.24600  22181814.24700   -443544.67040  22181817.77440
 96  9 11  0 52 30.0010000  0  6  1 14 15 22 25 29
   3527513.78100  24769720.16900   2726433.16640  24769725.23140
  -1377303.83300  21609965.84100  -1073220.05840  21609970.17740
   2719661.03600  21686162.15300   2119218.09940  21686167.16940
  -2192242.83800  23603049.27800  -1679445.01740  23603054.81040
   2562146.30300  21581339.16900   1996480.01140  21581342.49740
   -580337.06700  22179698.95800   -452206.33440  22179702.46240
 96  9 11  0 53  0.0010000  0  6  1 14 15 22 25 29
   3635062.00200  24790186.23100   2810236.93140  24790191.32940
  -1410120.41000  21603721.06000  -1098791.41040  21603725.34940
   2812593.75700  21703846.84100   2191633.19240  21703852.13840
  -2251776.72200  23591720.06700  -1725834.99440  23591726.16140
   2648470.24300  21597766.03600   2063745.41340  21597769.36440
   -591178.02200  22177635.92700   -460653.81140  22177639.43140
 96  9 11  0 53 30.0010000  0  6  1 14 15 22 25 29
   3742703.03100  24810669.89600   2894113.05340  24810674.68840
  -1442563.28600  21597547.47400  -1124071.56840  21597551.89240
   2906131.45800  21721646.34900   2264519.69640  21721651.31740
  -2311073.30400  23580435.93500  -1772040.09040  23580441.58340
   2735310.40700  21614291.20000   2131413.07640  21614294.52840
   -601755.55800  22175623.02100   -468896.03740  22175626.63040
 96  9 11  0 54  0.0010000  0  6  1 14 15 22 25 29
   3850421.42900  24831167.51300   2978049.42140  24831170.99340
  -1474633.03000  21591444.66100  -1149060.97040  21591449.06740
   3000269.00900  21739559.97400   2337873.61240  21739565.17740
  -2370134.09700  23569197.47400  -1818061.43540  23569202.67740
   2822646.46000  21630910.86400   2199467.13840  21630914.08740
   -612076.96800  22173659.06700   -476938.67940  22173662.57140
 96  9 11  0 54 30.0010000  0  6  1 14 15 22 25 29
   3958183.56400  24851673.85600   3062019.91740  24851678.67340
  -1506353.73600  21585408.46600  -1173778.39940  21585412.59140
   3094980.42100  21757583.13800   2411674.69340  21757588.15340
  -2428967.84200  23558002.48100  -1863905.87440  23558007.69640
   2910439.78800  21647617.38000   2267877.52540  21647620.72040
   -622194.04700  22171733.76300   -484822.10140  22171737.13840
 96  9 11  0 55  0.0010000  0  6  1 14 15 22 25 29
   4065979.67600  24872187.26300   3146016.86640  24872192.51340
  -1537723.51600  21579439.02100  -1198222.38140  21579443.19240
   3190264.32400  21775715.22400   2485921.87040  21775719.99340
  -2487565.72200  23546850.76300  -1909566.51340  23546856.54040
   2998681.39100  21664408.96600   2336637.20940  21664412.34140
   -632103.22500  22169848.18500   -492543.52540  22169851.68840
 96  9 11  0 55 30.0010000  0  6  1 14 15 22 25 29
   4173835.48300  24892711.41100   3230060.30340  24892716.93140
  -1568740.88500  21573536.63800  -1222391.74540  21573540.88040
   3286129.04600  21793957.75500   2560621.63940  21793962.67740
  -2545924.48100  23535745.52800  -1955040.83740  23535750.63840
   3087378.92000  21681287.57500   2405752.17140  21681290.90340
   -641788.02100  22168005.19200   -500090.10440  22168008.70840
 96  9 11  0 56  0.0010000  0  6  1 14 15 22 25 29
   4281780.43700  24913252.63000   3314173.24540  24913259.32140
  -1599400.72300  21567702.20000  -1246282.51940  21567706.61840
   3382571.35000  21812309.95800   2635771.46840  21812315.10340
  -2604053.28300  23524683.94200  -2000335.95240  23524687.69240
   3176527.77700  21698252.00500   2475218.80940  21698255.29840
   -651240.17400  22166206.48900   -507455.40040  22166210.14640
 96  9 11  0 56 30.0010000  0  6  1 14 15 22 25 29
   4389819.59100  24933812.46600   3398359.60540  24933818.54840
  -1629717.87300  21561933.36400  -1269906.26640  21561937.53640
   3479577.38200  21830769.73100   2711360.56840  21830774.75940
  -2661960.97900  23513664.40300  -2045458.78540  23513669.56040
   3266124.52600  21715301.61400   2545034.45440  21715305.03640
   -660463.80300  22164451.27100   -514642.63540  22164454.92740
 96  9 11  0 57  0.0010000  0  6  1 14 15 22 25 29
   4497961.08900  24954390.49700   3482625.66440  24954395.20840
  -1659688.77200  21556229.78600  -1293260.20640  21556234.01740
   3577146.87400  21849336.42700   2787388.72240  21849341.23140
  -2719657.25500  23502685.27100  -2090416.88540  23502690.36840
   3356191.07100  21732441.13000   2615216.17840  21732444.49340
   -669438.37800  22162743.40300   -521635.80040  22162747.21240
 96  9 11  0 57 30.0010000  0  6  1 14 15 22 25 29
   4606224.05600  24974992.40300   3566986.40740  24974996.30640
  -1689297.50000  21550595.39600  -1316331.93340  21550599.67340
   3675292.49200  21868012.88000   2863865.80840  21868017.67340
  -2777125.79500  23491749.39600  -2135197.51940  23491754.79840
   3446752.71400  21749674.16100   2685783.68940  21749677.57140
   -678151.73100  22161085.25500   -528425.41440  22161088.84140
 96  9 11  0 58  0.0010000  0  6  1 14 15 22 25 29
   4714599.70500  24995615.89600   3651434.92840  24995619.82140
  -1718526.06500  21545033.55200  -1339107.43740  21545037.72440
   3774006.32400  21886797.58300   2940785.65640  21886802.38840
  -2834351.07300  23480859.91100  -2179788.59940  23480864.79840
   3537798.41900  21766999.69200   2756728.39340  21767003.06740
   -686608.44000  22159475.91900   -535015.04440  22159479.54040
 96  9 11  0 58 30.0010000  0  6  1 14 15 22 25 29
   4823062.13700  25016255.83300   3735951.05440  25016262.96240
  -1747370.59100  21539544.55200  -1361583.68840  21539548.86440
   3873275.18600  21905688.01300   3018137.99940  21905692.94640
  -2891342.59900  23470014.70800  -2224197.53040  23470020.13440
   3629310.88900  21784413.93500   2828036.80940  21784417.05240
   -694824.26300  22157912.89600   -541416.97740  22157916.52840
 96  9 11  0 59  0.0010000  0  6  1 14 15 22 25 29
   4931588.86100  25036907.45000   3820517.33640  25036915.70440
  -1775839.02500  21534127.25500  -1383766.87240  21534131.35640
   3973082.63700  21924680.60600   3095910.02040  21924685.61040
  -2948107.68500  23459212.84900  -2268430.04340  23459218.15740
   3721254.41600  21801910.08300   2899681.11440  21801913.29440
   -702812.90700  22156392.80200   -547641.88040  22156396.31740
 96  9 11  0 59 30.0010000  0  6  1 14 15 22 25 29
   5040172.66300  25057569.93500   3905128.09440  25057576.08740
  -1803928.18000  21528782.05200  -1405654.52940  21528786.43540
   4073420.94400  21943774.46600   3174095.69440  21943779.50540
  -3004639.00000  23448454.48100  -2312480.38240  23448459.36840
   3813599.13000  21819482.94200   2971638.03140  21819486.29440
   -710581.71200  22154913.97400   -553695.48940  22154917.45440
 96  9 11  1  0  0.0010000  0  6  1 14 15 22 25 29
   5148799.95500  25078241.83300   3989772.64240  25078247.92740
  -1831636.43600  21523509.27800  -1427245.37040  21523513.62640
   4174279.66300  21962967.22400   3252686.88440  21962972.09940
  -3060951.73900  23437738.94200  -2356360.40140  23437743.31340
   3906331.93300  21837129.28600   3043897.35640  21837132.60340
   -718134.01000  22153476.97400   -559580.38640  22153480.46640
 96  9 11  1  0 30.0010000  0  6  1 14 15 22 25 29
   5257482.98200  25098923.06700   4074460.72540  25098928.39940
  -1858957.11800  21518310.25500  -1448534.20940  21518314.56740
   4275687.01200  21982264.25500   3331705.56840  21982269.06040
  -3117024.00200  23427068.46600  -2400053.02840  23427073.71640
   3999488.94600  21854856.59900   3116487.23140  21854859.79840
   -725445.31100  22152085.55200   -565277.49040  22152089.12640
 96  9 11  1  1  0.0010000  0  6  1 14 15 22 25 29
   5366203.48100  25119611.90300   4159177.97440  25119615.10340
  -1885926.26200  21513178.02100  -1469549.11840  21513182.28640
   4377621.92600  22001662.13800   3411135.35340  22001667.34140
  -3172866.89500  23416442.16900  -2443566.94240  23416447.19640
   4093059.12700  21872662.15300   3189399.06540  21872665.39940
   -732546.39000  22150734.27100   -570810.78040  22150737.64640
 96  9 11  1  1 30.0010000  0  6  1 14 15 22 25 29
   5474960.52300  25140308.07500   4243923.66040  25140312.50540
  -1912559.89500  21508109.93500  -1490302.59340  21508114.13040
   4480069.61300  22021157.24700   3490964.70140  22021162.12240
  -3228495.03400  23405856.02800  -2486913.50440  23405862.14640
   4187055.78900  21890549.29400   3262643.21240  21890552.50540
   -739457.11900  22149419.22400   -576195.75740  22149422.89240
 96  9 11  1  2  0.0010000  0  6  1 14 15 22 25 29
   5583773.14400  25161014.32500   4328712.74640  25161020.56040
  -1938850.95300  21503106.82500  -1510789.12640  21503111.10340
   4583036.21400  22040750.97400   3571198.40040  22040755.94240
  -3283894.26600  23395313.89600  -2530081.69740  23395318.89940
   4281496.75500  21908520.95800   3336233.57640  21908524.26340
   -746175.24100  22148140.99700   -581430.64840  22148144.51340
 96  9 11  1  2 30.0010000  0  6  1 14 15 22 25 29
   5692650.42800  25181732.02800   4413552.17440  25181737.61840
  -1964802.20100  21498168.48900  -1531010.87240  21498172.80240
   4686513.88600  22060442.34100   3651830.33140  22060447.04040
  -3339058.18900  23384816.66100  -2573066.55640  23384821.02140
   4376368.64700  21926574.34900   3410159.72540  21926577.59540
   -752719.71600  22146895.58300   -586530.23740  22146899.28640
 96  9 11  1  3  0.0010000  0  6  1 14 15 22 25 29
   5801621.85500  25202470.04400   4498464.93840  25202476.50140
  -1990390.30800  21493299.29400  -1550949.64840  21493303.61840
   4790499.71500  22080230.16900   3732858.23740  22080235.38440
  -3393973.64700  23374366.76300  -2615857.76840  23374371.34540
   4471666.66200  21944708.92700   3484417.91340  21944712.20840
   -759090.79400  22145682.97400   -591494.70040  22145686.39640
 96  9 11  1  3 30.0010000  0  6  1 14 15 22 25 29
   5910680.74100  25223223.06700   4583445.88440  25223225.52840
  -2015605.01900  21488501.12200  -1570597.46840  21488505.45840
   4894981.18200  22100112.27100   3814272.35140  22100117.29840
  -3448639.06800  23363964.03600  -2658454.15540  23363968.44240
   4567361.20500  21962918.85600   3558985.09240  21962922.18540
   -765278.77000  22144505.72400   -596316.48640  22144509.19240
 96  9 11  1  4  0.0010000  0  5 14 15 22 25 29
  -2040435.17300  21483776.16900  -1589945.63040  21483780.30640
   4999958.24600  22120088.64600   3896072.63740  22120093.62640
  -3503042.54500  23353611.02100  -2700846.45040  23353616.37640
   4663425.07100  21981199.20000   3633840.04340  21981202.55240
   -771274.48700  22143364.70000   -600988.46440  22143368.32140
 96  9 11  1  4 30.0010000  0  5 14 15 22 25 29
  -2064896.75000  21479121.20000  -1609006.59140  21479125.29040
   5105414.14300  22140156.28600   3978246.03840  22140161.25540
  -3557195.43400  23343306.66100  -2743043.46940  23343311.97040
   4759848.16500  21999548.00500   3708974.92340  21999551.32140
   -777085.33400  22142258.85600   -605516.38840  22142262.24340
 96  9 11  1  5  0.0010000  0  5 14 15 22 25 29
  -2088991.27800  21474536.16900  -1627781.54140  21474540.44640
   5211347.33900  22160314.78600   4060791.36840  22160319.80240
  -3611089.94800  23333050.63000  -2785039.16440  23333055.13040
   4856634.37500  22017965.89600   3784392.74440  22017969.07140
   -782690.43500  22141192.15300   -609883.99340  22141195.39940
 96  9 11  1  5 30.0010000  0  5 14 15 22 25 29
  -2112716.88300  21470021.40300  -1646269.01540  21470025.47040
   5317769.92700  22180566.30200   4143718.04140  22180571.55240
  -3664717.74700  23322845.52800  -2826827.01940  23322849.86440
   4953795.03900  22036454.91100   3860102.34540  22036458.18140
   -788066.45800  22140169.19200   -614073.09440  22140172.74340
 96  9 11  1  6  0.0010000  0  5 14 15 22 25 29
  -2136092.33700  21465573.10600  -1664483.65040  21465577.18540
   5424671.06700  22200908.91900   4227017.60940  22200913.92340
  -3718097.71900  23312687.63800  -2868421.77340  23312692.73540
   5051339.44400  22055016.93500   3936110.96840  22055020.13440
   -793233.66000  22139185.88000   -618099.47740  22139189.29040
 96  9 11  1  6 30.0010000  0  5 14 15 22 25 29
  -2159114.85900  21461192.14600  -1682423.26740  21461196.21240
   5532049.16400  22221342.44200   4310688.84140  22221347.54040
  -3771230.26700  23302576.81700  -2909823.69940  23302581.90340
   5149285.46100  22073655.58300   4012432.53540  22073659.01740
   -798194.58900  22138241.73900   -621965.12340  22138245.13840
 96  9 11  1  7  0.0010000  0  5 14 15 22 25 29
  -2181776.22100  21456879.52100  -1700081.46540  21456883.81040
   5639904.60700  22241866.95800   4394732.02440  22241871.86840
  -3824104.77500  23292515.43500  -2951024.59140  23292521.11840
   5247627.20100  22092369.40300   4089062.45340  22092372.57940
   -802950.87700  22137336.75500   -625671.31240  22137340.15340
 96  9 11  1  7 30.0010000  0  5 14 15 22 25 29
  -2204086.50000  21452634.32500  -1717466.08940  21452638.48540
   5748212.17700  22262476.88000   4479127.51640  22262481.95440
  -3876738.96900  23282499.45800  -2992038.21040  23282504.61440
   5346346.68200  22111154.98100   4165986.72540  22111158.14640
   -807533.55000  22136464.59900   -629242.21140  22136468.05640
 96  9 11  1  8  0.0010000  0  5 14 15 22 25 29
  -2226000.67600  21448464.20000  -1734542.06940  21448468.33740
   5856988.74400  22283176.52800   4563888.45740  22283181.43840
  -3929101.52200  23272534.75500  -3032840.15840  23272539.87640
   5445465.25000  22130016.53600   4243221.96840  22130019.70040
   -811932.42100  22135627.49700   -632669.89440  22135630.93140
 96  9 11  1  8 30.0010000  0  5 14 15 22 25 29
  -2247525.93600  21444368.05200  -1751314.99140  21444372.16540
   5966213.64100  22303961.41100   4648998.75040  22303966.52140
  -3981185.54100  23262623.24700  -3073425.07640  23262627.65340
   5544960.09700  22148949.81700   4320750.41240  22148953.01740
   -816167.26900  22134821.73900   -635969.76640  22134825.22040
 96  9 11  1  9  0.0010000  0  5 14 15 22 25 29
  -2268655.06500  21440347.31700  -1767779.24040  21440351.45440
   6075890.77900  22324832.02800   4734461.43740  22324837.07940
  -4032974.61300  23252768.29400  -3113780.15940  23252773.34540
   5644826.95500  22167953.94200   4398568.74140  22167957.38840
   -820225.79200  22134049.40300   -639132.24140  22134052.88440
 96  9 11  1  9 30.0010000  0  5 14 15 22 25 29
  -2289384.98300  21436402.47400  -1783932.41340  21436406.68140
   6186019.67300  22345788.65300   4820276.14440  22345794.11440
  -4084474.23700  23242968.65300  -3153909.69840  23242973.36440
   5745068.99200  22187029.30200   4476679.41540  22187032.53640
   -824100.75800  22133312.23100   -642151.68440  22133315.41940
 96  9 11  1 10  0.0010000  0  5 14 15 22 25 29
  -2309722.87600  21432532.34100  -1799780.11640  21432536.57140
   6296597.85000  22366831.17700   4906440.94540  22366836.53240
  -4135681.91400  23233223.80200  -3193811.74240  23233228.53640
   5845674.36100  22206174.13800   4555073.20440  22206177.45440
   -827790.21700  22132610.02100   -645026.57340  22132613.45440
 96  9 11  1 10 30.0010000  0  5 14 15 22 25 29
  -2329694.93400  21428731.69200  -1815342.75040  21428735.91140
   6407608.72800  22387955.93500   4992942.91340  22387961.03240
  -4186621.21400  23223530.29400  -3233504.66140  23223535.46240
   5946617.75000  22225382.91900   4633730.39140  22225386.07140
   -831295.71300  22131942.73100   -647758.11640  22131946.02440
 96  9 11  1 11  0.0010000  0  5 14 15 22 25 29
  -2349290.58600  21425002.70800  -1830612.08140  21425006.96240
   6519061.93100  22409164.97400   5079789.54740  22409170.11840
  -4237300.34600  23213886.63800  -3272994.85640  23213891.56040
   6047905.57000  22244657.30200   4712655.95940  22244660.48940
   -834596.03500  22131314.83300   -650329.78040  22131318.29040
 96  9 11  1 11 30.0020000  0  5 14 15 22 25 29
  -2368511.30600  21421345.27500  -1845589.25640  21421349.37740
   6630946.84200  22430455.82200   5166972.57540  22430460.72140
  -4287736.63800  23204288.94700  -3312295.82240  23204293.74040
   6149526.09500  22263995.13500   4791840.78440  22263998.29940
   -837703.20800  22130723.66600   -652750.93740  22130727.08840
 96  9 11  1 12  0.0020000  0  5 14 15 22 25 29
  -2387377.91100  21417754.97900  -1860290.50740  21417759.22140
   6743229.91500  22451822.65800   5254465.85140  22451827.54540
  -4337943.50700  23194735.11900  -3351418.02240  23194739.71340
   6251437.71500  22283388.22100   4871252.42740  22283391.32640
   -840638.64300  22130165.08800   -655038.27740  22130168.70940
 96  9 11  1 12 30.0020000  0  5 14 15 22 25 29
  -2405865.42100  21414237.11100  -1874696.35240  21414241.24840
   6855943.16400  22473271.29900   5342294.33540  22473276.50240
  -4387888.60400  23185230.53300  -3390336.24840  23185235.87740
   6353684.34300  22302845.27500   4950925.12140  22302848.59240
   -843378.63200  22129643.60400   -657173.31740  22129646.87340
 96  9 11  1 13  0.0020000  0  5 14 15 22 25 29
  -2423971.85100  21410791.36100  -1888805.25640  21410795.47540
   6969081.66600  22494800.76800   5430454.17440  22494805.73640
  -4437551.42900  23175779.59600  -3429034.52140  23175784.82240
   6456272.68200  22322366.97100   5030864.08240  22322370.29940
   -845944.83000  22129155.07200   -659172.93840  22129158.50640
 96  9 11  1 13 30.0020000  0  5 14 15 22 25 29
  -2441697.84800  21407418.31400  -1902617.72040  21407422.49840
   7082633.32300  22516409.03300   5518935.95740  22516414.08440
  -4486924.01300  23166384.65800  -3467506.62240  23166389.19340
   6559193.30500  22341952.13500   5111061.96640  22341955.49840
   -848359.94000  22128695.76800   -661054.82740  22128699.08440
 96  9 11  1 14  0.0020000  0  5 14 15 22 25 29
  -2459056.84500  21404114.84600  -1916144.20440  21404119.13540
   7196591.60600  22538094.56400   5607734.60440  22538099.63940
  -4536005.07600  23157044.93900  -3505751.56940  23157050.08440
   6662451.30400  22361601.37700   5191522.74440  22361604.71740
   -850639.15800  22128261.89300   -662830.82940  22128265.20940
 96  9 11  1 14 30.0020000  0  5 14 15 22 25 29
  -2476041.85500  21400882.82200  -1929379.27940  21400886.95940
   7310954.70800  22559857.18900   5696848.69340  22559862.15840
  -4584779.83100  23147763.22900  -3543757.82740  23147767.86940
   6766060.25400  22381317.72100   5272256.98140  22381320.97940
   -852790.65900  22127852.46300   -664507.30640  22127855.81440
 96  9 11  1 15  0.0020000  0  5 14 15 22 25 29
  -2492607.32000  21397730.57200  -1942287.43440  21397734.69740
   7425759.99900  22581703.84600   5786307.33940  22581708.88540
  -4633213.73300  23138546.69700  -3581498.49740  23138550.95140
   6870045.56500  22401105.35400   5353284.49740  22401108.57640
   -854764.60500  22127476.76800   -666045.43340  22127480.21340
 96  9 11  1 15 30.0020000  0  5 14 15 22 25 29
  -2508709.29100  21394666.29900  -1954834.41940  21394670.61140
   7541063.85600  22603645.50200   5876154.48440  22603650.49440
  -4681260.36400  23129403.59600  -3618937.38340  23129408.34240
   6974454.22500  22420973.52500   5434641.89240  22420977.11140
   -856480.88900  22127150.17400   -667382.79040  22127153.57240
 96  9 11  1 16  0.0020000  0  5 14 15 22 25 29
  -2524426.93400  21391675.18200  -1967081.93340  21391679.54140
   7656783.64200  22625666.42400   5966325.71940  22625671.38140
  -4728995.97700  23120319.84600  -3656133.93440  23120324.46340
   7079203.64700  22440906.57200   5516264.80640  22440909.87740
   -858000.83100  22126860.87700   -668567.14840  22126864.17040
 96  9 11  1 16 30.0020000  0  5 14 15 22 25 29
  -2539785.37100  21388752.73600  -1979049.54640  21388757.06140
   7772880.38300  22647758.66600   6056790.68740  22647763.52940
  -4776448.94600  23111289.71300  -3693110.23840  23111294.34240
   7184246.71100  22460895.91600   5598116.53840  22460899.40840
   -859346.57700  22126604.66600   -669615.77140  22126608.14640
 96  9 11  1 17  0.0020000  0  5 14 15 22 25 29
  -2554762.78000  21385902.81400  -1990720.24840  21385907.08040
   7889357.29400  22669923.61900   6147551.89340  22669928.45940
  -4823612.62400  23102314.60400  -3729861.12540  23102319.36140
   7289576.76500  22480939.58000   5680191.89640  22480942.73240
   -860497.11400  22126385.97900   -670512.28440  22126389.40040
 96  9 11  1 17 30.0020000  0  5 14 15 22 25 29
  -2569311.54000  21383134.16600  -2002056.93840  21383138.26840
   8006232.48600  22692164.15000   6238623.44440  22692169.37740
  -4870461.66700  23093399.84600  -3766366.83640  23093404.93240
   7395218.44400  22501042.47100   5762510.08640  22501045.63540
   -861428.84700  22126208.57200   -671238.29840  22126211.76040
 96  9 11  1 18  0.0020000  0  5 14 15 22 25 29
  -2583432.82000  21380447.04900  -2013060.52940  21380451.15040
   8123479.34900  22714475.43900   6329984.60440  22714480.95940
  -4917008.56700  23084541.88500  -3802637.12740  23084546.72540
   7501159.96600  22521202.29100   5845061.91340  22521205.60740
   -862175.11500  22126066.67400   -671819.79840  22126070.10740
 96  9 11  1 18 30.0020000  0  6 14 15 18 22 25 29
  -2597116.61000  21377842.96300  -2023723.21240  21377847.20540
   8241103.41300  22736858.67400   6421639.69340  22736863.80740
    -25047.20010  25355968.43900
  -4963251.09700  23075742.36100  -3838670.22140  23075746.77940
   7607411.66400  22541421.43900   5927855.43940  22541424.65040
   -862743.49800  22125958.29900   -672262.69140  22125961.59240
 96  9 11  1 19  0.0020000  0  6 14 15 18 22 25 29
  -2610366.96700  21375321.60400  -2034048.16340  21375325.85740
   8359097.06400  22759311.89300   6513582.76940  22759317.14340
    -69214.96600  25347562.97100
  -5009199.93300  23066998.61100  -3874474.48440  23067003.04140
   7713970.35500  22561698.94700   6010888.17740  22561702.11140
   -863146.04100  22125881.94700   -672576.35140  22125885.10040
 96  9 11  1 19 30.0020000  0  6 14 15 18 22 25 29
  -2623191.83100  21372880.98600  -2044041.56340  21372885.20540
   8477463.76000  22781836.43200   6605816.52740  22781841.75240
   -113327.28600  25339169.97100    -21763.04950  25339175.22140
  -5054851.23200  23058310.97900  -3910046.88440  23058316.12340
   7820847.75600  22582037.10400   6094169.26340  22582040.29140
   -863390.62800  22125835.23600   -672766.93340  22125838.68240
 96  9 11  1 20  0.0020000  0  6 14 15 18 22 25 29
  -2635622.23900  21370515.61900  -2053727.58840  21370519.89640
   8596189.00800  22804428.86100   6698329.68540  22804433.80740
   -157391.91800  25330784.58800    -56099.09640  25330790.91640
  -5100204.32800  23049680.67400  -3945386.92040  23049685.37340
   7928025.89500  22602432.49400   6177684.69040  22602435.85740
   -863501.63100  22125814.03300   -672853.42340  22125817.46740
 96  9 11  1 20 30.0020000  0  6 14 15 18 22 25 29
  -2647647.56700  21368227.21300  -2063097.96440  21368231.42040
   8715281.32900  22827091.89300   6791128.87140  22827097.21340
   -201400.57400  25322409.61100    -90391.48540  25322414.49840
  -5145237.71100  23041111.24400  -3980477.83140  23041115.99040
   8035496.02300  22622883.27500   6261427.64140  22622886.47540
   -863463.95200  22125821.36100   -672824.05440  22125824.76040
 96  9 11  1 21  0.0020000  0  6 14 15 18 22 25 29
  -2659269.50100  21366015.64300  -2072154.00840  21366019.73240
   8834740.22400  22849824.11100   6884213.70440  22849829.01040
   -245353.48100  25314045.35400   -124640.44540  25314048.74040
  -5189934.59900  23032605.79100  -4015306.54040  23032610.99440
   8143256.42500  22643389.49400   6345396.78240  22643392.61140
   -863263.07600  22125859.59600   -672667.52040  22125862.83040
 96  9 11  1 21 30.0020000  0  6 14 15 18 22 25 29
  -2670510.76800  21363876.72100  -2080913.42640  21363880.91640
   8954539.98700  22872621.38500   6977564.14340  22872626.88140
   -289272.93400  25305687.88500   -158863.39040  25305696.37340
  -5234301.00000  23024162.96300  -4049877.71540  23024168.15440
   8251279.03500  22663945.59600   6429570.24540  22663948.94740
   -862919.14700  22125924.74400   -672399.52040  22125928.08440
 96  9 11  1 22  0.0020000  0  6 14 15 18 22 25 29
  -2681373.45700  21361809.45500  -2089377.85940  21361813.56840
   9074675.05200  22895482.22100   7071175.85140  22895487.64640
   -333170.66400  25297333.97900
  -5278328.58100  23015784.56400  -4084184.87940  23015789.67440
   8359558.79100  22684550.44700   6513944.07440  22684553.55340
   -862418.95100  22126020.05700   -672009.75540  22126023.37340
 96  9 11  1 22 30.0020000  0  6 14 15 18 22 25 29
  -2691833.09900  21359819.18900  -2097528.21940  21359823.26840
   9195161.98900  22918410.34600   7165061.75340  22918415.16240
   -377029.08500  25288988.24400
  -5321993.55500  23007475.45500  -4118209.50940  23007480.28340
   8468122.05900  22705209.15800   6598538.82040  22705212.46340
   -861735.66000  22126150.01800   -671477.31140  22126153.39340
 96  9 11  1 23  0.0020000  0  6 14 15 18 22 25 29
  -2701878.13300  21357907.62700  -2105355.50640  21357911.65840
   9316003.58100  22941405.72900   7259224.00840  22941411.11940
   -420827.26300  25280654.60400     -3411.08850  25280662.69340
  -5365302.01600  22999234.16600  -4151956.31740  22999238.61940
   8576982.17500  22725924.89300   6683364.87840  22725928.40840
   -860868.29900  22126315.13500   -670801.43440  22126318.39340
 96  9 11  1 23 30.0020000  0  6 14 15 18 22 25 29
  -2711510.97500  21356074.48600  -2112861.61840  21356078.60040
   9437177.85900  22964464.10400   7353645.50740  22964469.20140
   -464568.52200  25272330.15800    -37495.14840  25272336.85040
  -5408271.80400  22991057.46300  -4185439.23740  22991062.02140
   8686114.23700  22746691.92400   6768402.84640  22746695.21740
   -859833.49600  22126512.04100   -669995.08940  22126515.28740
 96  9 11  1 24  0.0020000  0  6 14 15 18 22 25 29
  -2720721.80800  21354321.72100  -2120038.87640  21354325.69340
   9558692.58800  22987587.92400   7448332.27840  22987592.83440
   -508237.84400  25264019.58800    -71523.14540  25264023.44340
  -5450891.09000  22982946.97900  -4218649.01540  22982952.22940
   8795533.24000  22767513.69700   6853664.39940  22767517.00240
   -858625.86000  22126742.18900   -669054.06540  22126745.35440
 96  9 11  1 24 30.0020000  0  6 14 15 18 22 25 29
  -2729484.64000  21352654.22900  -2126867.05440  21352658.31840
   9680556.38600  23010777.61900   7543291.05440  23010782.86940
   -551823.92800  25255726.26000   -105486.28040  25255731.62740
  -5493157.10500  22974903.86900  -4251583.54040  22974909.17840
   8905235.21400  22788389.29900   6939146.44740  22788392.59240
   -857237.19300  22127006.08000   -667971.98040  22127009.10440
 96  9 11  1 25  0.0020000  0  6 14 15 18 22 25 29
  -2737809.44900  21351070.06400  -2133353.90740  21351074.16640
   9802755.08000  23034031.18900   7638510.78640  23034036.87340
   -595339.11700  25247445.90800   -139394.15640  25247452.49440
  -5535085.69600  22966925.44700  -4284255.13240  22966929.54940
   9015202.93500  22809315.36900   7024835.58040  22809318.59240
   -855676.44400  22127303.22900   -666755.80040  22127306.36940
 96  9 11  1 25 30.0020000  0  6 14 15 18 22 25 29
  -2745712.88700  21349566.13500  -2139512.42840  21349570.20140
   9925272.40000  23057345.55700   7733978.80040  23057351.08840
   -638818.23400  25239171.55700   -173273.94140  25239175.56440
  -5576678.01600  22959010.72100  -4316664.68140  22959015.45540
   9125425.25100  22830290.03300   7110723.08940  22830293.37340
   -853960.40900  22127629.77500   -665418.62040  22127632.97540
 96  9 11  1 26  0.0020000  0  6 14 15 18 22 25 29
  -2753199.50000  21348141.34600  -2145346.14940  21348145.58840
  10048111.55400  23080721.11100   7829697.59740  23080726.53740
   -682277.26200  25230900.46300   -207138.09940  25230905.71340
  -5617935.55600  22951159.39300  -4348813.38240  22951164.09240
   9235911.72200  22851314.86100   7196816.44240  22851317.93240
   -852087.47800  22127986.09600   -663959.18440  22127989.42440
 96  9 11  1 26 30.0020000  0  6 14 15 18 22 25 29
  -2760234.83500  21346802.59600  -2150828.22240  21346806.79140
  10171288.43900  23104161.15800   7925679.55140  23104166.71340
   -725700.32100  25222637.93200   -240974.26340  25222643.90840
  -5658836.90000  22943376.20500  -4380684.52540  22943381.15040
   9346676.12400  22872392.72100   7283126.36040  22872396.21340
   -850036.57100  22128376.37700   -662361.06840  22128379.63540
 96  9 11  1 27  0.0020000  0  6 14 15 18 22 25 29
  -2766838.71500  21345545.76000  -2155974.10040  21345550.00240
  10294788.09400  23127662.26000   8021913.02440  23127667.39340
   -769090.23000  25214380.85400   -274784.52140  25214384.63940
  -5699370.79900  22935662.77500  -4412269.35640  22935667.29940
   9457724.69900  22893524.36900   7369657.70640  22893527.70940
   -847836.92800  22128794.89300   -660647.05040  22128798.20940
 96  9 11  1 27 30.0020000  0  6 14 15 18 22 25 29
  -2773012.58700  21344371.02500  -2160784.90640  21344375.20940
  10418608.25800  23151224.16600   8118396.23240  23151229.83840
   -812440.95000  25206131.79900   -308564.21640  25206137.67040
  -5739528.83900  22928021.11900  -4443561.30440  22928025.35040
   9569056.60600  22914710.15800   7456409.83540  22914713.65040
   -845488.15000  22129241.93200   -658816.82440  22129245.18940
 96  9 11  1 28  0.0020000  0  6 14 15 18 22 25 29
  -2778767.80100  21343275.98600  -2165269.48940  21343280.15840
  10542733.71800  23174844.82200   8215117.33340  23174850.37740
   -855752.41700  25197890.11900   -342313.36740  25197895.82640
  -5779316.68300  22920449.51000  -4474564.78940  22920453.95140
   9680657.58100  22935947.33000   7543371.63040  22935950.72940
   -843001.44000  22129715.04900   -656879.12540  22129718.30740
 96  9 11  1 28 30.0020000  0  6 14 15 18 22 25 29
  -2784098.48500  21342261.41600  -2169423.26840  21342265.50640
  10667168.49700  23198523.83800   8312079.47040  23198528.60740
   -898996.05100  25189661.85400   -376009.68940  25189665.83840
  -5818713.94000  22912952.61900  -4505263.91840  22912957.31840
   9792539.91700  22957237.61900   7630552.66740  22957240.45540
   -840376.91300  22130214.51000   -654834.02540  22130217.65040
 96  9 11  1 29  0.0020000  0  6 14 15 18 22 25 29
  -2789006.41300  21341327.47900  -2173247.61940  21341331.72140
  10791912.37100  23222261.72100   8409282.46740  23222267.14640
   -942170.28600  25181445.04900   -409651.92640  25181450.70940
  -5857725.45500  22905528.73600  -4535662.47140  22905533.29540
   9904708.04800  22978582.51800   7717956.40040  22978585.58840
   -837606.70900  22130741.48600   -652675.41140  22130744.89640
 96  9 11  1 29 30.0020000  0  6 14 15 18 22 25 29
  -2793487.21300  21340474.83800  -2176739.14840  21340478.97540
  10916955.92700  23246056.80700   8506718.97040  23246062.17440
   -985291.31800  25173239.65000   -443252.69340  25173245.13540
  -5896378.96400  22898173.40000  -4565782.04740  22898177.98240
  10017142.55100  22999978.15800   7805567.70440  22999981.96740
   -834667.44700  22131300.82200   -650385.07340  22131304.02140
 96  9 11  1 30  0.0020000  0  6 14 15 18 22 25 29
  -2797514.84800  21339708.55700  -2179877.56040  21339712.72940
  11042299.00000  23269909.26000   8604388.87440  23269914.00640
  -1028361.48100  25165043.03300   -476813.80040  25165047.80340
  -5934670.90500  22890886.86100  -4595619.90140  22890891.35040
  10129837.04600  23021423.19700   7893381.58640  23021426.30340
   -831546.36300  22131895.11100   -647953.05140  22131898.32240
 96  9 11  1 30 30.0020000  0  6 14 15 18 22 25 29
  -2801086.10800  21339028.90000  -2182660.35540  21339032.99040
  11167939.04300  23293817.48600   8702290.17140  23293822.64340
  -1071383.65400  25156857.05700   -510337.53440  25156862.13140
  -5972605.45100  22883667.88500  -4625179.24940  22883672.79540
  10242774.08300  23042914.39300   7981384.47140  23042917.89640
   -828223.15100  22132527.26800   -645363.53240  22132530.59640
 96  9 11  1 31  0.0020000  0  6 14 15 18 22 25 29
  -2804197.70000  21338436.76000  -2185084.96440  21338440.87340
  11293863.65700  23317780.34600   8800413.23640  23317786.35740
  -1114370.99500  25148675.71300   -543834.12740  25148682.49840
  -6010198.81100  22876513.92400  -4654472.74040  22876518.52940
  10355918.34800  23064445.08000   8069548.83240  23064448.24440
   -824693.22900  22133199.08000   -642612.93740  22133202.29140
 96  9 11  1 31 30.0020000  0  6 14 15 18 22 25 29
  -2806879.93700  21337926.27500  -2187175.01540  21337930.36540
  11420048.61100  23341792.22100   8898739.15040  23341797.79940
  -1157345.39300  25140498.16600   -577320.61940  25140502.74840
  -6047453.77500  22869424.63500  -4683502.55740  22869428.92440
  10469236.21200  23086008.70500   8157848.46740  23086012.24440
   -820983.02000  22133905.00200   -639721.85440  22133908.28340
 96  9 11  1 32  0.0020000  0  6 14 15 18 22 25 29
  -2809121.28700  21337499.72900  -2188921.52040  21337503.84240
  11546507.79700  23365856.56400   8997278.74340  23365861.49840
  -1200279.85300  25132328.81400   -610776.00140  25132333.39640
  -6084325.52100  22862408.45500  -4712233.75540  22862412.80340
  10582743.34900  23107608.24400   8246295.58640  23107611.52540
   -817102.98300  22134643.15800   -636698.44140  22134646.32240
 96  9 11  1 32 30.0020000  0  6 14 15 18 22 25 29
  -2810930.42900  21337155.62700  -2190331.22840  21337159.85740
  11673239.62400  23389973.06400   9096030.79440  23389978.09240
  -1243167.14700  25124167.43200   -644194.66340  25124173.88940
  -6120801.70400  22855466.93900  -4740656.72240  22855471.65040
  10696448.50800  23129245.91600   8334897.00640  23129249.11540
   -813075.40900  22135409.67400   -633560.06240  22135412.73240
 96  9 11  1 33  0.0020000  0  6 14 15 18 22 25 29
  -2812291.64300  21336896.55700  -2191391.90640  21336900.74040
  11800249.99000  23414142.66600   9194999.87940  23414147.72940
  -1285996.04100  25116017.39300   -677567.76540  25116021.08440
  -6156858.86600  22848605.36900  -4768753.18340  22848609.71740
  10810379.51600  23150926.47100   8423674.40840  23150929.81140
   -808918.98800  22136200.72100   -630321.28740  22136203.81440
 96  9 11  1 33 30.0030000  0  6 14 15 18 22 25 29
  -2813202.21800  21336723.45200  -2192101.43740  21336727.64740
  11927539.90100  23438364.92900   9294186.79640  23438369.95640
  -1328766.89500  25107878.14700   -710895.63340  25107884.44040
  -6192477.35100  22841827.51500  -4796507.81240  22841832.05040
  10924558.07200  23172653.64000   8512644.70940  23172656.41740
   -804636.44900  22137015.80400   -626984.23140  22137019.08540
 96  9 11  1 34  0.0030000  0  6 14 15 18 22 25 29
  -2813650.39900  21336637.88200  -2192450.67340  21336642.04240
  12055095.11600  23462637.59300   9393580.42940  23462642.90140
  -1371465.62200  25099753.15500   -744167.35540  25099757.69040
  -6227663.16600  22835131.68700  -4823925.30240  22835136.62040
  11038986.75300  23194428.77200   8601809.91140  23194432.34740
   -800226.15600  22137854.90500   -623547.63940  22137858.22240
 96  9 11  1 34 30.0030000  0  6 14 15 18 22 25 29
  -2813639.66900  21336639.98300  -2192442.31540  21336644.10840
  12182915.09800  23486961.26500   9493180.38540  23486966.30440
  -1414097.69600  25091640.01500   -777387.10840  25091646.60140
  -6262432.45200  22828515.61600  -4851018.22640  22828519.90540
  11153678.50600  23216253.69400   8691180.10340  23216257.11640
   -795678.67600  22138720.12400   -620004.13440  22138723.58140
 96  9 11  1 35  0.0030000  0  6 14 15 18 22 25 29
  -2813168.53800  21336729.51500  -2192075.19740  21336733.53440
  12310994.04700  23511333.85100   9592982.14440  23511339.44040
  -1456672.07300  25083538.33500   -810561.91140  25083542.01540
  -6296792.13400  22821976.89700  -4877791.97940  22821981.39740
  11268631.92500  23238128.85100   8780754.19540  23238132.34340
   -790976.81800  22139614.92900   -616340.34240  22139618.19840
 96  9 11  1 35 30.0030000  0  6 14 15 18 22 25 29
  -2812239.21300  21336906.55400  -2191351.04240  21336910.70240
  12439323.05500  23535754.10100   9692978.74640  23535759.64440
  -1499201.09500  25075444.59300   -843701.34940  25075450.69840
  -6330751.37900  22815514.79600  -4904253.69340  22815519.34340
  11383824.84100  23260049.21800   8870514.91340  23260052.51140
   -786112.33600  22140540.56900   -612549.82740  22140543.80440
 96  9 11  1 36  0.0030000  0  6 14 15 18 22 25 29
  -2810852.51200  21337170.44400  -2190270.49540  21337174.40540
  12567901.95100  23560221.73300   9793170.06440  23560226.53840
  -1541692.97000  25067359.65500   -876811.89640  25067363.28840
  -6364318.58400  22809127.33500  -4930409.93740  22809131.95240
  11499252.04000  23282014.21800   8960458.17340  23282017.58140
   -781094.91000  22141495.36600   -608640.13440  22141498.61240
 96  9 11  1 36 30.0030000  0  6 14 15 18 22 25 29
  -2809004.53000  21337522.04600  -2188830.51240  21337526.15940
  12696722.64500  23584735.47600   9893549.78340  23584741.00740
  -1584163.06900  25059277.74100   -909905.46140  25059283.08540
  -6397495.97900  22802813.56900  -4956262.42740  22802817.92940
  11614892.61800  23304019.75700   9050567.70840  23304023.20240
   -775927.31800  22142478.53800   -604613.42440  22142481.81940
 96  9 11  1 37  0.0030000  0  6 14 15 18 22 25 29
  -2806685.68500  21337963.41300  -2187023.61440  21337967.62040
  12825783.71900  23609295.35100   9994116.81440  23609300.69440
  -1626606.68400  25051200.85100   -942978.35140  25051206.07740
  -6430280.09800  22796574.99100  -4981808.46840  22796579.31540
  11730714.38200  23326060.02200   9140818.42940  23326063.31540
   -770603.14700  22143491.88200   -600464.71240  22143495.19840
 96  9 11  1 37 30.0030000  0  6 14 15 18 22 25 29
  -2803903.37000  21338492.59300  -2184855.57940  21338496.68340
  12955085.92600  23633900.56900  10094871.77740  23633905.55040
  -1669014.72800  25043130.33500   -976023.56440  25043133.75740
  -6462667.34800  22790412.03000  -5007045.24740  22790416.35440
  11846713.65000  23348134.27200   9231207.46140  23348137.44840
   -765114.60700  22144536.33500   -596187.91440  22144539.53440
 96  9 11  1 38  0.0030000  0  6 14 15 18 22 25 29
  -2800646.29800  21339112.43700  -2182317.60240  21339116.52640
  13084632.91900  23658552.57700  10195817.44240  23658558.26140
  -1711368.67100  25035071.31200  -1009026.58440  25035077.17140
  -6494650.71000  22784325.53800  -5031967.32040  22784330.05040
  11962899.04500  23370243.52200   9321741.53140  23370247.51940
   -759441.41700  22145615.91300   -591767.24240  22145619.18340
 96  9 11  1 38 30.0030000  0  6 14 15 18 22 25 29
  -2796914.86500  21339822.42100  -2179409.99140  21339826.53440
  13214416.09100  23683249.48300  10296947.16840  23683254.51140
  -1753662.92200  25027022.14700  -1041983.09840  25027026.24940
  -6526224.08600  22778317.42900  -5056569.91840  22778321.83540
  12079258.26500  23392385.76500   9412411.04040  23392389.01140
   -753571.32000  22146732.98300   -587193.13040  22146736.19440
 96  9 11  1 39  0.0030000  0  6 14 15 18 22 25 29
  -2792734.79100  21340618.01500  -2176152.79140  21340622.19840
  13344417.69800  23707988.01500  10398247.08540  23707993.39440
  -1795919.73000  25018980.92100  -1074910.46940  25018985.51540
  -6557385.86700  22772387.58500  -5080851.79540  22772392.01540
  12195794.89100  23414561.91300   9503218.80140  23414565.20640
   -747526.65900  22147883.28800   -582482.99340  22147886.46440
 96  9 11  1 39 30.0030000  0  6 14 15 18 22 25 29
  -2788111.38400  21341497.91300  -2172550.12940  21341502.03840
  13474620.18100  23732764.82700  10499703.52440  23732770.44040
  -1838159.93000  25010942.35800  -1107824.87840  25010948.05440
  -6588130.30700  22766537.06900  -5104808.46740  22766541.56940
  12312526.30900  23436775.18700   9594178.33340  23436778.51540
   -741330.45800  22149062.22600   -577654.77040  22149065.50740
 96  9 11  1 40  0.0030000  0  6 14 15 18 22 25 29
  -2783019.01400  21342466.73300  -2168582.04340  21342470.83540
  13605032.71900  23757581.35800  10601323.65240  23757587.01940
  -1880366.61100  25002912.04600  -1140713.15840  25002916.67540
  -6618439.41300  22760769.47600  -5128425.91840  22760773.95240
  12429477.87200  23459030.14700   9685309.42040  23459033.59340
   -734989.41900  22150268.96000   -572713.69140  22150272.12440
 96  9 11  1 40 30.0030000  0  6 14 15 18 22 25 29
  -2777457.27100  21343525.42100  -2164248.21340  21343529.49940
  13735666.32600  23782440.13200  10703116.04440  23782445.68740
  -1922537.34000  24994886.68700  -1173573.43640  24994893.23740
  -6648295.96000  22755087.66300  -5151690.72640  22755091.98740
  12546669.09800  23481331.00700   9776627.25440  23481334.49940
   -728513.45100  22151501.26500   -567667.47540  22151504.47640
 96  9 11  1 41  0.0030000  0  6 14 15 18 22 25 29
  -2771434.22200  21344671.28800  -2159554.92740  21344675.24940
  13866511.98300  23807339.01500  10805073.67340  23807344.53440
  -1964684.43100  24986866.28000  -1206415.27440  24986871.17940
  -6677710.66100  22749490.34300  -5174611.23040  22749494.57340
  12664089.71900  23503675.56200   9868123.82840  23503679.00740
   -721919.59600  22152756.04600   -562529.39940  22152759.40940
 96  9 11  1 41 30.0030000  0  6 14 15 18 22 25 29
  -2764956.55100  21345903.93700  -2154507.38340  21345908.02640
  13997551.11500  23832275.56900  10907182.07040  23832280.89040
  -2006805.35300  24978850.94400  -1239236.75540  24978854.35440
  -6706712.91200  22743971.35100  -5197210.35740  22743975.48740
  12781706.63200  23526057.30400   9959773.36840  23526060.35140
   -715207.56100  22154033.32700   -557299.23440  22154036.50340
 96  9 11  1 42  0.0030000  0  6 14 15 18 22 25 29
  -2758019.65900  21347224.02200  -2149102.00340  21347228.08940
  14128795.88900  23857250.48300  11009450.68840  23857256.02640
  -2048871.61900  24970845.65500  -1272015.61340  24970850.29640
  -6735298.58100  22738531.81900  -5219484.86040  22738536.26140
  12899511.72900  23548474.82700  10051569.54540  23548477.99140
   -708358.46200  22155336.69400   -551962.28440  22155339.63640
 96  9 11  1 42 30.0030000  0  6 14 15 18 22 25 29
  -2750627.89100  21348630.77200  -2143342.18640  21348634.87440
  14260238.72300  23882263.34300  11111873.62640  23882268.82740
  -2090894.48400  24962849.16300  -1304760.68240  24962855.18740
  -6763457.74300  22733172.91300  -5241427.03840  22733177.36640
  13017471.52700  23570921.62400  10143486.26140  23570925.43340
   -701361.49700  22156668.22600   -546510.08940  22156671.47240
 96  9 11  1 43  0.0030000  0  6 14 15 18 22 25 29
  -2742776.06800  21350124.92900  -2137223.87040  21350128.97240
  14391863.11900  23907310.25700  11214438.06140  23907316.28040
  -2132876.24000  24954859.22600  -1337473.72240  24954865.17940
  -6791194.92700  22727895.23300  -5263040.40240  22727899.67540
  13135562.80500  23593393.87400  10235505.43640  23593396.93340
   -694210.96500  22158028.81900   -540938.23840  22158031.87840
 96  9 11  1 43 30.0030000  0  6 14 15 18 22 25 29
  -2734450.98400  21351708.83500  -2130736.79340  21351712.90140
  14523672.82300  23932392.89700  11317146.90840  23932398.18340
  -2174810.23100  24946881.62400  -1370149.49640  24946886.12440
  -6818496.47300  22722699.58500  -5284314.30840  22722703.58140
  13253798.64800  23615892.96800  10327637.25640  23615896.14440
   -686898.52400  22159420.37400   -535240.22940  22159423.45640
 96  9 11  1 44  0.0030000  0  6 14 15 18 22 25 29
  -2725652.77200  21353383.16300  -2123881.04340  21353387.33540
  14655666.49100  23957510.21800  11419999.08240  23957514.87040
  -2216716.02300  24938906.08500  -1402803.32140  24938909.75340
  -6845343.86800  22717590.74100  -5305234.33340  22717594.84340
  13372171.03300  23638418.61600  10419875.47840  23638422.13240
   -679429.59300  22160841.69400   -529420.28340  22160844.85840
 96  9 11  1 44 30.0030000  0  6 14 15 18 22 25 29
  -2716377.16100  21355148.24100  -2116653.30640  21355152.35440
  14787830.89800  23982660.58500  11522984.32240  23982666.71440
  -2258623.24300  24930931.67100  -1435458.25340  24930936.19440
  -6871734.99300  22712568.59300  -5325798.82340  22712573.10440
  13490675.53800  23660969.40500  10512216.64640  23660973.49540
   -671814.13300  22162290.57700   -523486.15640  22162293.81240
 96  9 11  1 45  0.0030000  0  6 14 15 18 22 25 29
  -2706597.78800  21357009.27200  -2109033.00740  21357013.30440
  14920181.97500  24007846.22600  11626115.00940  24007851.42940
  -2300517.81300  24922959.59300  -1468103.36740  24922965.01940
  -6897655.91200  22707636.21800  -5345996.91540  22707640.76540
  13609351.73700  23683552.79600  10604691.61240  23683556.24140
   -664042.43400  22163769.71800   -517430.28040  22163772.76540
 96  9 11  1 45 30.0030000  0  6 14 15 18 22 25 29
  -2696331.11300  21358962.92900  -2101033.00640  21358966.96040
  15052707.19800  24033064.67900  11729381.37440  24033070.19840
  -2342412.47500  24914986.71000  -1500748.48240  24914993.21440
  -6923117.61600  22702790.57700  -5365837.17740  22702795.01940
  13728196.00700  23706168.25700  10697297.53240  23706171.66740
   -656136.16000  22165274.11600   -511269.54740  22165277.12840
 96  9 11  1 46  0.0030000  0  6 14 15 18 22 25 29
  -2685573.71900  21361009.99900  -2092650.61840  21361014.15940
  15185408.39900  24058317.25700  11832784.87640  24058322.90540
  -2384287.23000  24907018.64000  -1533378.13440  24907024.40540
  -6948112.52900  22698034.42900  -5385313.71240  22698038.53040
  13847217.51500  23728817.23300  10790041.55640  23728820.73740
   -648090.52900  22166805.22600   -505000.20940  22166808.29640
 96  9 11  1 46 30.0030000  0  6 14 15 18 22 25 29
  -2674322.36800  21363151.03800  -2083883.33040  21363155.11640
  15318287.24300  24083603.42900  11936326.82040  24083609.10140
  -2426120.03500  24899058.14000  -1565975.11840  24899061.44440
  -6972649.39300  22693365.26500  -5404433.31740  22693369.77640
  13966435.94900  23751503.74900  10882939.03640  23751506.97240
   -639905.94500  22168362.67100   -498622.59940  22168365.88240
 96  9 11  1 47  0.0030000  0  5 15 18 22 25 29
  15451327.28500  24108919.49100  12039994.35240  24108924.88240
  -2467913.67500  24891104.69400  -1598541.52640  24891110.23740
  -6996759.66100  22688777.36600  -5423220.51540  22688781.67940
  14085830.61600  23774224.10800  10975973.83940  23774227.22640
   -631594.83000  22169944.28800   -492146.40140  22169947.42940
 96  9 11  1 47 30.0030000  0  6 14 15 18 22 25 29
      6964.07710  21367700.36600
  15584528.61300  24134267.35100  12143787.57740  24134272.72940
  -2509647.97400  24883163.93700  -1631061.73540  24883169.06940
  -7020446.64800  22684269.39000  -5441677.89140  22684273.51540
  14205389.95700  23796975.25700  11069136.95840  23796978.24540
   -623144.16400  22171552.33500   -485561.45540  22171555.37040
 96  9 11  1 48  0.0030000  0  6 14 15 18 22 25 29
     19631.07400  21370110.92900      5638.23450  21370115.00740
  15717890.96500  24159645.01500  12247706.27140  24159650.37040
  -2551323.84400  24875232.64700  -1663536.39240  24875237.71040
  -7043711.93000  22679842.39700  -5459806.66540  22679846.76940
  14325109.93600  23819757.30400  11162425.25440  23819760.38640
   -614534.94900  22173190.66300   -478852.95940  22173193.82740
 96  9 11  1 48 30.0030000  0  6 14 15 18 22 25 29
     32782.51600  21372613.57700     15886.10740  21372617.69040
  15851404.22100  24185052.01500  12351742.51540  24185056.93740
  -2592968.43500  24867306.84300  -1695986.68040  24867311.50740
  -7066554.73400  22675495.49100  -5477606.23840  22675499.73340
  14444976.00000  23842566.90500  11255827.37740  23842569.72940
   -605769.04000  22174858.62400   -472022.37640  22174861.77640
 96  9 11  1 49  0.0030000  0  6 14 15 18 22 25 29
     46426.34700  21375209.91300     26517.66040  21375213.93340
  15985061.95900  24210485.80400  12455891.38340  24210491.61640
  -2634587.66800  24859387.67100  -1728417.20640  24859393.39040
  -7088964.72000  22671230.99900  -5495068.54940  22671235.31240
  14564994.17800  23865405.69400  11349348.03740  23865408.94040
   -596834.99600  22176558.71000   -465060.77640  22176561.97940
 96  9 11  1 49 30.0030000  0  6 14 15 18 22 25 29
     60574.68300  21377902.43700     37542.33340  21377906.47940
  16118863.93600  24235948.08500  12560152.61540  24235953.52240
  -2676175.77200  24851473.31200  -1760823.46840  24851478.79640
  -7110904.57100  22667055.84300  -5512164.51840  22667060.24940
  14685180.89900  23888276.21000  11443000.01940  23888279.42140
   -587726.44800  22178292.16300   -457963.19240  22178295.28040
 96  9 11  1 50  0.0030000  0  6 14 15 18 22 25 29
     75232.86500  21380691.61600     48964.29640  21380695.65940
  16252810.25400  24261437.20200  12664526.34740  24261443.13240
  -2717742.71500  24843563.55400  -1793213.25240  24843568.24140
  -7132353.86300  22662974.32700  -5528878.24340  22662978.64040
  14805542.99600  23911180.32700  11536788.66440  23911183.94840
   -578449.14200  22180057.32700   -450734.11740  22180060.39740
 96  9 11  1 50 30.0030000  0  6 14 15 18 22 25 29
     90396.55500  21383577.17900     60780.17340  21383581.24540
  16386901.71100  24286953.79600  12769013.17540  24286959.33940
  -2759271.37700  24835660.45200  -1825573.20940  24835665.85440
  -7153294.91500  22658989.28800  -5545195.93140  22658993.69440
  14926078.26800  23934117.96800  11630712.25440  23934121.14440
   -569015.98400  22181852.63200   -443383.59140  22181855.81940
 96  9 11  1 51  0.0030000  0  6 14 15 18 22 25 29
    106044.26500  21386554.82700     72973.19240  21386558.85840
  16521124.33400  24312495.81200  12873602.18040  24312501.53040
  -2800749.10800  24827768.18700  -1857893.47040  24827773.33140
  -7173746.61200  22655097.34300  -5561132.30940  22655101.40940
  15046760.03500  23957082.43700  11724749.98040  23957085.78840
   -559438.83100  22183674.99100   -435920.85240  22183678.15540
 96  9 11  1 51 30.0030000  0  6 14 15 18 22 25 29
    122182.29000  21389625.83500     85548.26840  21389629.85440
  16655479.17900  24338062.58500  12978294.24640  24338068.23340
  -2842163.24400  24819887.27200  -1890164.19540  24819893.03840
  -7193696.16600  22651301.21000  -5576677.39840  22651305.53440
  15167562.54900  23980070.68700  11818881.81840  23980073.89740
   -549728.47600  22185522.61600   -428354.34040  22185525.73340
 96  9 11  1 52  0.0030000  0  6 14 15 18 22 25 29
    138810.16800  21392790.11600     98505.05940  21392794.15940
  16789962.57300  24363653.67900  13083086.46640  24363659.72640
  -2883514.07500  24812018.29600  -1922385.58140  24812020.96840
  -7213157.13200  22647597.96800  -5591841.77440  22647602.02240
  15288464.68400  24003077.42100  11913091.25540  24003080.69040
   -539884.02900  22187396.01500   -420683.33240  22187399.14440
 96  9 11  1 52 30.0030000  0  6 14 15 18 22 25 29
    155924.64100  21396046.80400    111841.02040  21396050.87040
  16924570.29300  24389268.98300  13187975.55940  24389274.09340
  -2924791.66900  24804163.49900  -1954549.89140  24804168.09340
  -7232131.38800  22643987.03000  -5606626.89040  22643991.26140
  15409462.19300  24026102.45200  12007375.03540  24026106.09740
   -529895.45000  22189296.65500   -412900.01340  22189299.62040
 96  9 11  1 53  0.0030000  0  6 14 15 18 22 25 29
    173543.81800  21399399.53800    125570.25140  21399403.59340
  17059305.31100  24414908.62400  13292963.86240  24414914.67140
  -2965998.36800  24796321.58500  -1986658.94940  24796324.97240
  -7250611.25700  22640470.42100  -5621026.77040  22640474.99140
  15530563.32800  24049147.54600  12101739.54940  24049150.85140
   -519742.12800  22191228.78800   -404988.32740  22191231.89440
 96  9 11  1 53 30.0030000  0  6 14 15 18 22 25 29
    191687.30400  21402852.21000    139708.02840  21402856.20640
  17194168.33600  24440571.71800  13398051.90040  24440577.67140
  -3007152.93500  24788490.10100  -2018727.43240  24788493.27640
  -7268585.54800  22637050.09300  -5635032.70240  22637054.61640
  15651790.92200  24072216.13200  12196202.61040  24072219.53040
   -509425.74000  22193192.10800   -396949.57340  22193195.20240
 96  9 11  1 54  0.0030000  0  6 14 15 18 22 25 29
    210328.93600  21406399.57700    154233.97440  21406403.66740
  17329135.96800  24466255.67900  13503221.46440  24466260.27240
  -3048298.85600  24780661.21800  -2050789.13640  24780665.24940
  -7286092.62000  22633718.74900  -5648674.56240  22633722.90940
  15773138.16000  24095307.72600  12290758.88740  24095310.92540
   -498963.51300  22195183.00700   -388797.18440  22195186.14740
 96  9 11  1 54 30.0030000  0  6 14 15 18 22 25 29
    229488.66100  21410045.42100    169163.62540  21410049.46440
  17464223.41700  24491961.92900  13608484.36740  24491967.22640
  -3089424.95400  24772834.81900  -2082835.40740  24772839.07340
  -7303117.73100  22630478.91300  -5661940.86740  22630483.16740
  15894637.86100  24118428.78000  12385433.98240  24118432.03840
   -488338.98800  22197204.72600   -380518.32740  22197207.86640
 96  9 11  1 55  0.0040000  0  6 14 15 18 22 25 29
    249167.28500  21413790.29300    184497.61840  21413794.37140
  17599422.39500  24517688.88700  13713834.19640  24517694.32440
  -3130561.19500  24765006.23800  -2114889.57240  24765011.72340
  -7319662.67300  22627330.53500  -5674833.01040  22627334.88340
  16016290.38000  24141577.99600  12480228.14540  24141581.06640
   -477577.85700  22199252.52700   -372133.01840  22199255.70340
 96  9 11  1 55 30.0040000  0  6 14 15 18 22 25 29
    269342.59800  21417629.53500    200218.64440  21417633.55540
  17734714.06500  24543434.13700  13819256.25240  24543439.58640
  -3171712.45200  24757175.60500  -2146955.46740  24757180.21140
  -7335733.35500  22624272.27700  -5687355.60340  22624276.46140
  16138081.66300  24164754.06600  12575130.44440  24164757.54740
   -466689.65600  22201324.45700   -363648.70540  22201327.53940
 96  9 11  1 56  0.0040000  0  6 14 15 18 22 25 29
    290011.11000  21421562.69100    216323.97940  21421566.73440
  17870114.91700  24569200.33200  13924763.36240  24569206.23840
  -3212855.38000  24749346.29300  -2179014.84140  24749350.79340
  -7351303.84500  22621309.34800  -5699488.43540  22621313.35540
  16260018.87500  24187958.30900  12670146.44540  24187961.52040
   -455647.14500  22203425.84000   -355044.13940  22203428.92240
 96  9 11  1 56 30.0040000  0  6 14 15 18 22 25 29
    311188.76400  21425592.55100    232826.05540  21425596.58240
  18005624.06200  24594986.76200  14030354.86740  24594992.78540
  -3253963.82500  24741524.23800  -2211047.38540  24741527.35540
  -7366349.30600  22618446.12100  -5711212.15340  22618450.51640
  16382097.60500  24211189.06600  12765272.72340  24211192.32440
   -444442.95700  22205557.76200   -346313.60440  22205560.96140
 96  9 11  1 57  0.0040000  0  6 14 15 18 22 25 29
    332861.58800  21429716.87100    249713.97340  21429720.91440
  18141220.81700  24620790.16800  14136014.65640  24620795.07840
  -3295053.30200  24733704.66800  -2243065.13440  24733710.07040
  -7380873.17500  22615682.45700  -5722529.43340  22615686.69940
  16504289.21000  24234441.42600  12860486.95840  24234445.76240
   -433095.83900  22207717.30900   -337471.68940  22207720.33240
 96  9 11  1 57 30.0040000  0  6 14 15 18 22 25 29
    355017.58100  21433932.94100    266978.38540  21433936.97340
  18276895.11700  24646607.93400  14241734.85340  24646613.30140
  -3336109.33200  24725892.19900  -2275056.79640  24725897.59040
  -7394885.15300  22613016.17600  -5733447.83940  22613020.54740
  16626585.45600  24257713.33200  12955782.72940  24257716.28540
   -421598.01400  22209905.04300   -328512.33840  22209908.02040
 96  9 11  1 58  0.0040000  0  6 14 15 18 22 25 29
    377704.99600  21438250.21500    284656.89240  21438254.30540
  18412673.31400  24672445.90200  14347536.00540  24672450.95340
  -3377087.14000  24718094.43400  -2306987.52940  24718098.58240
  -7408349.68200  22610454.06600  -5743939.66340  22610458.23840
  16749004.34300  24281008.84000  13051174.07140  24281011.89840
   -409928.23100  22212125.84000   -319419.00340  22212128.87540
 96  9 11  1 58 30.0040000  0  6 14 15 18 22 25 29
    400905.88200  21442665.12100    302735.49940  21442669.21140
  18548524.02200  24698297.48800  14453393.67440  24698302.69140
  -3418016.36300  24710305.71500  -2338880.40240  24710312.43040
  -7421303.52400  22607988.99600  -5754033.55340  22607993.12140
  16871513.88900  24304321.73800  13146636.05240  24304325.27740
   -398126.39400  22214371.59800   -310222.76140  22214374.68040
 96  9 11  1 59  0.0040000  0  6 14 15 18 22 25 29
    424612.20900  21447176.32400    321207.96640  21447180.46140
  18684456.43600  24724164.41800  14559315.00840  24724169.93740
  -3458902.86100  24702524.97300  -2370739.97140  24702530.16440
  -7433741.41400  22605622.02000  -5763725.40240  22605626.46140
  16994123.00100  24327653.49600  13242175.61040  24327657.44540
   -386177.51500  22216645.46500   -300911.94740  22216648.45340
 96  9 11  1 59 30.0040000  0  6 14 15 18 22 25 29
    448831.37300  21451785.07400    340080.03840  21451789.10540
  18820479.49800  24750048.44100  14665306.96740  24750054.58240
  -3499729.48000  24694755.89500  -2402552.89340  24694760.57040
  -7445657.00800  22603354.40200  -5773010.26540  22603358.63340
  17116828.12300  24351003.62100  13337789.99040  24351007.65240
   -374064.00000  22218950.48000   -291472.83840  22218953.52740
 96  9 11  2  0  0.0040000  0  6 14 15 18 22 25 29
    473554.63900  21456489.79300    359344.91540  21456493.83640
  18956577.11300  24775947.39500  14771357.00240  24775953.11340
  -3540527.87400  24686991.98800  -2434343.81140  24686996.39540
  -7457072.25100  22601182.33200  -5781905.24240  22601186.57440
  17239596.75300  24374365.40200  13433453.85840  24374369.30540
   -361801.01300  22221284.04300   -281917.26040  22221287.07840
 96  9 11  2  0 30.0040000  0  6 14 15 18 22 25 29
    498779.39800  21461289.98000    379000.57740  21461294.05940
  19092751.64000  24801860.35500  14877466.99540  24801865.45340
  -3581305.41200  24679232.53500  -2466118.48740  24679237.02340
  -7467985.95600  22599105.30100  -5790409.40740  22599109.68440
  17362438.30200  24397741.67600  13529174.54340  24397745.07440
   -349368.87100  22223649.86300   -272229.86640  22223653.12140
 96  9 11  2  1  0.0040000  0  6 14 15 18 22 25 29
    524523.77100  21466188.88700    399061.12640  21466192.93040
  19228999.08900  24827787.78500  14983633.80040  24827793.23440
  -3622055.28400  24671478.37900  -2497871.60940  24671482.11740
  -7478389.93000  22597125.60500  -5798516.38340  22597129.93040
  17485357.96900  24421132.47300  13624956.09040  24421135.98840
   -336758.87400  22226049.43400   -262403.89440  22226052.52740
 96  9 11  2  1 30.0040000  0  6 14 15 18 22 25 29
    550817.28800  21471192.20700    419549.56740  21471196.29740
  19365317.25900  24853727.94100  15089855.71340  24853734.23440
  -3662755.46600  24663733.26200  -2529585.99140  24663737.89140
  -7488294.02700  22595240.71500  -5806233.84040  22595245.19140
  17608356.17500  24444538.22300  13720798.84740  24444541.55140
   -323976.29300  22228481.90200   -252443.43940  22228484.93740
 96  9 11  2  2  0.0040000  0  6 14 15 18 22 25 29
    577661.12400  21476300.49600    440466.83240  21476304.51640
  19501695.57300  24879679.76200  15196124.50940  24879686.32440
  -3703412.58800  24655996.44100  -2561266.85940  24655999.80540
  -7497707.84900  22593449.51200  -5813569.26940  22593453.62540
  17731447.48700  24467961.73000  13816714.15040  24467965.16440
   -311032.42800  22230945.16000   -242357.30540  22230948.31240
 96  9 11  2  2 30.0040000  0  6 14 15 18 22 25 29
    605062.66500  21481514.88700    461818.67940  21481518.91840
  19638127.55600  24905642.44900  15302435.09140  24905648.88340
  -3744024.25000  24648268.27700  -2592912.26340  24648272.97740
  -7506613.09100  22591754.73800  -5820508.39640  22591758.92240
  17854639.28400  24491404.11300  13912707.75140  24491408.26240
   -297932.49200  22233437.92600   -232149.55740  22233441.06640
 96  9 11  2  3  0.0040000  0  6 14 15 18 22 25 29
    633014.14400  21486833.98800    483599.05540  21486838.04340
  19774600.18200  24931611.79300  15408777.37240  24931617.25440
  -3784602.40100  24640545.98000  -2624531.57440  24640550.23440
  -7515010.80800  22590156.73000  -5827052.05840  22590160.78540
  17977926.61800  24514865.49600  14008775.78840  24514868.91840
   -284695.14400  22235956.79300   -221834.72740  22235959.80540
 96  9 11  2  3 30.0040000  0  6 14 15 18 22 25 29
    661500.81800  21492254.87900    505796.46740  21492258.94540
  19911120.45200  24957591.17600  15515156.78640  24957597.01240
  -3825137.75100  24632832.55900  -2656117.52440  24632836.47340
  -7522887.22300  22588657.88700  -5833189.50440  22588662.08240
  18101313.17400  24538344.82400  14104921.16040  24538348.08240
   -271316.28700  22238502.73800   -211409.63540  22238505.83240
 96  9 11  2  4  0.0040000  0  6 14 15 18 22 25 29
    690495.95000  21497772.34000    528390.08140  21497776.41840
  20047682.32600  24983577.62100  15621568.57540  24983584.00840
  -3865644.98100  24625124.55900  -2687681.57040  24625129.09440
  -7530219.92200  22587262.46500  -5838903.27940  22587266.60240
  18224803.08000  24561844.23000  14201147.07140  24561847.68740
   -257797.93500  22241075.13700   -200875.85640  22241078.20740
 96  9 11  2  4 30.0040000  0  6 14 15 18 22 25 29
    719995.76200  21503385.80900    551376.94540  21503389.84040
  20184283.20500  25009572.27000  15728010.79240  25009577.81240
  -3906116.83700  24617423.10500  -2719218.05340  24617427.07840
  -7537003.40200  22585971.65200  -5844189.08740  22585975.90640
  18348386.81700  24585361.48800  14297446.07540  24585364.65240
   -244135.23100  22243675.12100   -190229.58540  22243678.23840
 96  9 11  2  5  0.0040000  0  6 14 15 18 22 25 29
    749982.60200  21509092.13700    574743.31840  21509096.23840
  20320915.40800  25035572.10500  15834477.44940  25035577.60240
  -3946545.49400  24609730.00400  -2750720.87040  24609734.69140
  -7543259.58500  22584781.30100  -5849064.01540  22584785.42640
  18472061.15500  24608896.19900  14393815.69040  24608899.22340
   -230323.58600  22246303.33200   -179467.25640  22246306.52040
 96  9 11  2  5 30.0040000  0  6 14 15 18 22 25 29
    780472.53400  21514894.35500    598501.71040  21514898.52740
  20457591.56300  25061581.46500  15940978.27540  25061587.50040
  -3986912.63100  24602048.01200  -2782175.76240  24602052.31240
  -7548976.54600  22583693.31600  -5853518.76540  22583697.43040
  18595835.68900  24632449.23800  14490263.37540  24632452.48440
   -216344.49400  22248963.44100   -168574.45440  22248966.50040
 96  9 11  2  6  0.0040000  0  6 14 15 18 22 25 29
    811487.81400  21520796.36300    622669.45840  21520800.51240
  20594311.17600  25087598.23800  16047513.00240  25087604.44940
  -4027231.90900  24594375.55100  -2813593.36140  24594380.27340
  -7554156.11700  22582707.61300  -5857554.77340  22582711.83240
  18719712.43200  24656022.49600  14586790.70240  24656025.44940
   -202187.54100  22251657.41000   -157543.05940  22251660.51640
 96  9 11  2  6 30.0040000  0  6 14 15 18 22 25 29
    843026.38500  21526797.95700    647244.96840  21526802.01240
  20731052.29500  25113619.07400  16154064.48540  25113624.81640
  -4067528.34700  24586707.25400  -2844993.13940  24586712.01240
  -7558816.09500  22581820.80900  -5861185.90040  22581824.82840
  18843665.35300  24679609.87100  14683377.39340  24679612.95340
   -187872.97500  22254381.36300   -146388.84640  22254384.37540
 96  9 11  2  7  0.0040000  0  6 14 15 18 22 25 29
    875079.38500  21532897.46500    672221.32840  21532901.44940
  20867802.58100  25139642.13700  16260623.12440  25139647.52740
  -4107817.93300  24579040.36300  -2876387.57840  24579044.55940
  -7562954.65700  22581033.18400  -5864410.73840  22581037.23840
  18967683.88700  24703209.40200  14780015.21140  24703212.85940
   -173427.09200  22257130.23000   -135132.31440  22257133.28940
 96  9 11  2  7 30.0040000  0  6 14 15 18 22 25 29
    907655.06100  21539096.38700    697604.96340  21539100.48840
  21004556.13200  25165665.13700  16367184.30340  25165670.08240
  -4148119.27300  24571371.01200  -2907791.19540  24571375.28940
  -7566565.43800  22580346.11300  -5867224.31140  22580350.25040
  19091758.27200  24726820.14500  14876696.53440  24726823.90640
   -158862.33700  22259901.98800   -123783.15640  22259905.03540
 96  9 11  2  8  0.0040000  0  6 14 15 18 22 25 29
    940783.77800  21545400.56600    723419.54440  21545404.60940
  21141337.52600  25191693.82400  16473767.13640  25191699.44940
  -4188395.31800  24563707.01200  -2939175.09840  24563711.12540
  -7569614.61900  22579766.07400  -5869600.28440  22579770.01240
  19215913.65500  24750446.48000  14973441.00340  24750449.77340
   -144151.14800  22262701.34000   -112319.88340  22262704.39840
 96  9 11  2  8 30.0040000  0  6 14 15 18 22 25 29
    974446.35700  21551806.44900    749650.12340  21551810.53940
  21278138.52000  25217726.02000  16580365.28640  25217730.74240
  -4228625.70700  24556051.88700  -2970523.41240  24556056.18740
  -7572097.08700  22579293.48000  -5871534.65540  22579297.66440
  19340143.00100  24774086.62100  15070243.09940  24774090.96940
   -129289.53500  22265529.42600   -100739.40240  22265532.46140
 96  9 11  2  9  0.0040000  0  6 14 15 18 22 25 29
   1008633.45800  21558311.90200    776289.42040  21558315.95740
  21414944.58000  25243759.90200  16686967.39640  25243765.76240
  -4268814.57600  24548403.79300  -3001839.38440  24548408.23440
  -7574031.70600  22578925.21500  -5873042.12840  22578929.29340
  19464431.28300  24797737.66800  15167091.11040  24797741.62940
   -114270.13600  22268387.56600    -89035.96140  22268390.66040
 96  9 11  2  9 30.0040000  0  6 14 15 18 22 25 29
   1043351.75800  21564918.65200    803342.63740  21564922.74240
  21551756.01600  25269793.95700  16793573.65040  25269799.43040
  -4308966.85800  24540762.97300  -3033126.83540  24540767.34440
  -7575415.11500  22578661.94900  -5874120.09540  22578666.02740
  19588778.60600  24821399.83200  15263985.11940  24821403.31240
    -99067.99400  22271280.26200    -77190.13240  22271283.32040
 96  9 11  2 10  0.0040000  0  6 14 15 18 22 25 29
   1078601.75100  21571626.41000    830810.16240  21571630.43040
  21688579.34200  25295829.93400  16900189.20240  25295835.37140
  -4349069.02900  24533131.95700  -3064375.26140  24533135.89540
  -7576229.88000  22578507.09800  -5874754.95640  22578511.14140
  19713190.47800  24845074.52000  15360929.44140  24845078.19940
    -83673.36800  22274210.12900    -65194.31340  22274213.31640
 96  9 11  2 10 30.0040000  0  6 14 15 18 22 25 29
   1114376.80900  21578434.20700    858686.82740  21578438.30940
  21825398.55300  25321866.18400  17006801.50740  25321873.01640
  -4389153.03000  24525504.25400  -3095609.51640  24525508.39140
  -7576489.27700  22578457.50400  -5874957.07340  22578461.82840
  19837644.26600  24868758.19900  15457906.41740  24868762.06640
    -68097.61800  22277173.96500    -53057.36540  22277177.01240
 96  9 11  2 11  0.0040000  0  6 14 15 18 22 25 29
   1150681.51000  21585342.75400    886976.20340  21585346.80940
  21962210.85700  25347901.42600  17113408.46240  25347907.87140
  -4429239.40200  24517875.94100  -3126845.61740  24517880.27740
  -7576208.03700  22578511.10500  -5874737.90640  22578515.18440
  19962136.66500  24892447.89500  15554913.47640  24892451.46940
    -52366.48200  22280167.28500    -40799.32740  22280170.21540
 96  9 11  2 11 30.0040000  0  6 14 15 18 22 25 29
   1187516.65400  21592352.12100    915678.91240  21592356.11740
  22099026.27400  25373935.69900  17220017.83640  25373942.18040
  -4469305.05700  24510251.12900  -3158065.58140  24510255.52340
  -7575374.54500  22578669.65200  -5874088.41240  22578673.94140
  20086675.07700  24916146.66000  15651956.40040  24916149.96540
    -36479.43700  22283190.63700    -28419.81040  22283193.69540
 96  9 11  2 12  0.0040000  0  6 14 15 18 22 25 29
   1224886.52100  21599463.48000    944798.28740  21599467.64140
  22235843.25800  25399971.98800  17326628.43940  25399976.20740
  -4509321.11900  24502636.80900  -3189246.89540  24502641.30940
  -7573996.55900  22578931.95700  -5873014.64140  22578936.02340
  20211268.13500  24939855.62900  15749041.89440  24939858.98040
    -20431.83200  22286244.34000    -15915.18140  22286247.49240
 96  9 11  2 12 30.0040000  0  6 14 15 18 22 25 29
   1262778.96800  21606674.17600    974324.86340  21606678.20740
  22372641.06500  25426003.09800  17433224.08740  25426008.17240
  -4549289.58200  24495030.55900  -3220391.13340  24495035.19940
  -7572093.81600  22579294.01200  -5871531.97140  22579297.93740
  20335905.95400  24963573.56600  15846162.27040  24963577.01240
     -4241.74300  22289325.37100     -3299.52040  22289328.52340
 96  9 11  2 13  0.0040000  0  6 14 15 18 22 25 29
   1301195.56200  21613984.63700   1004259.86940  21613988.65640
  22509431.99600  25452034.34000  17539814.37440  25452040.52740
  -4589172.64000  24487441.25400  -3251468.79640  24487444.53540
  -7569647.61800  22579759.21500  -5869625.83140  22579763.17640
  20460615.48100  24987305.12100  15943338.52740  24987308.25040
     12108.18100  22292436.67600      9440.68440  22292439.67640
 96  9 11  2 13 30.0040000  0  6 14 15 18 22 25 29
   1340139.64300  21621395.51200   1034605.90240  21621399.67240
  22646216.08500  25478063.13700  17646399.33640  25478068.75040
  -4628954.67700  24479871.38700  -3282467.78040  24479875.44140
  -7566632.99000  22580332.98000  -5867276.75640  22580336.78940
  20585405.37800  25011051.97300  16040577.41140  25011055.23040
     28643.47000  22295583.32400     22325.31840  22295586.37140
 96  9 11  2 14  0.0040000  0  6 14 15 18 22 25 29
   1379615.56900  21628907.44100   1065366.35940  21628911.46140
  22782985.00500  25504089.47300  17752972.48040  25504094.66440
  -4668661.36600  24472315.24600  -3313408.02340  24472319.06640
  -7563043.55200  22581016.19900  -5864479.77440  22581020.24240
  20710272.39000  25034813.55900  16137876.39240  25034817.12140
     45353.58400  22298762.84000     35346.18840  22298765.93440
 96  9 11  2 14 30.0040000  0  6 14 15 18 22 25 29
   1419619.99300  21636520.12100   1096538.63540  21636524.17640
  22919726.22000  25530110.59800  17859524.02940  25530116.59840
  -4708319.36900  24464768.31600  -3344310.32240  24464772.72340
  -7558883.24300  22581807.69900  -5861237.96140  22581811.74240
  20835185.54400  25058583.50400  16235211.31140  25058587.21940
     62219.63600  22301972.33200     48488.57040  22301975.40240
 96  9 11  2 15  0.0040000  0  6 14 15 18 22 25 29
   1460177.60100  21644237.98800   1128141.96040  21644242.07840
  23056453.83400  25556128.84000  17966064.98740  25556134.69940
  -4747925.66000  24457231.69900  -3375172.34240  24457235.42640
  -7554136.18000  22582711.14500  -5857538.93440  22582715.23440
  20960153.30200  25082364.05100  16332588.77940  25082367.46140
     79263.52400  22305215.87100     61769.52940  22305218.96540
 96  9 11  2 15 30.0040000  0  6 14 15 18 22 25 29
   1501309.12600  21652064.96500   1160192.50440  21652069.03140
  23193158.52500  25582143.38700  18072588.08340  25582148.84840
  -4787508.17400  24449699.23000  -3406015.83040  24449703.74240
  -7548809.34400  22583724.59800  -5853388.12840  22583728.69940
  21085157.08100  25106151.71500  16429994.33740  25106156.40240
     96478.01400  22308491.59000     75183.42240  22308494.68440
 96  9 11  2 16  0.0040000  0  6 14 15 18 22 25 29
   1543019.09800  21660002.24600   1192693.78240  21660006.28940
  23329828.87800  25608150.19100  18179084.43040  25608155.44140
  -4827074.76700  24442170.05900  -3436846.91540  24442174.28940
  -7542928.99200  22584843.58200  -5848806.01640  22584847.56640
  21210178.70900  25129941.91000  16527413.78840  25129945.69540
    113839.54400  22311795.31600     88711.89440  22311798.46940
 96  9 11  2 16 30.0040000  0  6 14 15 18 22 25 29
   1585308.59700  21668049.69900   1225646.64140  21668053.81240
  23466462.94300  25634151.10500  18285552.49540  25634156.19140
  -4866606.63100  24434646.98800  -3467650.95540  24434651.78140
  -7536491.83200  22586068.55900  -5843790.02740  22586072.34440
  21335225.57400  25153737.77700  16624852.88740  25153741.72740
    131353.11700  22315128.05900    102358.83940  22315131.21140
 96  9 11  2 17  0.0050000  0  6 14 15 18 22 25 29
   1628164.44000  21676204.82100   1259040.79740  21676209.01740
  23603060.62200  25660144.70400  18391992.20640  25660151.06740
  -4906112.21900  24427129.86000  -3498434.48940  24427134.05640
  -7529487.22400  22587401.68100  -5838331.86740  22587405.53640
  21460318.68200  25177541.98500  16722328.03840  25177545.05640
    149019.96300  22318490.05600    116125.21640  22318493.22040
 96  9 11  2 17 30.0050000  0  6 14 15 18 22 25 29
   1671588.07200  21684467.95400   1292877.39140  21684472.11440
  23739630.49300  25686132.67300  18498410.26440  25686138.64940
  -4945565.82600  24419622.08700  -3529177.54940  24419626.82140
  -7521891.04300  22588847.11800  -5832412.74140  22588851.11440
  21585470.69500  25201357.81300  16819849.08640  25201360.23940
    166858.55300  22321884.39900    130025.41640  22321887.49340
 96  9 11  2 18  0.0050000  0  7  4 14 15 18 22 25 29
       202.10210  26290756.33700
   1715539.09100  21692831.79800   1327124.93040  21692835.88840
  23876162.38800  25712114.73500  18604798.72040  25712121.36840
  -4984965.65100  24412124.12600  -3559878.69540  24412128.46240
  -7513714.86300  22590402.79000  -5826041.67140  22590406.64540
  21710672.25800  25225182.86800  16917408.75640  25225186.52440
    184856.49500  22325309.41500    144049.79240  22325312.61440
 96  9 11  2 18 30.0050000  0  7  4 14 15 18 22 25 29
      1715.40400  26291044.74300
   1759990.26400  21701290.47800   1361762.19440  21701294.53240
  24012646.59900  25738086.52400  18711150.01340  25738093.47840
  -5024326.99500  24404633.67300  -3590549.84440  24404638.10340
  -7504951.62700  22592070.56300  -5819213.14240  22592074.51340
  21835910.70900  25249015.22800  17014997.14740  25249019.27040
    203012.38600  22328764.43800    158197.24640  22328767.56740
 96  9 11  2 19  0.0050000  0  7  4 14 15 18 22 25 29
      3725.20900  26291427.45400       398.50550  26291431.84940
   1804942.49600  21709844.48500   1396789.89740  21709848.49340
  24149086.32300  25764050.02400  18817466.64640  25764056.11840
  -5063652.79600  24397150.53200  -3621193.31040  24397154.25940
  -7495604.15900  22593849.21200  -5811929.37940  22593853.16140
  21961178.94000  25272853.31300  17112608.76940  25272856.53640
    221344.70900  22332252.88400    172482.17540  22332256.02440
 96  9 11  2 19 30.0050000  0  8  4 14 15 18 19 22 25 29
      6232.52200  26291905.00900      2352.26540  26291908.26740
   1850415.86700  21718497.90700   1432223.68340  21718501.96240
  24285484.51400  25790005.84500  18923750.88040  25790011.35340
  -5102929.47600  24389676.18100  -3651798.49840  24389680.56340
                  26229672.14200
  -7485683.67900  22595736.95400  -5804199.10040  22595740.90340
  22086473.02100  25296695.78200  17210240.51540  25296698.50140
    239859.86300  22335776.16500    186909.57140  22335779.22440
 96  9 11  2 20  0.0050000  0  8  4 14 15 18 19 22 25 29
      9220.29500  26292472.59500      4680.40440  26292476.82540
   1896415.87000  21727251.32100   1468067.84040  21727255.29440
  24421819.05300  25815949.69600  19029985.55540  25815955.25140
  -5142165.74600  24382209.81300  -3682372.19740  24382214.23140
    -53682.11900  26219104.18100
  -7475211.99700  22597729.68800  -5796039.32140  22597733.59140
  22211782.76800  25320541.36800  17307884.47240  25320545.52840
    258536.31200  22339330.13400    201462.65740  22339333.12240
 96  9 11  2 20 30.0050000  0  8  4 14 15 18 19 22 25 29
     12664.83100  26293127.99300      7364.48040  26293134.57940
   1942955.71500  21736107.72800   1504332.65240  21736111.80640
  24558082.10300  25841879.74300  19136164.52640  25841884.92340
  -5181368.18900  24374750.22000  -3712919.54040  24374754.75540
   -109090.17800  26208559.58700
  -7464184.92700  22599828.18800  -5787446.77940  22599832.12640
  22337109.74800  25344390.22000  17405541.88240  25344393.41940
    277379.42000  22342916.10300    216145.60740  22342919.17340
 96  9 11  2 21  0.0050000  0  8  4 14 15 18 19 22 25 29
     16568.78400  26293872.64900     10406.51640  26293876.81040
   1990063.05900  21745071.90700   1541039.66440  21745075.93840
  24694281.19200  25867797.78200  19242293.64940  25867804.78240
  -5220517.63200  24367300.18100  -3743425.58440  24367304.64540
   -164355.35300  26198042.89200    -18645.92250  26198049.56040
  -7452593.45800  22602034.12600  -5778414.44640  22602038.06340
  22462473.68600  25368245.81300  17503228.05340  25368249.32940
    296401.77400  22346535.79800    230968.22440  22346538.84540
 96  9 11  2 21 30.0050000  0  8  4 14 15 18 19 22 25 29
     20943.14300  26294705.07100     13815.15040  26294709.84140
   2037743.13200  21754144.91500   1578192.96640  21754149.13440
  24830419.10600  25893703.06300  19348375.12040  25893708.33740
  -5259593.21800  24359864.24300  -3773874.06540  24359868.86040
   -219473.14000  26187554.84500    -61594.74340  26187559.98940
  -7440423.97800  22604349.69600  -5768931.71940  22604353.66940
  22587885.17500  25392110.81300  17600951.31540  25392114.04840
    315595.46600  22350188.24300    245924.35240  22350191.29040
 96  9 11  2 22  0.0050000  0  8  4 14 15 18 19 22 25 29
     25772.79000  26295622.00900     17578.50840  26295628.18540
   2085974.54200  21763323.17300   1615775.87940  21763327.32140
  24966487.86300  25919596.93800  19454402.67940  25919603.29040
  -5298593.72300  24352442.68800  -3804264.04440  24352447.11840
   -274455.23000  26177092.14900   -104437.88540  26177097.91540
  -7427661.14200  22606778.29800  -5758986.63640  22606782.24740
  22713335.26600  25415983.45400  17698704.60940  25415986.17340
    334963.42400  22353873.77400    261016.27240  22353876.89240
 96  9 11  2 22 30.0050000  0  8  4 14 15 18 19 22 25 29
     31054.19000  26296628.22000     21693.86140  26296633.64540
   2134734.21800  21772601.76700   1653770.42740  21772605.89240
  25102483.01800  25945476.20400  19560372.92340  25945481.87640
  -5337529.73200  24345033.07900  -3834603.77640  24345037.14540
   -329308.58100  26166653.66500   -147180.72740  26166659.47840
  -7414300.45200  22609320.78200  -5748575.69640  22609324.79040
  22838809.90300  25439860.46200  17796477.05940  25439863.05240
    354511.89800  22357593.83700    276248.85540  22357596.96640
 96  9 11  2 23  0.0050000  0  8  4 14 15 18 19 22 25 29
     36802.32600  26297722.10300     26172.99140  26297724.82140
   2184026.90700  21781982.00900   1692180.30440  21781986.20440
  25238400.48000  25971339.90700  19666282.60840  25971346.01340
  -5376388.00600  24337638.72800  -3864882.93640  24337643.16940
   -384038.95500  26156239.14900   -189827.70940  26156244.55240
  -7400350.58100  22611975.32100  -5737705.65140  22611979.43540
  22964301.61500  25463740.65700  17894262.82840  25463744.46640
    374235.33300  22361346.82900    291617.76540  22361349.80640
 96  9 11  2 23 30.0050000  0  8  4 14 15 18 19 22 25 29
     43021.05900  26298905.57900     31018.78540  26298908.67340
   2233855.01700  21791464.00100   1731007.40040  21791468.02040
  25374238.81900  25997189.07900  19772130.63640  25997194.68140
  -5415169.70200  24330259.16500  -3895102.41540  24330263.25540
   -438646.45200  26145847.29800   -232378.94840  26145853.35640
  -7385811.20000  22614742.08700  -5726376.24240  22614745.93140
  23089805.85000  25487623.73500  17992058.32440  25487626.85340
    394134.06200  22365133.62600    307123.27940  22365136.55640
 96  9 11  2 24  0.0050000  0  8  4 14 15 18 19 22 25 29
     49706.83500  26300178.04800     36228.44140  26300181.01340
   2284217.51500  21801047.61000   1770250.90140  21801051.85340
  25509975.91200  26023019.29000  19877899.77540  26023025.91140
  -5453909.72800  24322886.94600  -3925289.42140  24322891.34140
   -493157.52200  26135474.49300   -274855.04340  26135481.12640
  -7370697.89700  22617618.18800  -5714599.63640  22617622.22040
  23215298.66100  25511503.63400  18089844.93740  25511508.45040
    414197.93800  22368951.70400    322757.47140  22368954.73940
 96  9 11  2 24 30.0050000  0  8  4 14 15 18 19 22 25 29
     56892.04100  26301545.61800     41827.34140  26301549.47440
   2335139.11100  21810737.63400   1809930.06340  21810741.86440
  25645629.94600  26048833.16500  19983604.19140  26048838.79040
  -5492592.03600  24315525.54800  -3955431.45340  24315529.19240
   -547551.02000  26125122.56300   -317239.54940  26125128.01340
  -7354997.94900  22620605.57100  -5702365.89740  22620609.56740
  23340799.06100  25535385.79800  18187637.46940  25535388.79840
    434434.50000  22372802.72000    338526.22540  22372805.70840
 96  9 11  2 25  0.0050000  0  8  4 14 15 18 19 22 25 29
     64582.59000  26303008.21200     47819.95540  26303013.27440
   2386632.99200  21820536.54800   1850055.16240  21820540.73140
  25781201.35600  26074631.57900  20089244.21140  26074637.72040
  -5531218.95900  24308175.47000  -3985530.34240  24308179.40740
   -601810.02000  26114798.04800   -359519.22840  26114804.50540
  -7338702.62200  22623706.27400  -5689668.22740  22623710.02440
  23466311.93400  25559270.00900  18285439.71640  25559272.99740
    454833.89500  22376684.47000    354421.85940  22376687.52840
 96  9 11  2 25 30.0050000  0  8  4 14 15 18 19 22 25 29
     72776.42100  26304566.86800     54204.81440  26304571.87240
   2438682.99100  21830441.39200   1890613.60040  21830445.51740
  25916689.87300  26100413.81300  20194819.63040  26100419.19240
  -5569810.33900  24300831.97000  -4015601.51540  24300835.81340
   -655930.29500  26104499.60300   -401690.79540  26104504.46640
  -7321803.14600  22626922.44600  -5676499.79140  22626926.22040
  23591836.45400  25583156.71200  18383251.02140  25583159.44240
    475400.38000  22380598.25900    370447.68840  22380601.35340
 96  9 11  2 26  0.0050000  0  8  4 14 15 18 19 22 25 29
     81461.08400  26306220.59500     60972.05540  26306225.16540
   2491270.84900  21840448.47800   1931591.14540  21840452.67340
  26052090.00800  26126179.11800  20300326.20740  26126185.11840
  -5608367.79400  24293494.64900  -4045646.25440  24293498.90340
   -709910.51500  26094227.04800   -443753.23540  26094233.34140
  -7304302.42600  22630252.51700  -5662862.85640  22630256.46640
  23717375.42500  25607045.85300  18481073.60040  25607049.60340
    496143.40700  22384545.36800    386611.08240  22384548.45040
 96  9 11  2 26 30.0050000  0  8  4 14 15 18 19 22 25 29
     90609.21100  26307961.66500     68100.49140  26307966.73940
   2544366.27800  21850552.19600   1972964.19340  21850556.33340
  26187387.07300  26151926.00100  20405752.46940  26151931.32140
  -5646895.77800  24286162.83700  -4075668.04040  24286167.04440
   -763753.85500  26083981.65700   -485709.02140  26083989.23140
  -7286216.47600  22633694.32900  -5648769.88940  22633698.40740
  23842917.29400  25630935.44600  18578898.43440  25630939.27840
    517045.17500  22388522.79800    402898.17740  22388525.88040
 96  9 11  2 27  0.0050000  0  8  4 14 15 18 19 22 25 29
    100244.88500  26309794.40700     75608.81340  26309797.31340
   2597997.41900  21860758.02400   2014754.68240  21860762.23140
  26322598.83900  26177656.03200  20511112.29440  26177660.69640
  -5685369.75400  24278841.29800  -4105647.73740  24278845.29440
   -817441.62900  26073764.54800   -527543.59440  26073771.40740
  -7267528.92100  22637250.40700  -5634208.14440  22637254.27440
  23968482.43300  25654829.82900  18676741.41240  25654833.40340
    538144.92900  22392537.89200    419339.54240  22392540.92740
 96  9 11  2 27 30.0050000  0  8  4 14 15 18 19 22 25 29
    110362.74200  26311719.82100     83492.89040  26311723.09140
   2652166.53700  21871066.03200   2056964.38140  21871070.20440
  26457720.78100  26203368.57100  20616402.07740  26203373.61040
  -5723783.86000  24271531.49300  -4135580.78240  24271535.65340
   -870989.44800  26063574.86000   -569269.07640  26063578.45840
  -7248249.80100  22640918.92300  -5619185.44240  22640923.08340
  24094070.78800  25678728.49300  18774602.46240  25678731.90340
    559460.77700  22396594.12600    435949.30040  22396597.13840
 96  9 11  2 28  0.0050000  0  8  4 14 15 18 19 22 25 29
    120941.54400  26313732.54000     91736.08340  26313737.14540
   2706868.28500  21881475.33700   2099589.11540  21881479.49740
  26592736.47600  26229062.00100  20721609.10740  26229067.75540
  -5762143.07700  24264231.72800  -4165471.05340  24264235.92340
   -924407.43400  26053409.44600   -610893.45640  26053415.21240
  -7228389.86100  22644698.21200  -5603710.15140  22644702.31340
  24219674.91000  25702630.36000  18872475.79740  25702634.00540
    580971.32900  22400687.60300    452710.76840  22400690.62640
 96  9 11  2 28 30.0050000  0  8  4 14 15 18 19 22 25 29
    132009.91200  26315839.97800    100360.80840  26315843.58740
   2762133.17800  21891991.93800   2142652.66640  21891996.13440
  26727659.65100  26254736.39200  20826743.96840  26254743.08340
  -5800437.62200  24256945.11000  -4195310.94040  24256948.74340
   -977683.64100  26043271.10300   -652407.26940  26043276.69240
  -7207930.75200  22648591.45400  -5587767.98140  22648595.40340
  24345300.16900  25726536.17300  18970365.60040  25726538.61040
    602675.18700  22404817.45400    469622.86540  22404820.57140
 96  9 11  2 29  0.0050000  0  8  4 14 15 18 19 22 25 29
    143570.13500  26318039.43100    109368.76440  26318043.27440
   2817969.50900  21902616.99300   2186161.48840  21902621.25940
  26862479.54400  26280392.18100  20931798.46740  26280398.29840
  -5838678.98800  24249667.62600  -4225109.38840  24249671.83340
  -1030813.64300  26033161.41500   -693807.20640  26033166.10340
  -7186869.90100  22652599.18800  -5571356.91840  22652603.27840
  24470940.26200  25750444.27400  19068266.98940  25750447.97840
    624567.57700  22408983.67300    486681.87540  22408986.61440
 96  9 11  2 29 30.0050000  0  8  4 14 15 18 19 22 25 29
    155619.98200  26320330.75900    118758.28940  26320336.16140
   2874372.51000  21913350.28200   2230111.87340  21913354.51340
  26997188.29900  26306026.17300  21036766.26240  26306032.60640
  -5876883.00800  24242397.61800  -4254878.72640  24242401.18140
  -1083784.54900  26023080.54000   -735083.15640  26023085.21640
  -7165196.12100  22656723.64900  -5554468.24540  22656727.69240
  24596592.81500  25774355.00900  19166178.07940  25774357.91540
    646633.34600  22413182.59500    503875.98740  22413185.63040
 96  9 11  2 30  0.0050000  0  8  4 14 15 18 19 22 25 29
    168162.43700  26322717.99300    128531.59440  26322720.58340
   2931327.64500  21924188.49300   2274492.48640  21924192.65340
  27131775.95500  26331637.50100  21141639.77040  26331644.34540
  -5915054.87000  24235133.82100  -4284623.01240  24235138.21640
  -1136598.19900  26013030.71200   -776236.60340  26013037.05240
  -7142911.83500  22660964.31300  -5537103.86740  22660968.45040
  24722249.20000  25798267.43800  19264092.13440  25798272.12640
    668857.55300  22417411.67300    521193.55740  22417414.77840
 96  9 11  2 30 30.0050000  0  8  4 14 15 18 19 22 25 29
    181227.86600  26325205.99300    138712.48640  26325209.82540
   2988846.11300  21935133.94600   2319312.06640  21935138.08340
  27266252.61400  26357227.95400  21246426.74940  26357232.97040
  -5953170.48000  24227880.74300  -4314323.46340  24227884.63440
  -1189242.10900  26003013.27400   -817257.78040  26003019.07540
  -7120003.94100  22665323.23500  -5519253.52940  22665327.06740
  24847916.07700  25822179.96200  19362014.37640  25822185.03640
    691256.78700  22421673.93800    538647.50240  22421676.95040
 96  9 11  2 31  0.0050000  0  8  4 14 15 18 19 22 25 29
    194807.16900  26327788.13400    149293.73240  26327792.56340
   3046917.57900  21946184.66500   2364562.55440  21946188.70840
  27400615.37500  26382795.32900  21351124.97740  26382801.07140
  -5991215.17600  24220640.88400  -4343968.66340  24220645.41940
  -1241714.22900  25993028.20400   -858145.05540  25993034.26340
  -7096474.85500  22669800.90700  -5500919.16240  22669804.69240
  24973596.15200  25846096.66500  19459946.91740  25846099.22040
    713848.51300  22425973.18100    556251.44440  22425976.31040
 96  9 11  2 31 30.0050000  0  8  4 14 15 18 19 22 25 29
    208889.89300  26330468.86800    160267.32240  26330473.67340
   3105517.37300  21957336.00900   2410224.72340  21957340.08740
  27534861.02000  26408341.40700  21455731.99340  26408346.71640
  -6029173.22200  24213417.65700  -4373546.34440  24213421.57140
  -1294046.36400  25983068.44600   -898923.31040  25983073.16940
  -7072345.08700  22674392.49300  -5482116.73140  22674396.33740
  25099280.64000  25870014.04800  19557882.85540  25870017.86840
    736630.78300  22430308.77400    574003.86940  22430311.83340
 96  9 11  2 32  0.0050000  0  8  4 14 15 18 19 22 25 29
    223449.84300  26333240.83700    171612.72240  26333244.30640
   3164621.51000  21968583.03200   2456279.89040  21968587.25140
  27668966.29500  26433861.23500  21560229.60440  26433868.06740
  -6067043.58700  24206211.45400  -4403055.69940  24206215.55640
  -1346271.64500  25973130.85300   -939618.28240  25973137.41540
  -7047651.29000  22679091.60300  -5462874.80240  22679095.43540
  25224941.89300  25893926.18800  19655800.69440  25893931.07540
    759580.66200  22434675.68800    591886.89740  22434678.65340
 96  9 11  2 32 30.0050000  0  7  4 14 18 19 22 25 29
    238498.95000  26336102.04000    183339.28440  26336109.16940
   3224250.43900  21979929.97800   2502743.98340  21979934.14940
  -6104807.14600  24199024.86800  -4432481.81940  24199028.94640
  -1398365.95500  25963218.03200   -980211.17640  25963225.41940
  -7022383.38800  22683899.83700  -5443185.52340  22683903.73940
  25350581.58100  25917835.03200  19753701.76440  25917839.47440
    782715.88200  22439078.27400    609914.34640  22439081.23940
 96  9 11  2 33  0.0050000  0  7  4 14 18 19 22 25 29
    254034.21600  26339059.83700    195444.69540  26339066.14240
   3284423.45600  21991380.49300   2549632.04440  21991384.66540
  -6142463.21500  24191859.00100  -4461824.19840  24191863.47840
  -1450325.18600  25953330.22800  -1020698.80840  25953335.10340
  -6996536.45800  22688818.46200  -5423045.04340  22688822.28240
  25476203.00600  25941739.18800  19851588.59740  25941743.20840
    806055.69900  22443519.57100    628101.22440  22443522.63040
 96  9 11  2 33 30.0050000  0  7  4 14 18 19 22 25 29
    270052.86000  26342107.22800    207926.75840  26342113.49740
   3345140.85300  22002934.64200   2596944.29640  22002938.87240
  -6180041.16800  24184708.29000  -4491105.70740  24184712.33340
  -1502151.77000  25943467.96200  -1061083.10340  25943473.44640
  -6970119.49100  22693845.35300  -5402460.38540  22693849.32540
  25601788.75900  25965637.66500  19949447.63140  25965640.63040
    829579.91500  22447996.04000    646431.78440  22447999.20440
 96  9 11  2 34  0.0050000  0  7  4 14 18 19 22 25 29
    286574.45100  26345252.01700    220800.72040  26345255.28640
   3406428.09800  22014597.25900   2644700.58640  22014601.38440
  -6217542.06800  24177572.25900  -4520327.15440  24177576.59540
  -1553793.24800  25933640.57900  -1101323.15640  25933645.78240
  -6943104.75100  22698986.03200  -5381409.92340  22698989.85340
  25727354.72100  25989532.11800  20047291.22640  25989536.47840
    853309.63000  22452511.82900    664922.47640  22452514.92340
 96  9 11  2 34 30.0050000  0  7  4 14 18 19 22 25 29
    303582.04900  26348488.32900    234053.40740  26348492.29040
   3468272.34100  22026365.76700   2692890.90540  22026369.97440
  -6254994.52600  24170444.97800  -4549510.85840  24170449.50140
  -1605266.50800  25923845.56300  -1141432.11440  25923852.14940
  -6915494.76400  22704240.09500  -5359895.63940  22704244.12640
  25852888.35900  26013420.24300  20145109.65340  26013423.99340
    877242.99500  22457066.16500    683571.85740  22457069.18840
 96  9 11  2 35  0.0050000  0  7  4 14 18 19 22 25 29
    321074.38000  26351816.82100    247683.77140  26351821.40340
   3530670.90400  22038239.92300   2741513.15440  22038244.07140
  -6292407.82900  24163325.43800  -4578664.06740  24163328.96640
  -1656582.41500  25914080.77400  -1181418.48040  25914086.38840
  -6887275.00600  22709610.02400  -5337906.20540  22709613.91540
  25978411.09000  26037307.16500  20242919.57940  26037312.25140
    901379.44400  22461659.11800    702379.48340  22461662.13040
 96  9 11  2 35 30.0050000  0  7  4 14 18 19 22 25 29
    339050.93400  26355238.26700    261691.47640  26355240.95040
   3593607.60800  22050216.30600   2790554.73840  22050220.44240
  -6329789.36400  24156212.14200  -4607792.51340  24156216.43140
  -1707739.47900  25904345.46200  -1221281.04240  25904351.29840
  -6858440.99900  22715096.93100  -5315438.13840  22715100.85640
  26103925.31200  26061191.89900  20340722.87240  26061196.11840
    925708.53700  22466288.82900    721337.22040  22466291.84140
 96  9 11  2 36  0.0050000  0  7  4 14 18 19 22 25 29
    357502.70400  26358748.22000    276069.45840  26358753.56340
   3657071.06600  22062293.13400   2840006.78540  22062297.31740
  -6367134.50100  24149105.53200  -4636892.60240  24149109.09540
  -1758764.16100  25894635.53200  -1261040.43440  25894640.31340
  -6828993.27400  22720700.80600  -5292491.84740  22720704.61440
  26229432.96700  26085074.61800  20438521.03040  26085078.29840
    950225.70200  22470954.14200    740441.51140  22470957.29440
 96  9 11  2 36 30.0050000  0  7  4 14 18 19 22 25 29
    376448.72400  26362355.50900    290832.60340  26362358.20440
   3721080.13900  22074473.67300   2889883.97340  22074477.82140
  -6404417.33000  24142010.91500  -4665944.13440  24142014.64240
  -1809656.26400  25884952.11000  -1300696.56740  25884956.88040
  -6798912.50300  22726425.18800  -5269052.27940  22726428.98540
  26354948.92800  26108959.29800  20536325.69340  26108961.24340
    974944.92800  22475658.30600    759703.24840  22475661.43540
 96  9 11  2 37  0.0050000  0  7  4 14 18 19 22 25 29
    395881.30300  26366052.75900    305974.84840  26366056.20440
   3785622.30400  22086755.46200   2940176.56140  22086759.45840
  -6441640.65600  24134927.67300  -4694949.29740  24134932.12640
  -1860419.09300  25875292.12600  -1340251.92340  25875298.63040
  -6768221.17100  22732265.23500  -5245136.93840  22732269.12640
  26480455.09200  26132841.44600  20634122.68540  26132843.07540
    999848.93800  22480397.10300    779108.97340  22480400.20840
 96  9 11  2 37 30.0050000  0  7  4 14 18 19 22 25 29
    415792.25200  26369841.30600    321489.94840  26369847.38840
   3850695.67300  22099138.49300   2990883.07240  22099142.64240
  -6478791.32400  24127857.82100  -4723897.85040  24127861.37240
  -1911049.22100  25865657.00900  -1379703.91940  25865662.42340
  -6736934.68100  22738218.96200  -5220757.84340  22738222.77040
  26605928.83600  26156719.15700  20731894.49140  26156723.20040
   1024935.66900  22485170.94600    798657.08140  22485174.08740
 96  9 11  2 38  0.0050000  0  7  4 14 18 19 22 25 29
    436179.61200  26373720.51700    337376.15040  26373722.93140
   3916296.18200  22111621.82100   3042000.34740  22111626.07540
  -6515857.81800  24120804.42300  -4752780.81740  24120808.32540
  -1961552.75000  25856046.64200  -1419057.26440  25856052.18540
  -6705057.50700  22744285.00900  -5195918.47640  22744288.78240
  26731363.28500  26180589.11000  20829635.61240  26180592.98940
   1050205.48500  22489979.68800    818347.84640  22489982.88840
 96  9 11  2 38 30.0050000  0  7  4 14 18 19 22 25 29
    457043.88600  26377692.06300    353634.04340  26377698.11040
   3982430.69600  22124206.95400   3093533.73040  22124211.20840
  -6552835.09200  24113767.89900  -4781594.26040  24113771.36840
  -2011914.31900  25846462.74300  -1458299.98940  25846468.63840
  -6672590.23900  22750463.20400  -5170619.29540  22750466.88440
  26856763.94000  26204451.52400  20927350.41840  26204455.63840
   1075659.10300  22494823.43100    838181.83340  22494826.58340
 96  9 11  2 39  0.0050000  0  7  4 14 18 19 22 25 29
    478376.34900  26381750.68100    370256.72140  26381755.53240
   4049104.92700  22136894.67300   3145487.66940  22136898.85640
  -6589728.78700  24106747.28200  -4810342.57940  24106750.84540
  -2062140.60200  25836904.82100  -1497437.28140  25836910.34140
  -6639529.87800  22756754.51700  -5144857.96940  22756758.43140
  26982138.55300  26228309.39200  21025044.92640  26228310.98540
   1101297.07100  22499702.32100    858159.47440  22499705.47440
 96  9 11  2 39 30.0060000  0  7  4 14 18 19 22 25 29
    500187.86600  26385900.64600    387252.70040  26385904.47840
   4116325.95400  22149686.16200   3197867.68440  22149690.43940
  -6626544.80100  24099741.39600  -4839030.35540  24099745.48640
  -2112224.23300  25827374.85000  -1536463.43340  25827381.45940
  -6605851.21300  22763163.23200  -5118614.83840  22763167.08840
  27107507.32700  26252165.65400  21122734.87140  26252168.42040
   1127118.75600  22504616.06800    878280.27240  22504619.09240
 96  9 11  2 40  0.0060000  0  7  4 14 18 19 22 25 29
    522465.69300  26390140.67800    404612.04540  26390144.14640
   4184076.04100  22162578.77100   3250659.94840  22162583.01440
  -6663307.84400  24092745.63100  -4867676.87140  24092749.88540
  -2162164.67800  25817870.70900  -1575378.00340  25817876.21740
  -6571564.43500  22769687.71700  -5091897.86140  22769691.50240
  27232854.42600  26276019.84200  21220407.92640  26276024.49440
   1153100.71000  22509560.12300    898525.95040  22509563.18240
 96  9 11  2 40 30.0060000  0  7  4 14 18 19 22 25 29
    545215.97600  26394468.47500    422339.57140  26394472.92840
   4252378.88400  22175576.31100   3303882.93540  22175580.54140
  -6700020.93800  24085759.40400  -4896284.46340  24085763.07240
  -2211951.80300  25808396.85700  -1614173.14240  25808402.41240
  -6536674.92000  22776327.09200  -5064711.22340  22776331.18240
  27358180.06000  26299868.11500  21318064.30140  26299871.76040
   1179259.33100  22514537.75600    918909.28940  22514540.81440
 96  9 11  2 41  0.0060000  0  7  4 14 18 19 22 25 29
    568465.01000  26398893.88900    440455.68540  26398897.27540
   4321234.14400  22188678.99800   3357536.38440  22188683.32240
  -6736669.51100  24078785.37300  -4924841.78040  24078788.97140
  -2261564.73000  25798955.94300  -1652832.49840  25798961.82640
  -6501168.37300  22783083.56800  -5037043.77240  22783087.76440
  27483478.42800  26323711.96700  21415699.35540  26323714.47540
   1205621.51000  22519554.63100    939451.25440  22519557.71340
 96  9 11  2 41 30.0060000  0  7  4 14 18 19 22 25 29
    592219.30300  26403415.24000    458965.46540  26403418.66240
   4390635.64100  22201885.70100   3411615.47240  22201889.89640
  -6773234.61300  24071827.12300  -4953334.05640  24071831.07240
  -2310986.25200  25789550.78700  -1691342.69940  25789556.31840
  -6465057.86300  22789955.23200  -5008905.69940  22789959.14640
  27608741.44000  26347548.68600  21513306.91640  26347555.14340
   1232198.48200  22524611.95900    960160.59040  22524614.94740
 96  9 11  2 42  0.0060000  0  7  4 14 18 19 22 25 29
    616476.26900  26408030.70900    477867.02240  26408034.99840
   4460589.84300  22215197.56800   3466125.23940  22215201.83440
  -6809696.23200  24064888.67800  -4981745.69740  24064892.34640
  -2360218.19900  25780182.77100  -1729705.22040  25780186.53340
  -6428365.07300  22796937.52900  -4980313.90240  22796941.32640
  27733955.08300  26371375.41200  21610875.99940  26371382.22140
   1259018.46800  22529715.42000    981059.28940  22529718.47840
 96  9 11  2 42 30.0060000  0  7  4 14 18 19 22 25 29
    641224.90000  26412738.99000    497151.66240  26412744.34640
   4531073.79000  22228610.22500   3521047.79140  22228614.36140
  -6846063.80200  24057968.34200  -5010084.05240  24057972.66640
  -2409286.97800  25770845.42000  -1767940.57440  25770850.51840
  -6391101.58400  22804028.72500  -4951277.40540  22804032.48640
  27859099.52300  26395189.02100  21708391.16040  26395192.12740
   1286084.05300  22534865.92800   1002149.35940  22534868.98640
 96  9 11  2 43  0.0060000  0  7  4 14 18 19 22 25 29
    666455.49400  26417540.02100    516811.84640  26417546.32640
   4602073.55700  22242120.90400   3576372.27140  22242125.10040
  -6882342.25100  24051064.49000  -5038352.97140  24051068.32240
  -2458193.38200  25761538.56800  -1806049.43840  25761544.07640
  -6353254.34600  22811230.85700  -4921786.04540  22811234.85340
  27984180.86400  26418992.56100  21805857.10240  26418996.01840
   1313389.95000  22540062.06100   1023426.68340  22540065.13140
 96  9 11  2 43 30.0060000  0  7  4 14 18 19 22 25 29
    692161.08200  26422432.47500    536842.15540  26422436.72840
   4673608.48500  22255733.72500   3632113.77540  22255737.88540
  -6918537.53300  24044176.88900  -5066557.06840  24044180.45140
  -2506936.71100  25752262.94300  -1844031.21140  25752268.42840
  -6314810.64500  22818546.51400  -4891829.90240  22818550.39340
  28109211.55800  26442784.92000  21903283.65440  26442790.26440
   1340929.68400  22545302.68600   1044886.22640  22545305.82640
 96  9 11  2 44  0.0060000  0  6  4 14 18 19 22 29
    718332.52000  26427412.69300    557235.49040  26427416.61940
   4745661.45200  22269444.89600   3688258.94140  22269449.15040
  -6954677.63100  24037299.58400  -5094718.17140  24037303.47540
  -2555534.82600  25743015.17800  -1881899.78940  25743020.94340
  -6275758.37400  22825977.85700  -4861399.55540  22825981.66640
   1368678.65900  22550583.13900   1066508.80940  22550586.20940
 96  9 11  2 44 30.0060000  0  6  4 14 18 19 22 29
    744967.40500  26432480.99800    577989.96240  26432485.22840
   4818224.26700  22283253.23200   3744801.38940  22283257.45140
  -6990778.38600  24030430.13100  -5122848.62240  24030434.10340
  -2603987.61400  25733794.60000  -1919655.15540  25733800.51840
  -6236084.53100  22833527.31800  -4830484.86040  22833531.19740
   1396609.72200  22555898.30300   1088273.28140  22555901.37340
 96  9 11  2 45  0.0060000  0  6  4 14 18 19 22 29
    772074.59300  26437640.14600    599112.42240  26437644.64640
   4891314.91000  22297161.88900   3801755.12240  22297166.20140
  -7026814.56100  24023572.41200  -5150928.75040  24023576.74840
  -2652275.19400  25724605.49000  -1957281.78840  25724610.86940
  -6195787.92000  22841195.52100  -4799084.89940  22841199.28340
   1424724.03000  22561248.14600   1110180.53940  22561251.28740
 96  9 11  2 45 30.0060000  0  6  4 14 18 19 22 29
    799648.37500  26442887.80300    620598.49940  26442892.60740
   4964924.20100  22311169.17000   3859113.00840  22311173.44740
  -7062785.46300  24016727.57600  -5178958.01340  24016731.72540
  -2700409.02000  25715445.63900  -1994788.62240  25715451.61540
  -6154879.94200  22848980.30300  -4767208.54140  22848984.08840
   1453000.05800  22566629.04500   1132213.81240  22566632.17440
 96  9 11  2 46  0.0060000  0  6  4 14 18 19 22 29
    827700.10200  26448224.72500    642456.96740  26448228.82640
   5039063.94200  22325277.56100   3916884.23240  22325281.77940
  -7098659.85400  24009900.83400  -5206912.07540  24009904.17440
  -2748383.08500  25706317.09200  -2032170.95740  25706323.03340
  -6113357.60200  22856881.60700  -4734853.46540  22856885.52140
   1481460.48100  22572044.70900   1154390.77340  22572047.77940
 96  9 11  2 46 30.0060000  0  6  4 14 18 19 22 29
    856229.90200  26453653.49000
   5113732.23300  22339486.50600   3975067.31740  22339490.77140
  -7134428.12600  24003094.27100  -5234783.44240  24003098.33840
  -2796205.37500  25697216.90400  -2069435.03740  25697222.88140
  -6071242.76200  22864895.75600  -4702036.69640  22864899.48240
   1510108.57700  22577496.20900   1176713.96540  22577499.30340
 96  9 11  2 47  0.0060000  0  6  4 14 18 19 22 29
    885239.79500  26459174.77900
   5188924.70500  22353795.14600   4033658.85040  22353799.22540
  -7170084.72200  23996309.12300  -5262567.78840  23996313.23640
  -2843881.97300  25688144.23200  -2106585.59240  25688149.97540
  -6028535.22600  22873022.63900  -4668758.09040  22873026.31840
   1538951.28200  22582984.85000   1199188.81040  22582987.97840
 96  9 11  2 47 30.0060000  0  6  4 14 18 19 22 29
    914746.51000  26464789.20100
   5264650.87800  22368205.27900   4092666.25240  22368209.52140
  -7205628.13000  23989545.23200  -5290263.94140  23989549.12340
  -2891407.49500  25679100.28700  -2143618.41240  25679105.45540
  -5985216.75600  22881266.05300  -4635003.43840  22881269.69740
   1567993.39400  22588511.39600   1221819.02940  22588514.38540
 96  9 11  2 48  0.0060000  0  6  4 14 18 19 22 29
    944745.92300  26470497.66200      2354.44850  26470499.52540
   5340888.75300  22382712.86500   4152072.38740  22382717.07240
  -7241076.71100  23982799.93600  -5317886.20240  23982804.04940
  -2938789.70500  25670083.58400  -2180539.57640  25670088.22540
  -5941310.32400  22889621.14600  -4600790.62540  22889624.95540
   1597239.99300  22594076.82600   1244608.58740  22594079.92040
 96  9 11  2 48 30.0060000  0  6  4 14 18 19 22 29
    975248.28200  26476302.90400     26122.54740  26476304.59240
   5417648.29800  22397320.06100   4211885.01140  22397324.30340
  -7276430.28700  23976072.42000  -5345434.43040  23976076.08840
  -2986000.04700  25661099.68600  -2217326.80340  25661104.57240
  -5896805.18600  22898089.97500  -4566111.29040  22898093.88940
   1626695.73600  22599681.93600   1267561.12040  22599685.04140
 96  9 11  2 49  0.0060000  0  6  4 14 18 19 22 29
   1006227.02800  26482198.22500     50261.81940  26482203.42840
   5494936.69500  22412027.35000   4272109.72840  22412031.63940
  -7311696.88000  23969361.17000  -5372914.88240  23969365.14340
  -3033030.44300  25652149.99000  -2253973.81040  25652155.81440
  -5851698.74500  22906673.52900  -4530963.40940  22906677.36140
   1656356.38900  22605326.44300   1290673.31840  22605329.52540
 96  9 11  2 49 30.0060000  0  6  4 14 18 19 22 29
   1037669.16100  26488181.07600     74762.19740  26488184.85040
   5572753.65200  22426835.41200   4332746.31340  22426839.52540
  -7346874.70100  23962667.04500  -5400326.16140  23962670.84240
  -3079876.97100  25643235.38900  -2290477.55840  25643239.76040
  -5805992.07500  22915371.31800  -4495347.81240  22915375.06840
   1686235.57800  22611012.25600   1313955.80840  22611015.35040
 96  9 11  2 50  0.0060000  0  6  4 14 18 19 22 29
   1069570.40900  26494250.71700     99620.31240  26494254.87740
   5651093.21900  22441743.02100   4393790.12840  22441747.15840
  -7381957.82400  23955990.79500  -5427663.64440  23955994.85040
  -3126533.85000  25634356.81800  -2326833.52240  25634361.85740
  -5759682.42500  22924183.68600  -4459262.36340  22924187.45940
   1716348.72200  22616742.48200   1337420.59840  22616745.60040
 96  9 11  2 50 30.0060000  0  6  4 14 18 19 22 29
   1101934.30700  26500409.92000    124838.94140  26500415.67440
   5729967.19600  22456752.10000   4455250.36640  22456756.37740
  -7416935.15700  23949335.02900  -5454918.70140  23949338.95540
  -3172998.94300  25625515.12300  -2363040.02140  25625519.99840
  -5712754.93000  22933113.54500  -4422695.47440  22933117.23640
   1746692.73300  22622516.74800   1361065.28440  22622519.78340
 96  9 11  2 51  0.0060000  0  6  4 14 18 19 22 29
   1134775.94800  26506659.87300    150429.77740  26506665.55740
   5809356.88000  22471859.58400   4517112.45340  22471863.79140
  -7451802.07000  23942700.02900  -5482087.70440  23942703.74440
  -3219288.79100  25616706.22500  -2399110.00140  25616712.11940
  -5665205.44600  22942162.00600  -4385643.92040  22942165.59240
   1777275.01600  22628336.39600   1384895.63640  22628339.56140
 96  9 11  2 51 30.0060000  0  6  4 14 18 19 22 29
   1168117.71000  26513003.98200    176410.35840  26513007.81440
   5889247.03500  22487062.15400   4579364.51640  22487066.43240
  -7486573.58900  23936083.07600  -5509182.39040  23936086.74440
  -3265420.98500  25607927.91200  -2435057.12040  25607933.78340
  -5617049.43000  22951325.70100  -4348119.74240  22951329.66240
   1808090.00800  22634200.26400   1408907.31940  22634203.29940
 96  9 11  2 52  0.0060000  0  6  4 14 18 19 22 29
   1201967.85800  26519444.87300    202787.06140  26519450.80340
   5969641.94000  22502360.75600   4642009.88140  22502364.98640
  -7521261.11800  23929482.49000  -5536211.63140  23929486.15840
  -3311399.32700  25599178.29500  -2470884.35040  25599184.26040
  -5568301.33000  22960602.30300  -4310134.19840  22960606.17040
   1839124.30800  22640105.92800   1433089.89440  22640109.01040
 96  9 11  2 52 30.0060000  0  6  4 14 18 19 22 29
   1236328.31700  26525984.78700    229561.46440  26525990.16640
   6050565.36000  22517760.00600   4705067.07740  22517764.17840
  -7555861.42800  23922898.05300  -5563172.90240  23922901.93240
  -3357212.95300  25590459.23200  -2506583.24040  25590465.44340
  -5518952.78300  22969992.85000  -4271680.77840  22969996.61140
   1870391.86900  22646055.84200   1457454.22540  22646058.88940
 96  9 11  2 53  0.0060000  0  6  4 14 18 19 22 29
   1271169.68200  26532614.45900    256710.53540  26532620.14340
   6132011.82200  22533258.67800   4768531.85240  22533262.81440
  -7590397.24000  23916326.43600  -5590083.91040  23916330.30340
  -3402870.85400  25581771.55300  -2542160.77140  25581776.87340
  -5469024.61700  22979494.03700  -4232775.70340  22979497.83440
   1901885.45400  22652049.05300   1481994.68940  22652052.04140
 96  9 11  2 53 30.0060000  0  6  4 14 18 19 22 29
   1306461.61100  26539330.87300    284210.74740  26539335.24440
   6213991.54400  22548858.98200   4832412.14640  22548863.14340
  -7624888.12800  23909762.56800  -5616959.91440  23909766.58840
  -3448377.06400  25573111.88900  -2577620.14040  25573115.77940
  -5418527.23800  22989103.33400  -4193427.08840  22989107.13140
   1933592.13600  22658082.60000   1506701.19540  22658085.63540
 96  9 11  2 54  0.0060000  0  6  4 14 18 19 22 29
   1342194.65200  26546129.87300    312054.67540  26546135.67440
   6296500.88600  22564559.97500   4896705.13340  22564564.11140
  -7659304.30400  23903213.49800  -5643777.71040  23903217.41240
  -3493715.81500  25564483.99800  -2612948.96740  25564489.29540
  -5367444.98600  22998823.97500  -4153622.72940  22998827.68940
   1965517.10000  22664157.56800   1531577.79440  22664160.52140
 96  9 11  2 54 30.0060000  0  6  4 14 18 19 22 29
   1378368.78100  26553013.70900    340242.32540  26553018.32640
   6379535.05900  22580360.83400   4961407.08340  22580365.01840
  -7693630.59600  23896681.35700  -5670525.45040  23896685.06140
  -3538877.00800  25555890.42800  -2648139.48840  25555895.63140
  -5315769.13700  23008657.48200  -4113355.82640  23008661.29140
   1997653.93400  22670273.16200   1556619.48940  22670276.17440
 96  9 11  2 55  0.0060000  0  6  4 14 18 19 22 29
   1414993.52900  26559984.10700    368781.05240  26559988.05740
   6463088.09600  22596260.41200   5026513.33540  22596264.54940
  -7727844.07500  23890171.03700  -5697185.29240  23890174.90440
  -3583861.11400  25547329.94300  -2683191.99440  25547334.42040
  -5263498.78300  23018604.17000  -4072625.67440  23018607.89640
   2030002.86700  22676428.81100   1581826.45440  22676431.88140
 96  9 11  2 55 30.0060000  0  6  4 14 18 19 22 29
   1452073.76500  26567038.86500    397674.75540  26567042.40440
   6547150.38700  22612256.90400   5092016.40040  22612261.15840
  -7761920.66700  23883686.24800  -5723738.46640  23883690.18640
  -3628673.90900  25538801.96700  -2718111.00240  25538807.14640
  -5210644.91200  23028661.95900  -4031440.83640  23028665.81440
   2062559.13800  22682624.17000   1607194.98040  22682627.32240
 96  9 11  2 56  0.0060000  0  6  4 14 18 19 22 29
   1489607.15000  26574181.06800    426921.53640  26574184.92440
   6631709.27300  22628348.11500   5157906.43740  22628352.38140
  -7795844.73000  23877230.61500  -5750172.78740  23877234.93940
  -3673310.38000  25530308.46700  -2752892.63740  25530314.53740
  -5157220.45900  23038828.19300  -3989811.38440  23038832.01440
   2095325.72100  22688859.31800   1632727.39040  22688862.37740
 96  9 11  2 56 30.0060000  0  6  4 14 18 19 22 29
   1527596.97900  26581410.89600    456524.00640  26581416.99040
   6716775.06300  22644535.49000   5224191.46440  22644539.70940
  -7829633.87600  23870800.93600  -5776501.98340  23870804.88540
  -3717773.21200  25521848.10700  -2787538.95340  25521853.31140
  -5103217.70900  23049104.67800  -3947731.31740  23049108.45140
   2128322.24700  22695138.20900   1658438.97540  22695141.22140
 96  9 11  2 57  0.0060000  0  6  4 14 18 19 22 29
   1566036.39800  26588725.66200    486476.76040  26588726.65840
   6802333.73200  22660816.90400   5290860.55240  22660821.19340
  -7863294.26600  23864395.34200  -5802730.85240  23864399.30340
  -3762077.18800  25513416.60000  -2822061.49040  25513421.67440
  -5048634.86500  23059491.50600  -3905199.22940  23059495.31440
   2161563.86900  22701463.96700   1684341.54440  22701467.09640
 96  9 11  2 57 30.0060000  0  6  4 14 18 19 22 29
   1604942.08300  26596129.70100    516792.85040  26596130.47540
   6888388.62900  22677192.49800   5357916.31640  22677196.76440
  -7896830.45400  23858013.53700  -5828862.93440  23858017.62740
  -3806214.68800  25505017.40400  -2856454.29740  25505023.15840
  -4993450.70400  23069992.83400  -3862198.57940  23069996.70140
   2195050.29600  22707836.29500   1710434.87440  22707839.42440
 96  9 11  2 58  0.0060000  0  6  4 14 18 19 22 29
   1644313.79200  26603622.04500    547472.05540  26603625.29140
   6974927.19200  22693660.27900   5425348.95540  22693664.47540
  -7930274.25600  23851649.74800  -5854923.03140  23851653.70940
  -3850198.31900  25496647.60000  -2890727.20340  25496651.88940
  -4937653.81300  23080610.25600  -3818720.47940  23080613.92440
   2228769.09400  22714252.78700   1736709.26840  22714255.89340
 96  9 11  2 58 30.0060000  0  6  4 14 18 19 22 29
   1684170.74200  26611206.85000    578529.45840  26611208.74840
   7061961.97300  22710222.52900   5493168.26140  22710226.86540
  -7963625.52400  23845302.92000  -5880911.01840  23845306.56440
  -3894026.24300  25488307.25600  -2924878.79840  25488312.86940
  -4881219.43700  23091349.45900  -3774745.63640  23091353.31440
   2262718.63700  22720713.17000   1763163.46840  22720716.25240
 96  9 11  2 59  0.0060000  0  6  4 14 18 19 22 29
   1724506.27000  26618880.95900    609959.70240  26618886.43240
   7149481.80300  22726876.88900   5561365.52340  22726881.16640
  -7996878.11500  23838975.15400  -5906822.11940  23838979.01040
  -3937701.45900  25479996.19300  -2958911.39340  25480001.06840
  -4824170.71000  23102205.61500  -3730292.07840  23102209.48240
   2296873.39100  22727212.60700   1789777.56240  22727215.64340
 96  9 11  2 59 30.0060000  0  6  4 14 18 19 22 29
   1765310.00200  26626645.89600    641754.79240  26626649.18940
   7237500.81600  22743626.40400   5629951.76040  22743630.70540
  -8030041.11400  23832664.65400  -5932663.41440  23832668.51040
  -3981219.93500  25471714.88900  -2992821.86340  25471720.68940
  -4766528.85600  23113174.41200  -3685376.34340  23113178.30340
   2331222.98800  22733749.22500   1816543.48840  22733752.29540
 96  9 11  3  0  0.0060000  0  6  4 14 18 19 22 29
   1806576.31800  26634499.18600    673910.35540  26634505.50240
   7326025.19000  22760472.02100   5698931.79140  22760476.19340
  -8063110.93800  23826371.63100  -5958432.10240  23826375.61540
  -4024560.09500  25463467.59200  -3026593.36140  25463473.33440
  -4708302.01900  23124254.53700  -3640004.77740  23124258.31140
   2365788.39800  22740326.68600   1843477.58440  22740329.80340
 96  9 11  3  0 30.0060000  0  6  4 14 18 19 22 29
   1848294.74600  26642435.91200    706418.19940  26642442.31140
   7415042.70400  22777411.58400   5768296.09540  22777415.83840
  -8096079.38800  23820097.92800  -5984121.79340  23820101.58440
  -4067710.60000  25455256.10000  -3060217.10640  25455260.92840
  -4649511.49900  23135441.91200  -3594193.97840  23135445.82640
   2400575.20900  22746946.27100   1870584.18940  22746949.30740
 96  9 11  3  1  0.0060000  0  6  4 14 18 19 22 29
   1890467.93300  26650462.11500    739280.36940  26650465.33840
   7504554.54400  22794444.87300   5838045.58040  22794449.16240
  -8128943.00600  23813844.32600  -6009729.79940  23813848.08840
  -4110664.99500  25447082.69300  -3093688.00340  25447088.21340
  -4590169.92300  23146734.31800  -3547953.78040  23146737.89340
   2435594.72600  22753610.38100   1897872.12940  22753613.38140
 96  9 11  3  1 30.0060000  0  6  4 14 18 19 22 29
   1933077.00800  26658571.44300    772482.28240  26658572.18240
   7594538.59700  22811568.33400   5908163.02740  22811572.67040
  -8161717.88000  23807607.31100  -6035268.64540  23807610.85040
  -4153443.97900  25438942.01400  -3127022.24840  25438946.83040
  -4530280.77800  23158130.77100  -3501286.90640  23158134.46340
   2470844.89400  22760318.39600   1925339.79840  22760321.46740
 96  9 11  3  2  0.0060000  0  6  4 14 18 19 22 29
   1976140.97500  26666766.29500    806038.61340  26666769.20140
   7684979.64200  22828778.76400   5978636.56540  22828782.92440
  -8194389.94100  23801389.83400  -6060727.38140  23801393.60740
  -4196047.51300  25430834.83400  -3160219.76940  25430839.32240
  -4469823.12800  23169635.58400  -3454177.04240  23169639.31140
   2506333.55400  22767071.50600   1952993.30040  22767074.52940
 96  9 11  3  2 30.0070000  0  6  4 14 18 19 22 29
   2019643.68900  26675043.68300    839936.82640  26675051.04640
   7775870.04400  22846074.80000   6049460.25440  22846079.08940
  -8226964.55000  23795191.29200  -6086110.18740  23795195.00740
  -4238510.37100  25422753.68300  -3193307.67540  25422759.17940
  -4408807.90300  23181246.35400  -3406632.70540  23181249.95240
   2542038.65700  22773865.90100   1980815.46840  22773868.91340
 96  9 11  3  3  0.0070000  0  6  4 14 18 19 22 29
   2063577.35300  26683406.50300    874170.80440  26683409.29240
   7867225.56500  22863458.92500   6120646.36440  22863463.22640
  -8259423.94400  23789014.57300  -6111403.20440  23789018.34740
  -4280832.53000  25414700.32300  -3226285.93440  25414705.72640
  -4347222.76600  23192965.64400  -3358644.27740  23192969.37040
   2577969.48200  22780703.31500   2008813.51840  22780706.43340
 96  9 11  3  3 30.0070000  0  6  4 14 18 19 22 29
   2107946.72900  26691847.53400    908744.37640  26691851.75340
   7959062.59500  22880935.05800   6192207.68840  22880939.38240
  -8291746.02700  23782863.69000  -6136589.22940  23782867.58140
  -4322994.28800  25406677.06500  -3259139.21840  25406681.88240
  -4285051.20600  23204796.35400  -3310198.89640  23204800.08140
   2614152.03400  22787588.72900   2037007.71840  22787591.78840
 96  9 11  3  4  0.0070000  0  6  4 14 18 19 22 29
   2152757.00200  26700375.22200    943661.44440  26700378.10440
   8051399.10000  22898506.08900   6264158.20740  22898510.30840
  -8323925.75400  23776740.06500  -6161664.32340  23776743.94440
  -4364975.10200  25398688.59700  -3291851.50040  25398694.10440
  -4222302.67800  23216737.05800  -3261303.93540  23216740.70240
   2650581.38800  22794520.92500   2065394.23040  22794524.04240
 96  9 11  3  4 30.0070000  0  6  4 14 18 19 22 29
   2197988.95200  26708983.36200    978907.09640  26708987.12440
   8144238.86000  22916172.80800   6336500.86740  22916177.14440
  -8355963.87400  23770643.49500  -6186629.07140  23770647.36240
  -4406770.28600  25390735.35400  -3324419.14540  25390739.11640
  -4158993.10200  23228784.58900  -3211971.79140  23228788.19840
   2687262.91300  22801501.27600   2093977.24140  22801504.37040
 96  9 11  3  5  0.0070000  0  6  4 14 18 19 22 29
   2243645.58800  26717671.01100   1014483.65840  26717678.11640
   8237574.44500  22933934.05800   6409229.89540  22933938.17140
  -8387863.68600  23764572.92500  -6211486.05040  23764576.88640
  -4448375.54700  25382817.15900  -3356838.79140  25382822.02240
  -4095124.03500  23240938.37000  -3162203.68040  23240942.23740
   2724197.59200  22808529.64400   2122757.51040  22808532.70240
 96  9 11  3  5 30.0070000  0  6  4 14 18 19 22 29
   2289758.94100  26726446.60400   1050416.13240  26726451.23340
   8331406.81100  22951789.73700   6482346.02740  22951793.87440
  -8419628.01000  23758528.70600  -6236237.45040  23758532.37440
  -4489781.88200  25374938.15900  -3389103.44240  25374943.19840
  -4030687.03900  23253200.48700  -3111993.02840  23253204.37840
   2761387.45000  22815606.64400   2151736.62840  22815609.72640
 96  9 11  3  6  0.0070000  0  6  4 14 18 19 22 29
   2336333.31600  26735308.14400   1086707.85140  26735312.66740
   8425724.52400  22969737.75300   6555840.34840  22969742.00740
  -8451262.53300  23752508.58900  -6260887.71140  23752511.98740
  -4531004.54500  25367094.16700  -3421224.97540  25367099.37040
  -3965684.41800  23265569.77600  -3061341.62840  23265573.43340
   2798810.42600  22822727.94000   2180897.39140  22822730.98740
 96  9 11  3  6 30.0070000  0  6  4 14 18 19 22 29
   2383357.21900  26744257.01900   1123349.79040  26744260.41740
   8520513.54100  22987775.50300   6629701.92540  22987779.75740
  -8482772.61000  23746512.60400  -6285441.00740  23746516.56540
  -4572068.67300  25359280.12800  -3453222.96240  25359286.11640
  -3900113.89600  23278047.44000  -3010247.71040  23278051.34340
   2836464.37000  22829893.36200   2210238.13440  22829896.49140
 96  9 11  3  7  0.0070000  0  6  4 14 18 19 22 29
   2430842.48400  26753292.39400   1160351.28140  26753298.25340
   8615779.70800  23005903.96400   6703935.30340  23005908.30040
  -8514160.77500  23740539.41700  -6309899.30040  23740543.34340
  -4612976.80600  25351495.14400  -3485099.41140  25351500.30040
  -3833971.56300  23290634.27600  -2958708.22240  23290638.15540
   2874342.79700  22837101.39400   2239753.79540  22837104.52240
 96  9 11  3  7 30.0070000  0  6  4 14 18 19 22 29
   2478786.75700  26762414.86200   1197710.48040  26762418.17940
   8711522.28300  23024123.03400   6778539.89840  23024127.46440
  -8545418.50300  23734591.40100  -6334255.95640  23734595.36240
  -4653717.47600  25343742.36200  -3516845.35740  25343746.99140
  -3767261.09500  23303328.55000  -2906726.03440  23303332.20640
   2912455.07800  22844353.81500   2269451.67840  22844356.82740
 96  9 11  3  8  0.0070000  0  6  4 14 18 19 22 29
   2527173.33000  26771624.19800   1235414.27840  26771628.30040
   8807753.83600  23042435.65100   6853525.52740  23042440.01140
  -8576530.32500  23728670.90100  -6358498.90940  23728674.93340
  -4694283.99200  25336022.72200  -3548455.58840  25336027.39740
  -3699979.53700  23316131.80000  -2854298.83740  23316135.62040
   2950801.79100  22851651.01900   2299332.24440  22851654.14740
 96  9 11  3  8 30.0070000  0  6  4 14 18 19 22 29
   2575997.27300  26780915.07300   1273458.84440  26780919.09340
   8904479.26900  23060841.94800   6928895.99340  23060846.35440
  -8607490.31600  23722779.65100  -6382623.56140  23722783.67140
  -4734667.17100  25328338.52600  -3579922.98040  25328343.47240
  -3632113.95500  23329046.28400  -2801416.55840  23329049.91740
   2989404.91800  22858996.86200   2329412.60540  22859000.02640
 96  9 11  3  9  0.0070000  0  6  4 14 18 19 22 29
   2625258.16600  26790289.40100   1311843.96740  26790291.83940
   9001682.73900  23079339.14400   7004638.94740  23079343.35140
  -8638304.51400  23716915.57300  -6406634.60940  23716919.58140
  -4774864.09400  25320688.88600  -3611245.20840  25320693.35140
  -3563674.44300  23342069.78400  -2748087.06240  23342073.47640
   3028254.26000  22866389.63600   2359684.82740  22866392.69440
 96  9 11  3  9 30.0070000  0  6  4 14 18 19 22 29
   2674931.38300  26799741.72200   1350550.33640  26799747.17140
   9099353.11300  23097925.16700   7080745.73040  23097929.50340
  -8668978.94900  23711078.53400  -6430536.74840  23711082.44840
  -4814876.04600  25313074.73700  -3642423.32040  25313079.29640
  -3494668.86300  23355201.14400  -2694316.47640  23355205.12840
   3067336.31900  22873826.57300   2390138.38840  22873829.69040
 96  9 11  3 10  0.0070000  0  6  4 14 18 19 22 29
   2725014.50600  26809271.05000   1389576.10540  26809279.10440
   9197489.24000  23116599.83900   7157215.43640  23116604.01140
  -8699524.74600  23705265.70600  -6454338.64740  23705269.42140
  -4854711.95000  25305494.35400  -3673464.22040  25305499.83940
  -3425091.22400  23368441.19800  -2640100.12440  23368444.97240
   3106655.50900  22881308.97900   2420776.72640  22881311.97940
 96  9 11  3 10 30.0070000  0  6  4 14 18 19 22 29
   2775515.77100  26818882.22200   1428927.72640  26818887.69440
   9296084.88100  23135362.06500   7234043.20140  23135366.40140
  -8729940.09500  23699478.14400  -6478038.90540  23699481.91740
  -4894362.42200  25297949.37800  -3704360.66340  25297955.00340
  -3354933.90800  23381791.85400  -2585432.07940  23381795.73340
   3146240.93200  22888841.83900   2451622.51240  22888844.97940
 96  9 11  3 11  0.0070000  0  6  4 14 18 19 22 29
   2826431.99000  26828570.42500   1468602.67040  26828574.96040
   9395135.49100  23154210.39400   7311225.49240  23154214.63640
  -8760238.92300  23693712.18300  -6501648.36440  23693716.02640
  -4933838.46300  25290436.99500  -3735121.19040  25290442.22240
  -3284223.85500  23395247.45600  -2530333.33440  23395251.33540
   3186083.90400  22896423.74500   2482668.98540  22896426.85140
 96  9 11  3 11 30.0070000  0  6  4 14 18 19 22 29
   2877761.29200  26838339.15900   1508599.51640  26838340.57740
   9494638.02300  23173145.27600   7388759.93240  23173149.50740
  -8790411.16500  23687970.69800  -6525159.20240  23687974.51940
  -4973142.78700  25282957.63600  -3765747.88940  25282962.25340
  -3212961.81400  23408808.16700  -2474804.46340  23408812.01140
   3226197.88500  22904057.04200   2513926.64740  22904060.13640
 96  9 11  3 12  0.0070000  0  6  4 14 18 19 22 29
   2929531.35500  26848190.15100   1548939.81540  26848193.62040
   9594587.03100  23192165.09700   7466642.25840  23192169.42140
  -8820433.95900  23682257.66700  -6548553.58340  23682261.61640
  -5012280.28000  25275509.69000  -3796244.60140  25275514.43640
  -3141131.39900  23422477.07300  -2418832.70840  23422480.85840
   3266597.55800  22911744.87800   2545406.91440  22911747.86640
 96  9 11  3 12 30.0070000  0  6  4 14 18 19 22 29
   2981748.62300  26858127.76900   1589628.54140  26858132.96040
   9694964.50700  23211266.08900   7544858.47440  23211270.49540
  -8850296.61200  23676575.01100  -6571823.16740  23676579.01940
  -5051253.66500  25268093.80800  -3826613.45740  25268098.34340
  -3068751.09900  23436250.44000  -2362432.47040  23436254.01540
   3307258.46500  22919482.27600   2577090.74340  22919485.21840
 96  9 11  3 13  0.0070000  0  6  4 14 18 19 22 29
   3034430.70500  26868151.26100   1630679.53140  26868156.28840
   9795772.03100  23230450.19000   7623409.78340  23230454.45640
  -8879984.69400  23670925.34700  -6594956.72940  23670929.28440
  -5090054.15400  25260710.29200  -3856847.58140  25260715.44840
  -2995818.62900  23450129.01900  -2305601.96840  23450132.72240
   3348162.57700  22927265.29200   2608964.08240  22927268.37440
 96  9 11  3 13 30.0070000  0  6  4 14 18 19 22 29
   3087580.65800  26878266.52600   1672095.03540  26878271.96440
   9897013.99000  23249714.91700   7702299.60440  23249719.12440
  -8909481.89700  23665312.30000  -6617941.54240  23665316.06140
  -5128653.54100  25253364.76100  -3886925.00040  25253369.58940
  -2922317.07800  23464115.83100  -2248328.03040  23464119.51140
   3389314.22300  22935097.15900   2641030.30240  22935100.13640
 96  9 11  3 14  0.0070000  0  6  4 14 18 19 22 29
   3141191.99600  26888468.32300   1713870.08640  26888473.70240
   9998704.34500  23269065.94000   7781538.83740  23269070.28840
  -8938802.37400  23659732.67500  -6640788.66040  23659736.49540
  -5167029.25500  25246062.48700  -3916828.13740  25246067.15140
  -2848251.86100  23478210.25300  -2190614.86740  23478214.17940
   3430723.53500  22942977.12800   2673297.30340  22942980.24540
 96  9 11  3 14 30.0070000  0  6  4 14 18 19 22 29
   3195234.90900  26898752.89400   1755981.43740  26898756.51540
  10100856.59600  23288504.86200   7861137.99840  23288509.23340
  -8967973.63100  23654181.76900  -6663519.49340  23654185.43640
  -5205171.10300  25238804.01900  -3946549.01340  25238808.77640
  -2773644.51800  23492407.45600  -2132479.27340  23492411.24140
   3472400.62400  22950907.86200   2705772.96340  22950910.89740
 96  9 11  3 15  0.0070000  0  6  4 14 18 19 22 29
   3249682.76200  26909113.19000   1798408.30140  26909117.98340
  10203476.50800  23308032.75300   7941101.56040  23308037.10140
  -8997019.53900  23648654.35400  -6686152.66540  23648658.02240
  -5243075.98200  25231591.04200  -3976085.25140  25231596.43340
  -2698494.24200  23506707.96400  -2073920.61240  23506711.84340
   3514353.74000  22958891.22900   2738463.70340  22958894.15940
 96  9 11  3 15 30.0070000  0  6  4 14 18 19 22 29
   3304520.27900  26919549.17500   1841138.78740  26919553.30040
  10306577.68000  23327652.32300   8021440.13540  23327656.75340
  -9025941.05100  23643150.91700  -6708688.89540  23643154.58540
  -5280749.76900  25224421.80000  -4005441.42040  25224426.13640
  -2622802.35400  23521111.70600  -2014939.91340  23521115.43340
   3556603.42900  22966931.16700   2771385.54440  22966934.08540
 96  9 11  3 16  0.0070000  0  6  4 14 18 19 22 29
   3359737.67800  26930056.44800   1884165.35540  26930060.46840
  10410150.22300  23347361.44000   8102146.00640  23347365.68340
  -9054744.88600  23637669.67500  -6731133.44040  23637673.24940
  -5318236.91600  25217288.29200  -4034652.15840  25217293.63640
  -2546575.62500  23535617.22900  -1955542.45840  23535621.08540
   3599139.70100  22975025.47900   2804530.68940  22975028.46840
 96  9 11  3 16 30.0070000  0  6  4 14 18 19 22 29
   3415365.81500  26940642.49500   1927511.92340  26940645.67140
  10514201.43400  23367161.77600   8183224.86440  23367166.01940
  -9083395.85000  23632217.57300  -6753458.84140  23632221.20640
  -5355546.36400  25210188.45600  -4063724.43040  25210194.16340
  -2469792.50300  23550228.63600  -1895711.45240  23550232.49140
   3641955.54500  22983173.03400   2837893.68640  22983176.12840
 96  9 11  3 17  0.0070000  0  6  4 14 18 19 22 29
   3471410.38400  26951305.86200   1971183.05140  26951310.50340
  10618707.17300  23387048.47900   8264657.92140  23387052.82740
  -9111876.59500  23626797.80800  -6775651.59740  23626801.59340
  -5392705.10300  25203117.62000  -4092679.24340  25203122.19040
  -2392457.07200  23564945.02600  -1835450.06640  23564948.68340
   3685039.22300  22991371.61200   2871465.39240  22991374.69440
 96  9 11  3 17 30.0070000  0  6  4 14 18 19 22 29
   3527877.97100  26962052.55000   2015183.67040  26962056.79240
  10723663.59400  23407020.94800   8346442.12140  23407025.42540
  -9140166.00900  23621414.47200  -6797695.30540  23621418.01140
  -5429725.13900  25196072.55800  -4121526.01340  25196077.89040
  -2314573.23400  23579765.89400  -1774761.35940  23579769.77240
   3728392.05600  22999621.35400   2905246.81740  22999624.36640
 96  9 11  3 18  0.0070000  0  6  4 14 18 19 22 29
   3584779.53800  26972879.83100   2059522.55440  26972882.60840
  10829054.57000  23427076.30800   8428564.94340  23427080.70240
  -9168254.61800  23616069.61200  -6819582.51840  23616073.28040
  -5466590.14800  25189057.90100  -4150251.96440  25189062.98740
  -2236144.93000  23594690.37800  -1713648.39040  23594693.99940
   3772014.00800  23007922.38600   2939237.95340  23007925.39740
 96  9 11  3 18 30.0070000  0  6  4 14 18 19 22 29
   3642101.26800  26983788.04200   2104188.80040  26983788.88640
  10934865.51400  23447211.37800   8511015.01440  23447215.72640
  -9196150.85300  23610760.92500  -6841319.82040  23610764.52240
  -5503281.81000  25182075.12800  -4178842.81940  25182079.99140
  -2157188.45200  23609715.22900  -1652123.85940  23609719.02640
   3815902.85100  23016274.12800   2973437.05740  23016277.15140
 96  9 11  3 19  0.0070000  0  6  4 14 18 19 22 29
   3699849.91300  26994777.37800   2149187.74840  26994780.78840
  11041121.17200  23467431.19000   8593811.61740  23467435.62040
  -9223840.68100  23605491.43300  -6862896.28540  23605495.18340
  -5539766.53100  25175132.58900  -4207272.43140  25175136.96040
  -2077682.90100  23624844.51900  -1590171.47540  23624848.33940
   3860096.68800  23024683.93300   3007873.81240  23024686.96840
 96  9 11  3 19 30.0070000  0  6  4 14 18 19 22 29
   3758014.64300  27005846.72200   2194510.92140  27005851.89040
  11147806.85700  23487732.95600   8676943.31440  23487737.46840
  -9251347.05900  23600257.47200  -6884329.82740  23600261.11640
  -5576035.67800  25168230.85400  -4235534.08740  25168235.89440
  -1997643.02400  23640075.53400  -1527802.74140  23640079.36640
   3904569.16800  23033146.62800   3042527.69440  23033149.78040
 96  9 11  3 20  0.0070000  0  6  4 14 18 19 22 29
   3816583.76800  27016991.76100   2240149.17740  27016997.12840
  11254912.36700  23508114.46400   8760402.14140  23508118.88240
  -9278686.67500  23595054.89400  -6905633.42640  23595058.59740
  -5612096.70200  25161368.69000  -4263633.56040  25161372.81540
  -1917072.60600  23655407.65900  -1465020.59140  23655411.39740
   3949311.63500  23041660.84700   3077391.95140  23041663.90540
 96  9 11  3 20 30.0070000  0  6  4 14 18 19 22 29
   3875557.54400  27028212.80000   2286102.75540  27028217.25340
  11362450.19500  23528578.12000   8844197.84540  23528582.39740
  -9305861.72300  23589883.67500  -6926808.77340  23589887.30840
  -5647965.78400  25154542.80800  -4291583.45440  25154547.94040
  -1835965.02000  23670841.90100  -1401819.87140  23670845.62840
   3994318.87100  23050225.47900   3112462.52940  23050228.45640
 96  9 11  3 21  0.0070000  0  6  4 14 18 19 22 29
   3934916.91100  27039509.13600   2332356.75440  27039512.51140
  11470391.19200  23549118.79200   8928307.70440  23549123.22240
  -9332890.14500  23584740.04200  -6947869.86640  23584743.61640
  -5683669.86400  25147748.40900  -4319404.78440  25147752.92140
  -1754347.22100  23686373.26100  -1338221.58540  23686377.31540
   4039563.68800  23058835.36200   3147718.22840  23058838.45640
 96  9 11  3 21 30.0070000  0  6  4 14 18 19 22 29
   3994667.63600  27050879.43300   2378915.77940  27050884.92940
  11578733.44000  23569735.47900   9012730.23540  23569739.95640
  -9359757.11900  23579627.58100  -6968805.16840  23579631.36640
  -5719202.52000  25140986.68300  -4347092.55540  25140991.51140
  -1672213.22800  23702003.01100  -1274221.06740  23702006.64440
   4085059.38200  23067492.82300   3183169.41940  23067495.84740
 96  9 11  3 22  0.0070000  0  6  4 14 18 19 22 29
   4054793.37000  27062321.72200   2425766.97840  27062325.46040
  11687486.43100  23590430.58900   9097472.81540  23590435.01940
  -9386456.21400  23574547.05000  -6989609.63540  23574550.70640
  -5754567.73000  25134257.08100  -4374649.81740  25134261.52240
  -1589561.55900  23717731.02600  -1209817.16640  23717734.81140
   4130820.48200  23076201.03400   3218827.42940  23076204.08140
 96  9 11  3 22 30.0070000  0  6  4 14 18 19 22 29
   4115302.28200  27073834.77600   2472916.72440  27073838.36240
  11796660.56100  23611205.72900   9182543.55540  23611210.13640
  -9412968.34500  23569501.90100  -7010268.42640  23569505.62840
  -5789752.29300  25127561.77600  -4402066.33140  25127566.73340
  -1506377.62300  23733560.30000  -1144998.51140  23733564.12040
   4176864.59900  23084962.88600   3254705.95240  23084965.95640
 96  9 11  3 23  0.0070000  0  6  4 14 18 19 22 29
   4176189.92200  27085421.43300   2520361.65540  27085424.56140
  11906244.41000  23632058.87800   9267933.56740  23632063.16740
  -9439294.30700  23564492.22900  -7030782.16340  23564495.94440
  -5824746.13900  25120902.63600  -4429334.23240  25120906.36240
  -1422654.75000  23749492.15900  -1079759.90340  23749495.93340
   4223194.49000  23093779.22200   3290807.17140  23093782.18640
 96  9 11  3 23 30.0070000  0  6  4 14 18 19 22 29
   4237457.49000  27097080.72200   2568102.56440  27097083.62840
  12016251.22000  23652992.30000   9353653.15640  23652996.65940
  -9465438.02300  23559517.16700  -7051153.88040  23559520.71840
  -5859546.12300  25114280.50300  -4456451.09640  25114285.46040
  -1338383.96600  23765528.27600  -1014094.36340  23765532.06140
   4269805.71200  23102649.15100   3327127.60640  23102652.16340
 96  9 11  3 24  0.0070000  0  6  4 14 18 19 22 29
   4299119.80000  27108815.47900   2616151.08140  27108820.13240
  12126693.05900  23674008.68300   9439711.73440  23674013.35840
  -9491392.33200  23554578.09700  -7071378.00340  23554581.90540
  -5894147.41700  25107696.08900  -4483413.09040  25107700.47240
  -1253559.92000  23781670.04200   -947997.69540  23781673.87440
   4316691.75000  23111571.02600   3363662.18840  23111574.00340
 96  9 11  3 24 30.0070000  0  6  4 14 18 19 22 29
   4361186.59500  27120626.26100   2664514.85340  27120630.85440
  12237554.70200  23695105.02600   9526097.43240  23695109.45640
  -9517166.92500  23549673.47200  -7091462.08140  23549677.09340
  -5928560.86000  25101147.19800  -4510228.72940  25101152.43640
  -1168193.85500  23797914.16700   -881478.68140  23797917.92940
   4363836.58300  23120542.39400   3400398.41640  23120545.38240
 96  9 11  3 25  0.0070000  0  6  4 14 18 19 22 29
   4423669.30600  27132516.15900   2713202.61640  27132520.06140
  12348839.96100  23716282.03400   9612813.21040  23716286.41740
  -9542753.46000  23544804.45600  -7111399.62640  23544808.26540
  -5962764.35400  25094638.16700  -4536880.78840  25094643.37040
  -1082292.88900  23814261.00300   -814542.86740  23814264.65940
   4411245.20200  23129564.01900   3437340.20340  23129567.05440
 96  9 11  3 25 30.0070000  0  6  4 14 18 19 22 29
   4486537.52100  27144480.08900   2762190.79940  27144486.10140
  12460530.58600  23737536.10400   9699844.86040  23737540.67540
  -9568174.25800  23539966.97200  -7131208.02840  23539970.62840
  -5996791.57600  25088163.19000  -4563395.47040  25088167.83140
   -995899.26200  23830701.05000   -747223.14940  23830704.81140
   4458909.81100  23138634.33100   3474481.45540  23138637.37840
 96  9 11  3 26  0.0080000  0  6  4 14 18 19 22 29
   4549800.49600  27156517.75800   2811486.66240  27156523.94540
  12572636.64500  23758869.00800   9787200.23540  23758873.29740
  -9593409.86300  23535164.86700  -7150872.10640  23535168.47740
  -6030633.25100  25081723.39100  -4589765.57240  25081728.11340
   -909006.86100  23847236.35900   -679514.78940  23847240.26240
   4506863.65000  23147759.60200   3511848.08440  23147762.73040
 96  9 11  3 26 30.0080000  0  6  4 14 18 19 22 29
   4613431.10100  27168626.47700   2861068.87640  27168630.89440
  12685126.37400  23780275.07800   9874854.56840  23780279.59040
  -9618474.67700  23530395.18700  -7170403.11340  23530398.85540
  -6064295.42400  25075317.38300  -4615995.79840  25075322.04740
   -821638.47600  23863861.71100   -611435.52740  23863865.29740
   4555113.75100  23156941.36700   3549445.56840  23156944.48440
 96  9 11  3 27  0.0080000  0  6  4 14 18 19 22 29
   4677424.46600  27180804.06200   2910933.85040  27180806.12540
  12798010.57300  23801756.39800   9962816.27840  23801760.73440
  -9643361.95500  23525659.34400  -7189795.77840  23525663.08240
  -6097768.48600  25068948.07800  -4642078.67340  25068952.80140
   -733792.07300  23880578.44500   -542983.78340  23880582.23040
   4603681.73900  23166183.43000   3587290.76340  23166186.39440
 96  9 11  3 27 30.0080000  0  6  4 14 18 19 22 29
   4741796.25800  27193053.09400   2961093.64740  27193058.41440
  12911301.22100  23823314.79700  10051094.71040  23823319.18040
  -9668061.50600  23520959.33600  -7209042.16440  23520962.99240
  -6131046.24100  25062615.43700  -4668009.37840  25062619.91440
   -645466.20500  23897386.32000   -474158.43540  23897390.09440
   4652572.76000  23175487.25800   3625387.66540  23175490.15240
 96  9 11  3 28  0.0080000  0  7  3  4 14 18 19 22 29
    -20899.57010  27174071.59400
   4806537.80200  27205373.28100   3011541.55640  27205377.82840
  13024971.82200  23844945.64800  10139669.19140  23844950.31240
  -9692580.42400  23516293.27300  -7228147.81240  23516296.77740
  -6164123.64100  25056321.00800  -4693783.94040  25056325.76640
   -556666.92100  23914284.21100   -404964.18540  23914287.97340
   4701760.54600  23184847.35200   3663715.81340  23184850.42240
 96  9 11  3 28 30.0080000  0  7  3  4 14 18 19 22 29
    -57700.04300  27167069.03900
   4871678.14300  27217769.43000   3062300.26740  27217772.32440
  13139047.58800  23866653.53900  10228559.37340  23866658.08640
  -9716881.67300  23511669.03900  -7247083.83640  23511672.75440
  -6196975.62000  25050069.60900  -4719382.86740  25050074.57840
   -467367.07400  23931277.49200   -335379.88640  23931281.34840
   4751251.85700  23194265.16400   3702280.48440  23194268.29340
 96  9 11  3 29  0.0080000  0  6  3 14 18 19 22 29
    -94416.21000  27160082.56200    -18109.71850  27160088.59840
  13253505.69300  23888434.17200  10317747.49940  23888438.59040
  -9740982.61300  23507082.67200  -7265863.77440  23507086.26940
  -6229630.78800  25043855.32000  -4744828.43540  25043859.59840
   -377597.99700  23948359.96900   -265429.94840  23948363.62540
   4801002.43500  23203732.19500   3741047.16640  23203735.31240
 96  9 11  3 29 30.0080000  0  6  3 14 18 19 22 29
   -131044.19500  27153112.73400    -46650.99040  27153117.85540
  13368339.65800  23910286.28100  10407228.49640  23910290.61740
  -9764862.97600  23502538.48400  -7284471.83440  23502542.07040
  -6262083.14700  25037679.66400  -4770115.96340  25037684.64440
   -287338.81600  23965535.44500   -195098.11840  23965539.00840
   4851018.33700  23213249.85900   3780020.59240  23213252.94140
 96  9 11  3 30  0.0080000  0  6  3 14 18 19 22 29
   -167583.53900  27146159.65600    -75123.14240  27146163.67640
  13483537.12000  23932207.75000  10496992.72540  23932212.09840
  -9788521.82400  23498036.23400  -7302907.28440  23498039.85540
  -6294356.81500  25031538.56200  -4795264.24840  25031543.53140
   -196581.47000  23982806.10200   -124378.10640  23982809.88740
   4901293.41700  23222816.96900   3819195.97540  23222820.09840
 96  9 11  3 30 30.0080000  0  6  3 14 18 19 22 29
   -204032.93600  27139222.96100   -103525.27640  27139224.36740
  13599101.24100  23954198.72700  10587042.68040  23954203.26240
  -9811974.93900  23493573.18000  -7321182.42140  23493576.80140
  -6326469.95200  25025427.20300  -4820287.46440  25025431.82040
   -105333.52200  24000170.14100    -53275.80940  24000173.92640
   4951830.31400  23232434.01600   3858575.38840  23232436.96940
 96  9 11  3 31  0.0080000  0  6  3 14 18 19 22 29
   -240398.22200  27132303.37500   -131861.86740  27132309.04740
  13715019.59200  23976257.38300  10677368.65840  23976261.87140
  -9835232.99600  23489147.50000  -7339305.58140  23489151.21540
  -6358412.42400  25019348.99200  -4845177.68040  25019353.56240
    -13591.12600  24017628.19500     18211.76940  24017632.07440
   5002645.69000  23242103.68000   3898171.78340  23242106.71540
 96  9 11  3 31 30.0080000  0  6  3 14 18 19 22 29
   -276698.71600  27125395.25800   -160147.94340  27125400.15640
  13831283.39700  23998381.71900  10767963.81140  23998386.03140
  -9858303.76400  23484757.23400  -7357282.78940  23484760.93740
  -6390191.37300  25013301.35900  -4869940.49240  25013306.02340
     78631.44100  24035177.48400     90073.50840  24035181.17640
   5053732.68700  23251825.37500   3937979.82540  23251828.49240
 96  9 11  3 32  0.0080000  0  6  3 14 18 19 22 29
   -312903.94700  27118505.12500   -188359.77740  27118509.40240
  13947928.61700  24020578.43700  10858856.17740  24020582.92640
  -9881171.08700  23480405.60200  -7375101.46940  23480409.34040
  -6421775.66300  25007291.39100  -4894551.62540  25007296.01940
    171357.08800  24052822.43700    162327.26140  24052826.07040
   5105116.66800  23261603.40600   3978019.29340  23261606.48840
 96  9 11  3 32 30.0080000  0  6  3 14 18 19 22 29
   -349009.46300  27111635.11700   -216493.91640  27111639.61740
  14064958.62300  24042848.56200  10950048.37540  24042853.00440
  -9903830.65000  23476093.78100  -7392758.26140  23476097.48440
  -6453146.38700  25001321.70300  -4918996.33640  25001326.64840
    264583.54200  24070562.99200    234971.25040  24070566.82440
   5156815.53200  23271441.43000   4018304.10940  23271444.30140
 96  9 11  3 33  0.0080000  0  6  3 14 18 19 22 29
   -385035.53800  27104778.21900   -244566.17840  27104781.39440
  14182360.56900  24065189.74200  11041530.39740  24065194.18440
  -9926273.41400  23471822.84400  -7410246.12340  23471826.61740
  -6484312.31500  24995390.79700  -4943281.43840  24995395.35540
    358291.72200  24088395.05500    307990.61240  24088398.38340
   5208810.92700  23281335.85200   4058819.99640  23281338.85240
 96  9 11  3 33 30.0080000  0  6  3 14 18 19 22 29
   -420968.39700  27097941.46100   -272565.81440  27097944.55540
  14300153.26200  24087604.62500  11133316.90440  24087608.94940
  -9948489.75400  23467595.28100  -7427557.54240  23467598.97340
  -6515283.15200  24989497.24200  -4967414.53840  24989501.91840
    452481.46800  24106318.68700    381385.22240  24106322.37940
   5261106.68200  23291287.27300   4099569.94140  23291290.25040
 96  9 11  3 34  0.0080000  0  6  3 14 18 19 22 29
   -456801.02800  27091122.87500   -300487.30040  27091127.85540
  14418337.59700  24110094.52300  11225408.58440  24110098.71940
  -9970489.11200  23463408.89100  -7444699.89740  23463412.45340
  -6546070.65100  24983638.60900  -4991404.78240  24983642.98040
    547154.42100  24124334.43700    455156.35340  24124338.10540
   5313711.59500  23301297.76600   4140560.77440  23301300.71940
 96  9 11  3 34 30.0080000  0  6  3 14 18 19 22 29
   -492548.42300  27084319.91400   -328342.38340  27084324.85940
  14536900.88900  24132656.28900  11317795.55340  24132660.68440
  -9992274.48800  23459263.50000  -7461675.50740  23459267.08640
  -6576694.27000  24977810.85900  -5015267.31240  24977815.72340
    642277.07800  24142435.74200    529277.90440  24142439.75040
   5366621.00100  23311365.97700   4181788.88040  23311368.89440
 96  9 11  3 35  0.0080000  0  6  3 14 18 19 22 29
   -528208.69800  27077534.93000   -356129.60440  27077540.85940
  14655838.62300  24155289.31200  11410474.28540  24155293.37940
 -10013852.86500  23455157.12500  -7478489.81340  23455160.78140
  -6607158.81600  24972013.86700  -5039005.89440  24972018.39140
    737842.23000  24160620.88300    603744.25240  24160624.43440
   5419835.72200  23321492.46900   4223254.89040  23321495.45740
 96  9 11  3 35 30.0080000  0  6  3 14 18 19 22 29
   -563785.14500  27070764.33600   -383851.49040  27070767.58240
  14775112.65600  24177986.61700  11503415.07140  24177990.91840
 -10035259.67200  23451083.46900  -7495170.43740  23451087.03140
  -6637485.54000  24966243.03900  -5062637.06640  24966247.58640
    833824.49500  24178886.07800    678535.62340  24178889.75840
   5473340.34900  23331674.10200   4264946.79540  23331677.23040
 96  9 11  3 36  0.0080000  0  6  3 14 18 19 22 29
   -599252.21000  27064015.64800   -411488.11740  27064020.91040
  14894727.92500  24200748.35200  11596621.76440  24200752.64140
 -10056462.22500  23447048.89800  -7511691.90340  23447052.47340
  -6667642.14700  24960504.15600  -5086135.68940  24960508.72740
    930241.16500  24197233.54700    753665.50640  24197237.29740
   5527147.12800  23341913.07800   4306874.15840  23341916.10240
 96  9 11  3 36 30.0080000  0  6  3 14 18 19 22 29
   -634592.42100  27057290.47700   -439025.91240  27057295.76240
  15014667.57400  24223572.32000  11690081.19540  24223576.78540
 -10077443.92200  23443056.00000  -7528041.27640  23443059.65640
  -6697605.49600  24954802.59400  -5109483.73540  24954807.07040
   1027095.35300  24215663.96900    829136.29440  24215667.73040
   5581249.41300  23352208.40600   4349031.77740  23352211.50040
 96  9 11  3 37  0.0080000  0  6  3 14 18 19 22 29
   -669813.80400  27050587.40600   -466471.18240  27050592.57440
  15134904.61700  24246452.48400  11783772.38740  24246456.92640
 -10098226.63700  23439101.23400  -7544235.59540  23439104.85540
  -6727391.67300  24949134.28900  -5132693.71540  24949138.93040
   1124383.33500  24234177.56200    904945.11640  24234181.28940
   5635610.34100  23362553.07000   4391390.93540  23362556.14140
 96  9 11  3 37 30.0080000  0  6  3 14 18 19 22 29
   -704877.21700  27043915.32800   -493793.25040  27043920.26240
  15255469.96500  24269395.46100  11877719.39140  24269399.94940
 -10118768.80600  23435192.13300  -7560242.47840  23435195.53140
  -6756968.20400  24943505.53900  -5155740.33540  24943510.42640
   1222140.45000  24252779.82000    981119.48740  24252783.59440
   5690248.22600  23372950.09400   4433965.91440  23372953.21140
 96  9 11  3 38  0.0080000  0  6  3 14 18 19 22 29
   -739784.60000  27037273.17200   -520993.78540  27037277.89440
  15376365.54000  24292401.23400  11971923.72240  24292405.38340
 -10139076.78500  23431327.81200  -7576066.87540  23431331.43440
  -6786336.14600  24937917.22700  -5178624.42340  24937921.85540
   1320357.44800  24271469.94500   1057652.21440  24271474.04740
   5745163.16900  23383400.21100   4476756.78240  23383403.28140
 96  9 11  3 38 30.0080000  0  6  3 14 18 19 22 29
   -774527.78300  27030661.04700   -548066.40240  27030666.13340
  15497599.70700  24315471.17200  12066391.89540  24315475.70740
 -10159150.64000  23427507.84400  -7591708.82940  23427511.50040
  -6815500.39500  24932367.47700  -5201349.79240  24932372.03540
   1419046.20100  24290250.13300   1134552.54140  24290254.07040
   5800370.11700  23393905.60900   4519775.19640  23393908.68040
 96  9 11  3 39  0.0080000  0  6  3 14 18 19 22 29
   -809129.37300  27024076.62500   -575028.67640  27024081.37140
  15619174.42900  24338606.40600  12161125.41640  24338610.88340
 -10179001.38200  23423730.32800  -7607176.93140  23423733.83240
  -6844484.28600  24926852.25800  -5223934.60840  24926856.69940
   1518192.36500  24309116.86700   1211809.29040  24309120.75840
   5855869.81200  23404467.03100   4563021.70840  23404470.11340
 96  9 11  3 39 30.0080000  0  6  3 14 18 19 22 29
   -843594.60700  27017518.28100   -601884.66840  27017521.59840
  15741084.04600  24361804.95300  12256119.90340  24361809.32440
 -10198630.64000  23419994.97700  -7622472.45640  23419998.57440
  -6873290.34900  24921370.43700  -5246380.87040  24921374.79740
   1617777.81800  24328067.34400   1289408.34540  24328071.23440
   5911667.37600  23415084.81200   4606500.33340  23415087.80140
 96  9 11  3 40  0.0080000  0  6  3 14 18 19 22 29
   -877929.64200  27010984.96900   -628639.23340  27010988.03940
  15863331.74000  24385067.71900  12351377.82840  24385072.00840
 -10218038.86700  23416301.73400  -7637595.75140  23416305.19140
  -6901913.33500  24915923.83600  -5268684.46840  24915928.57040
   1717806.51000  24347102.23400   1367352.77740  24347105.94940
   5967774.01000  23425761.57800   4650219.80140  23425764.56640
 96  9 11  3 40 30.0080000  0  6  3 14 18 19 22 29
   -912151.64100  27004472.39800   -655305.70440  27004477.35540
  15985918.66500  24408395.46900  12446900.09440  24408399.78140
 -10237227.74300  23412650.28100  -7652548.11640  23412653.84440
  -6930361.96000  24910509.93000  -5290852.20140  24910514.43040
   1818276.37100  24366221.12500   1445640.98540  24366224.98040
   6024173.60400  23436494.02300   4694167.54440  23436497.03540
 96  9 11  3 41  0.0080000  0  6  3 14 18 19 22 29
   -946248.36400  26997984.42200   -681874.55440  26997989.85940
  16108856.04800  24431789.62500  12542695.45240  24431793.91440
 -10256187.27300  23409042.28900  -7667321.77840  23409045.80540
  -6958621.89700  24905132.35900  -5312872.89640  24905136.74240
   1919180.52700  24385422.15600   1524267.59740  24385425.94140
   6080870.81900  23447283.25800   4738347.18840  23447286.34040
 96  9 11  3 41 30.0080000  0  6  3 14 18 19 22 29
   -980221.15700  26991518.99200   -708346.84240  26991522.54340
  16232114.64400  24455244.88300  12638741.10040  24455249.24240
 -10274926.18300  23405476.46100  -7681923.52740  23405479.98840
  -6986705.01200  24899788.58600  -5334755.81740  24899793.02740
   2020511.98800  24404704.81200   1603227.18540  24404708.50440
   6137856.82200  23458127.42200   4782751.87240  23458130.53940
 96  9 11  3 42  0.0080000  0  6  3 14 18 19 22 29
  -1014051.07500  26985081.00000   -734707.80440  26985085.65240
  16355701.39000  24478762.58600  12735042.45140  24478767.06240
 -10293428.07600  23401955.69500  -7696340.58240  23401959.31640
  -7014596.59800  24894480.48400  -5356489.50640  24894484.70340
   2122297.12700  24424073.97700   1682540.27740  24424077.85540
   6195160.50200  23469031.87500   4827404.08140  23469034.89840
 96  9 11  3 42 30.0080000  0  6  3 14 18 19 22 29
  -1047731.74200  26978671.92200   -760952.48140  26978677.72340
  16479598.16100  24502339.50000  12831585.37440  24502344.04740
 -10311681.37200  23398482.26600  -7710563.92740  23398485.93440
  -7042307.05800  24889207.73400  -5378082.04940  24889212.31640
   2224514.54000  24443525.58600   1762190.21040  24443529.61740
   6252768.82300  23479994.30500   4872293.68540  23479997.34040
 96  9 11  3 43  0.0080000  0  6  3 14 18 19 22 29
  -1081248.98000  26972293.90600   -787069.79340  26972298.23040
  16603783.75400  24525971.42200  12928353.35340  24525975.92240
 -10329676.71200  23395057.80500  -7724586.26040  23395061.34440
  -7069838.76100  24883968.60900  -5399535.30440  24883973.40240
   2327160.04500  24463058.19500   1842173.72140  24463062.27340
   6310691.43600  23491016.73400   4917428.18040  23491019.76940
 96  9 11  3 43 30.0080000  0  6  3 14 18 19 22 29
  -1114610.44300  26965945.16400   -813065.70440  26965949.85240
  16728241.85900  24549654.90600  13025333.68640  24549659.19540
 -10347422.24000  23391680.81200  -7738413.93840  23391684.39840
  -7097194.79900  24878762.69500  -5420851.66640  24878767.28940
   2430221.84500  24482670.23400   1922481.62140  24482673.85540
   6368927.30000  23502098.50800   4962806.76540  23502101.50840
 96  9 11  3 44  0.0080000  0  6  3 14 18 19 22 29
  -1147795.19200  26959630.68700   -838923.95540  26959636.66440
  16852999.32900  24573395.28100  13122547.29040  24573399.41840
 -10364902.99100  23388354.51600  -7752035.30040  23388358.10240
  -7124358.15000  24873593.50000  -5442017.88440  24873597.83640
   2533699.90300  24502361.49200   2003113.87140  24502365.13740
   6427472.33700  23513239.29700   5008426.25940  23513242.29740
 96  9 11  3 44 30.0080000  0  6  3 14 18 19 22 29
  -1180805.52300  26953349.18000   -864646.26540  26953352.77740
  16978056.79400  24597192.85200  13219994.63640  24597197.49240
 -10382127.53800  23385076.87500  -7765457.02240  23385080.37940
  -7151336.64000  24868459.69500  -5463040.06340  24868464.06640
   2637574.15800  24522127.96900   2084054.84640  24522131.94140
   6486305.76300  23524434.82800   5054270.48340  23524437.93440
 96  9 11  3 45  0.0080000  0  6  3 14 18 19 22 29
  -1213627.99400  26947103.62500   -890222.18540  26947108.76940
  17103435.67600  24621052.04700  13317692.46240  24621056.41840
 -10399100.30900  23381846.80500  -7778682.55340  23381850.50840
  -7178113.95100  24863364.35200  -5483905.47740  24863369.15640
   2741876.69000  24541975.92200   2165329.55140  24541979.66040
   6545456.04200  23535690.85200   5100361.61240  23535693.88740
 96  9 11  3 45 30.0080000  0  6  3 14 18 19 22 29
  -1246278.62400  26940889.60900   -915664.24040  26940894.85940
  17229130.02900  24644970.71900  13415636.09340  24644975.46540
 -10415853.38100  23378658.74200  -7791736.88940  23378662.37540
  -7204704.14900  24858304.33600  -5504625.08540  24858308.81240
   2846595.16400  24561903.40600   2246928.36740  24561906.94540
   6604906.71400  23547003.83600   5146686.80040  23547007.00040
 96  9 11  3 46  0.0080000  0  6  3 14 18 19 22 29
  -1278743.91400  26934712.00800   -940961.83540  26934715.69940
  17355151.27500  24668951.92200  13513834.45040  24668956.51640
 -10432372.87900  23375515.24200  -7804609.21840  23375518.93440
  -7231104.02000  24853280.20300  -5525196.38940  24853284.79740
   2951746.27600  24581913.23400   2328864.29540  24581916.78540
   6664662.32900  23558374.85900   5193249.60940  23558377.91840
 96  9 11  3 46 30.0080000  0  6  3 14 18 19 22 29
  -1311054.88600  26928563.18700   -966139.19140  26928568.08640
  17481474.40900  24692990.31200  13612268.04840  24692994.68440
 -10448680.41200  23372412.04700  -7817316.38540  23372415.58640
  -7257334.57800  24848288.95300  -5545635.75440  24848293.38340
   3057305.79900  24602000.42200   2411118.46640  24602004.34840
   6724717.00100  23569803.16400   5240045.44140  23569806.22340
 96  9 11  3 47  0.0080000  0  6  3 14 18 19 22 29
  -1343197.19500  26922446.87500   -991185.12940  26922450.89440
  17608108.67800  24717088.24200  13710944.09040  24717092.68440
 -10464755.33100  23369353.28100  -7829842.28940  23369357.00840
  -7283380.90900  24843332.53100  -5565931.57140  24843337.19540
   3163278.63400  24622166.43700   2493694.70540  24622170.22340
   6785092.11500  23581292.02300   5287090.97640  23581295.07040
 96  9 11  3 47 30.0080000  0  6  3 14 18 19 22 29
  -1375171.85600  26916361.96900  -1016100.44140  26916365.33240
  17735040.27800  24741242.49200  13809851.80940  24741246.84040
 -10480585.19700  23366340.69500  -7842177.24040  23366344.24640
  -7309245.53000  24838410.75000  -5586085.80940  24838415.14440
   3269636.65000  24642405.57000   2576571.08440  24642409.32040
   6845773.82300  23592839.44500   5334375.40940  23592842.57440
 96  9 11  3 48  0.0080000  0  6  3 14 18 19 22 29
  -1406974.75300  26910310.41400  -1040881.90540  26910314.37540
  17862267.99900  24765453.05500  13908990.27440  24765457.73040
 -10496140.22000  23363380.72700  -7854298.02440  23363384.26640
  -7334930.70700  24833523.10200  -5606100.20140  24833527.77740
   3376365.10300  24662715.38300   2659736.11340  24662719.32040
   6906760.39800  23604444.89800   5381897.40440  23604447.89840
 96  9 11  3 48 30.0080000  0  6  3 14 18 19 22 29
  -1438598.72400  26904292.58600  -1065523.93840  26904296.61740
  17989789.55100  24789719.59400  14008357.70840  24789724.15240
 -10511418.18400  23360473.69500  -7866202.92840  23360477.29340
  -7360426.96000  24828671.09400  -5625967.38440  24828675.78140
   3483458.07300  24683094.32000   2743185.18040  24683098.04740
   6968061.32800  23616110.08600   5429664.34340  23616113.08640
 96  9 11  3 49  0.0080000  0  6  3 14 18 19 22 29
  -1470024.50800  26898312.60200  -1090011.55240  26898316.36340
  18117599.59700  24814040.90600  14107949.94240  24814045.73440
 -10526414.53700  23357619.84400  -7877888.38940  23357623.52340
  -7385738.43900  24823854.66400  -5645690.58340  24823859.21140
   3590919.12100  24703543.42200   2826921.05940  24703546.77340
   7029677.83500  23627835.33600   5477677.18640  23627838.34840
 96  9 11  3 49 30.0080000  0  6  3 14 18 19 22 29
  -1501245.31000  26892371.26600  -1114339.41840  26892374.68740
  18245692.27900  24838416.06200  14207762.41340  24838420.71540
 -10541126.27000  23354820.22700  -7889352.07240  23354823.69540
  -7410870.52400  24819072.10900  -5665274.01540  24819076.31640
   3698761.23900  24724065.39100   2910953.87940  24724068.97740
   7091608.26400  23639620.24200   5525934.64940  23639623.18440
 96  9 11  3 50  0.0090000  0  6  3 14 18 19 22 29
  -1532249.61900  26886470.98100  -1138498.61240  26886476.25540
  18374085.82700  24862848.61400  14307809.31940  24862853.25540
 -10555564.80400  23352072.38800  -7900602.86140  23352075.89240
  -7435828.44700  24814322.81700  -5684721.73440  24814327.20040
   3807000.68800  24744662.66100   2995296.31440  24744666.51740
   7153868.64300  23651467.98100   5574449.22440  23651471.08740
 96  9 11  3 50 30.0090000  0  6  3 14 18 19 22 29
  -1563049.90700  26880609.92700  -1162498.82040  26880613.89940
  18502747.02400  24887331.83300  14408064.78840  24887336.53240
 -10569767.24100  23349369.89500  -7911669.68840  23349373.45840
  -7460617.54600  24809605.35600  -5704037.89340  24809609.51740
   3915627.71000  24765333.59100   3079940.74840  24765337.37640
   7216449.57400  23663376.85600   5623213.58240  23663379.92740
 96  9 11  3 51  0.0090000  0  6  3 14 18 19 22 29
  -1593629.98500  26874791.16100  -1186327.45040  26874795.89540
  18631671.39300  24911865.70000  14508525.33040  24911870.38840
 -10583709.02800  23346716.92700  -7922533.40940  23346720.51340
  -7485231.03800  24804921.45000  -5723217.20940  24804926.11440
   4024665.98800  24786082.88800   3164905.64140  24786086.63840
   7279361.89900  23675348.46600   5672236.16840  23675351.52440
 96  9 11  3 51 30.0090000  0  6  3 14 18 19 22 29
  -1623992.72900  26869012.86400  -1209986.71640  26869017.61040
  18760842.68300  24936445.84100  14609178.27640  24936450.24740
 -10597396.18000  23344112.36400  -7933198.71340  23344115.97440
  -7509665.46300  24800271.93500  -5742256.99040  24800275.98940
   4134113.13400  24806909.98100   3250189.13540  24806913.76740
   7342601.66300  23687382.59900   5721513.90040  23687385.71640
 96  9 11  3 52  0.0090000  0  6  3 14 18 19 22 29
  -1654117.11000  26863280.41900  -1233460.24140  26863285.93840
  18890283.38500  24961077.84100  14710041.14940  24961081.60240
 -10610796.09900  23341562.56700  -7943640.20140  23341566.24740
  -7533875.38100  24795664.87200  -5761121.82440  24795669.30240
   4243990.63200  24827818.82500   3335807.96540  24827822.54040
   7406192.28200  23699483.66100   5771065.02240  23699486.68540
 96  9 11  3 52 30.0090000  0  6  3 14 18 19 22 29
  -1684023.07600  26857589.46600  -1256763.60040  26857593.00540
  19019953.03400  24985752.98900  14811082.42240  24985757.73540
 -10623904.71900  23339067.91100  -7953854.70440  23339071.48540
  -7557865.17700  24791099.77000  -5779815.15540  24791103.64940
   4354280.16300  24848806.37200   3421747.85440  24848809.91140
   7470099.31400  23711644.59100   5820862.70240  23711647.57940
 96  9 11  3 53  0.0090000  0  6  3 14 18 19 22 29
  -1713707.11000  26851940.56700  -1279893.97840  26851944.78640
  19149855.64700  25010472.77800  14912305.23240  25010477.58340
 -10636709.69000  23336631.18500  -7963832.59040  23336634.80640
  -7581644.82200  24786574.65300  -5798344.72240  24786579.23540
   4464957.89700  24869867.79400   3507990.24540  24869871.61440
   7534306.58200  23723862.96600   5870894.33940  23723866.04840
 96  9 11  3 53 30.0090000  0  6  3 14 18 19 22 29
  -1743159.07200  26846336.19200  -1302843.54840  26846340.52840
  19280031.83500  25035244.48100  15013741.21740  25035248.53640
 -10649204.38800  23334253.56700  -7973568.70740  23334257.09540
  -7605202.72600  24782091.63000  -5816701.52240  24782096.07140
   4576021.42900  24891002.35600   3594533.25340  24891005.79040
   7598824.53000  23736140.35600   5921168.06340  23736143.49740
 96  9 11  3 54  0.0090000  0  6  3 14 18 19 22 29
  -1772382.32900  26840775.37200  -1325614.90340  26840779.93140
  19410495.57100  25060070.99700  15115401.25540  25060075.69640
 -10661375.88000  23331937.31700  -7983052.98040  23331940.93840
  -7628549.87700  24777648.87200  -5834894.07840  24777653.00940
   4687461.26300  24912208.70000   3681369.48940  24912212.72040
   7663653.74700  23748476.91900   5971684.32940  23748480.01340
 96  9 11  3 54 30.0090000  0  6  3 14 18 19 22 29
  -1801376.28300  26835258.10600  -1348207.58140  26835261.20040
  19541248.24500  25084952.45000  15217286.45440  25084956.99740
 -10673237.31900  23329680.19200  -7992295.64840  23329683.76740
  -7651710.53600  24773241.24700  -5852941.31340  24773245.60640
   4799255.79300  24933482.23100   3768482.11640  24933486.01740
   7728801.05300  23760874.07500   6022448.45940  23760877.19240
 96  9 11  3 55  0.0090000  0  6  3 14 18 19 22 29
  -1830130.46500  26829786.53600  -1370613.42740  26829790.32140
  19672309.67900  25109892.56700  15319412.23140  25109897.07940
 -10684785.41200  23327482.56700  -8001294.15440  23327486.14240
  -7674688.43700  24768868.93500  -5870846.13240  24768873.38840
   4911405.25800  24954823.53600   3855871.30440  24954827.64940
   7794287.27100  23773335.57500   6073476.67440  23773338.75140
 96  9 11  3 55 30.0090000  0  6  3 14 18 19 22 29
  -1858656.93300  26824358.12200  -1392841.82440  26824362.16540
  19803655.05600  25134886.52000  15421759.27440  25134891.04440
 -10696039.82800  23325341.10600  -8010063.82640  23325344.61040
  -7697505.28400  24764527.02000  -5888625.47440  24764531.18140
   5023916.32400  24976233.69200   3943542.26140  24976237.71240
   7860106.27600  23785860.72400   6124764.20140  23785863.79440
 96  9 11  3 56  0.0090000  0  7  3 14 18 19 22 27 29
  -1886966.47800  26818970.68500  -1414901.17140  26818973.42740
  19935258.76700  25159930.17700  15524307.60540  25159934.61840
 -10707014.57900  23323252.66900  -8018615.57340  23323256.17340
  -7720162.80800  24760215.34900  -5906280.66440  24760219.81340
   5136786.45800  24997712.59900   4031493.01240  24997716.32540
    -17191.49610  27777737.97400
   7926253.33600  23798447.92700   6176307.36240  23798451.02040
 96  9 11  3 56 30.0090000  0  7  3 14 18 19 22 27 29
  -1915033.64300  26813629.81700  -1436771.67540  26813633.83740
  20067113.61000  25185021.25500  15627051.63840  25185025.88440
 -10717712.96500  23321216.88800  -8026951.97340  23321220.49740
  -7742634.38600  24755939.34100  -5923790.96240  24755943.22040
   5250026.96500  25019261.15300   4119732.37340  25019265.00940
    -64050.35700  27768822.35600
   7992739.04500  23811099.81000   6228114.40040  23811102.97440
 96  9 11  3 57  0.0090000  0  8  3 14 18 19 22 27 29 31
  -1942853.96400  26808335.68500  -1458449.84540  26808339.17740
  20199197.44700  25210155.98100  15729974.10240  25210160.43540
 -10728137.28900  23319233.33300  -8035074.81440  23319236.84940
  -7764914.36700  24751699.20800  -5941151.97140  24751703.49740
   5363635.49700  25040880.25500   4208258.49740  25040884.33340
   -110862.75100  27759914.28600
   8059544.39700  23823812.31700   6280170.50940  23823815.55240
    -32183.31210  27408619.87200
 96  9 11  3 57 30.0090000  0  8  3 14 18 19 22 27 29 31
  -1970430.79100  26803088.11400  -1479938.25740  26803092.68540
  20331498.25700  25235331.85600  15833065.62940  25235336.59140
 -10738302.21500  23317298.69200  -8042995.52640  23317302.25540
  -7786995.02100  24747497.45000  -5958357.67140  24747501.68140
   5477603.50500  25062567.57500   4297064.73640  25062571.26740
   -157619.57300  27751016.21600    -30357.58950  27751019.74340
   8126674.23400  23836586.75500   6332479.47340  23836589.82540
    -89043.49000  27397800.19200
 96  9 11  3 58  0.0090000  0  8  3 14 18 19 22 27 29 31
  -1997768.53200  26797885.56700  -1501240.36240  26797889.64540
  20463998.62700  25260546.05200  15936312.66440  25260550.55240
 -10748212.06200  23315412.96600  -8050717.48040  23315416.45840
  -7808867.51900  24743335.43500  -5975401.14840  24743339.82940
   5591893.16100  25084316.19200   4386121.62140  25084320.50540
   -204305.67500  27742132.54400    -66736.32940  27742137.93540
   8194119.22800  23849420.98100   6385034.00740  23849424.07540
   -145984.17400  27386963.72400    -28106.59750  27386967.55640
 96  9 11  3 58 30.0090000  0  8  3 14 18 19 22 27 29 31
  -2024839.36300  26792734.67700  -1522334.50440  26792739.41140
  20596712.53200  25285801.14500  16039726.08940  25285805.52840
 -10757831.60600  23313582.55200  -8058213.22140  23313586.10240
  -7830526.60200  24739213.95800  -5992278.32240  24739218.55240
   5706506.01000  25106126.33300   4475430.32440  25106129.72040
   -250903.87500  27733263.57500   -103046.54340  27733270.68140
   8261897.40100  23862318.99700   6437848.16740  23862322.10240
   -202977.19500  27376119.71600    -72516.70540  27376123.00940
 96  9 11  3 59  0.0090000  0  8  3 14 18 19 22 27 29 31
  -2051636.49100  26787634.99700  -1543215.36340  26787639.14540
  20729667.04000  25311100.67700  16143327.00140  25311105.04840
 -10767136.94600  23311811.64500  -8065464.13040  23311815.24340
  -7851975.69100  24735132.26300  -6008991.87040  24735136.55240
   5821454.77900  25128000.20800   4565000.79440  25128004.38040
   -297408.59900  27724414.79400   -139283.96540  27724421.49740
   8330024.21800  23875283.16900   6490933.99640  23875286.25140
   -260005.95600  27365266.49700   -116954.67640  27365270.51740
 96  9 11  3 59 30.0090000  0  8  3 14 18 19 22 27 29 31
  -2078176.45800  26782584.79400  -1563895.81840  26782589.24740
  20862850.22100  25336444.78600  16247106.10140  25336449.05240
 -10776145.15000  23310097.49700  -8072483.50340  23310101.03640
  -7873250.16500  24731083.60600  -6025569.38140  24731087.84940
   5936724.10200  25149935.02800   4654821.04640  25149939.07140
   -343842.51800  27715578.17700   -175466.14940  27715583.20440
   8398492.47900  23888312.29400   6544285.88640  23888315.24740
   -317083.88900  27354404.61400   -161430.98740  27354409.18540
 96  9 11  4  0  0.0090000  0  8  3 14 18 19 22 27 29 31
  -2104442.06100  26777586.47400  -1584362.51740  26777590.72740
  20996265.80600  25361832.80200  16351066.29040  25361837.29040
 -10784839.22800  23308443.03600  -8079258.10640  23308446.54040
  -7894356.64700  24727067.66900  -6042015.96640  24727072.07540
   6052326.42900  25171933.70800   4744900.78240  25171937.45840
   -390206.72500  27706755.73900   -211594.05140  27706760.13440
   8467298.06300  23901405.38000   6597900.62340  23901408.54440
   -374199.02200  27343536.15300   -205936.23540  27343541.95440
 96  9 11  4  0 30.0090000  0  8  3 14 18 19 22 27 29 31
  -2130428.23200  26772641.41100  -1604611.46940  26772645.64240
  21129924.11500  25387267.38800  16455215.63340  25387272.06340
 -10793207.94800  23306850.58300  -8085779.18540  23306854.12240
  -7915301.93200  24723081.83300  -6058336.95340  24723086.06340
   6168281.10800  25193999.24700   4835255.07240  25194003.10240
   -436512.52800  27697944.35600   -247676.47440  27697948.58740
   8536437.78400  23914562.22400   6651775.72640  23914565.27040
   -431343.28100  27332662.53600   -250464.25040  27332666.50940
 96  9 11  4  1  0.0090000  0  8  3 14 18 19 22 27 29 31
  -2156150.39100  26767746.38800  -1624654.66440  26767750.52440
  21263800.22200  25412743.41100  16559534.67440  25412748.15740
 -10801278.08400  23305314.80200  -8092067.59740  23305318.41140
  -7936096.66300  24719124.46600  -6074540.62240  24719128.96640
   6284583.09300  25216130.87200   4925880.00140  25216134.81040
   -482773.19200  27689140.96600   -283723.64840  27689146.14540
   8605892.17300  23927778.91100   6705896.02840  23927781.95840
   -488536.08400  27321779.09900   -295030.02440  27321781.85240
 96  9 11  4  1 30.0090000  0  8  3 14 18 19 22 27 29 31
  -2181603.86900  26762903.21600  -1644488.51640  26762907.83340
  21397881.79800  25438258.31700  16664013.82140  25438263.02840
 -10809049.53600  23303836.04400  -8098123.27540  23303839.48940
  -7956715.70000  24715200.59900  -6090607.39140  24715204.92340
   6401240.63700  25238330.02000   5016781.98340  25238333.66540
   -528979.83200  27680347.77000   -319728.79240  27680351.36840
   8675662.51000  23941055.81000   6760262.52040  23941058.92740
   -545766.78800  27310887.96600   -339625.36640  27310892.29040
 96  9 11  4  2  0.0090000  0  8  3 14 18 19 22 27 29 31
  -2206792.49700  26758109.47400  -1664116.00840  26758113.52840
  21532177.59800  25463813.47400  16768659.89640  25463818.19640
 -10816502.62200  23302417.81700  -8103930.86940  23302421.29840
  -7977131.94500  24711315.75500  -6106516.13040  24711320.16140
   6518253.66400  25260596.82500   5107960.96840  25260600.57540
   -575136.41700  27671564.69200   -355694.91440  27671568.12640
   8745748.67900  23954392.74700   6814875.11740  23954395.85240
   -603040.74500  27299989.78600   -384254.46340  27299993.57140
 96  9 11  4  2 30.0090000  0  8  3 14 18 19 22 27 29 31
  -2231739.86400  26753362.02800  -1683555.48340  26753364.79440
  21666669.79500  25489406.45000  16873459.00840  25489411.24340
 -10823654.72400  23301056.71600  -8109503.93440  23301060.31340
  -7997357.05500  24707466.80200  -6122275.93240  24707471.25540
   6635597.38300  25282926.88800   5199397.63440  25282930.28640
   -621263.23500  27662786.90300   -391637.82840  27662791.60240
   8816131.74300  23967786.14500   6869719.05940  23967789.22740
   -660381.68900  27289077.83300   -428935.67140  27289082.27440
 96  9 11  4  3  0.0090000  0  8  3 14 18 19 22 27 29 31
  -2256425.70300  26748664.83300  -1702791.17340  26748668.53640
  21801373.24600  25515040.38800  16978422.72940  25515044.91140
 -10830507.83600  23299752.72400  -8114844.01440  23299756.19240
  -8017378.09900  24703657.13000  -6137876.72640  24703661.43140
   6753285.19500  25305321.84100   5291102.41840  25305326.00140
   -667328.13300  27654020.52000   -427532.50140  27654025.12640
   8886837.80400  23981241.13800   6924814.68440  23981244.30240
   -717764.65500  27278158.54400   -473649.64340  27278162.17740
 96  9 11  4  3 30.0090000  0  8  3 14 18 19 22 27 29 31
  -2280842.96600  26744018.23900  -1721817.60240  26744022.58740
  21936297.86800  25540715.07500  17083558.78740  25540720.22040
 -10837056.09700  23298506.47400  -8119946.54840  23298509.98940
  -8037199.34800  24699884.99700  -6153321.83440  24699889.53240
   6871306.32900  25327780.54400   5383066.95640  25327783.90740
   -713339.71600  27645266.31700   -463385.66240  27645272.98540
   8957869.94200  23994758.15300   6980164.40340  23994761.24740
   -775187.05700  27267231.60600   -518394.36540  27267236.35240
 96  9 11  4  4  0.0090000  0  8  3 14 18 19 22 27 29 31
  -2304987.86300  26739423.95800  -1740631.76540  26739426.74740
  22071424.46600  25566428.60600  17188852.24640  25566433.09540
 -10843303.35200  23297317.70800  -8124814.53640  23297321.17740
  -8056865.90300  24696142.56700  -6168646.39540  24696147.10240
   6989627.85300  25350296.35600   5475265.53240  25350299.73140
   -759321.03400  27636515.54400   -499215.21940  27636521.57940
   9029215.94600  24008334.77800   7035758.69140  24008337.89540
   -832666.43700  27256292.46600   -563183.50140  27256297.81040
 96  9 11  4  4 30.0090000  0  8  3 14 18 19 22 27 29 31
  -2328816.22000  26734888.77000  -1759199.30240  26734892.86040
  22206761.24900  25592182.68500  17294309.47240  25592187.24340
 -10849229.78700  23296189.92700  -8129432.53540  23296193.40740
  -8076365.61100  24692431.96600  -6183840.97140  24692436.36040
   7108270.79300  25372873.38000   5567714.58440  25372877.49340
   -805238.70800  27627777.23100   -534995.13240  27627781.01740
   9100901.37900  24021975.98100   7091617.46940  24021979.09940
   -890149.34400  27245354.30200   -607975.35340  27245359.04840
 96  9 11  4  5  0.0090000  0  8  3 14 18 19 22 27 29 31
  -2352339.09800  26730413.37200  -1777528.78640  26730417.91940
  22342276.08700  25617970.13800  17399905.44640  25617974.84940
 -10854851.55200  23295120.12200  -8133813.12740  23295123.66140
  -8095718.12700  24688749.44200  -6198920.83040  24688753.57940
   7227199.00900  25395504.40300   5660385.92740  25395508.73940
   -851115.91600  27619047.32500   -570743.58240  27619054.11040
   9172915.66900  24035679.96600   7147732.50040  24035682.97740
   -947643.14500  27234414.13800   -652775.68840  27234417.80640
 96  9 11  4  5 30.0090000  0  8  3 14 18 19 22 27 29 31
  -2375530.33700  26726000.06700  -1795599.85340  26726003.92340
  22477988.44600  25643795.55200  17505655.34440  25643799.63040
 -10860112.61500  23294118.95800  -8137912.64940  23294122.48540
  -8114883.67800  24685102.23900  -6213855.00340  24685106.51740
   7346427.14500  25418193.08300   5753290.97540  25418197.11440
   -896948.81400  27610325.20000   -606457.46640  27610330.47440
   9245279.58900  24049450.31000   7204119.96840  24049453.40340
  -1005123.20100  27223475.55200   -697565.33040  27223480.94240
 96  9 11  4  6  0.0090000  0  8  3 14 18 19 22 27 29 31
  -2398404.99400  26721646.76300  -1813424.26940  26721650.32540
  22613885.51900  25669656.01300  17611549.15440  25669660.56040
 -10865009.79900  23293187.16100  -8141728.63140  23293190.61840
  -8133854.89100  24681491.95800  -6228637.74640  24681496.62240
   7465955.53000  25440938.64500   5846429.98040  25440942.57140
   -942729.77100  27601613.96600   -642130.85840  27601617.98540
   9317990.89400  24063286.77800   7260778.12440  24063289.94240
  -1062584.43900  27212541.52800   -742340.30540  27212546.23940
 96  9 11  4  6 30.0090000  0  8  3 14 18 19 22 27 29 31
  -2420967.80500  26717353.63800  -1831005.64640  26717357.58740
  22749988.75200  25695555.73100  17717603.61140  25695560.02040
 -10869539.50000  23292325.02000  -8145258.26640  23292328.51340
  -8152586.35000  24677927.90300  -6243233.67840  24677932.09940
   7585804.86100  25463744.66100   5939819.07540  25463748.62240
   -988433.30300  27592917.06000   -677743.98340  27592922.81340
   9391071.38500  24077193.44200   7317723.96040  24077196.64240
  -1120012.87400  27201613.11400   -787089.70440  27201616.89940
 96  9 11  4  7  0.0090000  0  8  3 14 18 19 22 27 29 31
  -2443242.50600  26713114.70800  -1848362.53340  26713118.28240
  22886302.99100  25721495.48100  17823822.51240  25721500.41540
 -10873717.20600  23291530.17700  -8148513.61640  23291533.72740
  -8171089.21500  24674406.56000  -6257651.46440  24674410.68540
   7705968.27500  25486611.15300   6033452.91240  25486614.92740
  -1034063.74800  27584233.66900   -713300.11340  27584240.73940
   9464508.93900  24091168.38800   7374948.03440  24091171.34140
  -1177441.68000  27190683.90300   -831839.42440  27190688.27440
 96  9 11  4  7 30.0090000  0  8  3 14 18 19 22 27 29 31
  -2465249.25500  26708927.07500  -1865510.64240  26708932.13840
  23022817.34800  25747472.89500  17930197.31940  25747477.92340
 -10877564.70000  23290798.00500  -8151511.65540  23290801.47440
  -8189384.16800  24670925.12200  -6271907.25540  24670929.32940
   7826437.22600  25509535.58300   6127324.83440  25509538.65340
  -1079634.62500  27575562.26300   -748809.81840  27575567.66540
   9538280.24200  24105206.44200   7432432.16840  24105209.47740
  -1234890.18000  27179751.79400   -876604.46240  27179757.25540
 96  9 11  4  8  0.0090000  0  8  3 14 18 19 22 27 29 31
  -2486987.45200  26704790.33300  -1882449.47040  26704794.68140
  23159512.37300  25773484.88000  18036712.93540  25773489.35640
 -10881105.58700  23290124.06000  -8154270.78340  23290127.48140
  -8207492.57700  24667479.07500  -6286017.67940  24667483.45840
   7947191.65800  25532514.59100   6221419.19340  25532517.94240
  -1125137.35800  27566903.05200   -784266.45440  27566908.58340
   9612373.67100  24119306.06700   7490167.31440  24119309.27840
  -1292365.21400  27168815.31700   -921390.18740  27168820.15740
 96  9 11  4  8 30.0090000  0  8  3 14 18 19 22 27 29 31
  -2508430.20400  26700709.82500  -1899158.08740  26700714.25540
  23296392.03300  25799532.47400  18143372.42740  25799536.91540
 -10884340.92500  23289508.30200  -8156791.81840  23289511.75940
  -8225421.28300  24664067.62200  -6299988.07440  24664072.00540
   8068220.27400  25555545.38000   6315727.21040  25555549.20040
  -1170570.67600  27558257.40300   -819668.95540  27558261.93840
   9686784.73700  24133465.92700   7548149.96840  24133469.04440
  -1349864.83800  27157873.45000   -966195.07740  27157879.02840
 96  9 11  4  9  0.0090000  0  8  3 14 18 19 22 27 29 31
  -2529560.93900  26696688.69200  -1915623.55840  26696693.19240
  23433455.31400  25825614.46600  18250174.96340  25825619.55240
 -10887247.50400  23288955.43500  -8159056.67840  23288958.92740
  -8243185.39000  24660687.30200  -6313830.21240  24660691.49740
   8189523.59700  25578629.10600   6410249.28840  25578633.00940
  -1215937.98800  27549624.21600   -855020.07940  27549628.39940
   9761510.30000  24147685.86400   7606377.68640  24147688.91140
  -1407377.48200  27146928.62200  -1011010.10340  27146932.60640
 96  9 11  4  9 30.0090000  0  8  3 14 18 19 22 27 29 31
  -2550354.95700  26692731.57500  -1931826.67140  26692736.39240
  23570685.12000  25851728.79400  18357107.27140  25851733.56340
 -10889818.37400  23288466.09900  -8161059.94440  23288469.60240
  -8260773.48000  24657340.52800  -6327535.19440  24657344.59540
   8311105.01700  25601765.18500   6504988.07240  25601769.66140
  -1261239.18200  27541003.66100   -890319.66740  27541009.48540
   9836557.84400  24161966.84100   7664856.28940  24161970.06340
  -1464893.95900  27135984.28600  -1055828.11640  27135989.09140
 96  9 11  4 10  0.0090000  0  8  3 14 18 19 22 27 29 31
  -2570800.41000  26688841.10600  -1947758.17840  26688845.00940
  23708078.99700  25877873.62200  18464167.41940  25877877.87640
 -10892042.61400  23288042.77800  -8162793.11240  23288046.30640
  -8278175.75500  24654028.82500  -6341095.39440  24654032.93840
   8432973.44500  25624955.78600   6599950.48340  25624959.86440
  -1306456.65500  27532398.45000   -925554.00440  27532403.50140
   9911932.28900  24176310.07500   7723589.63440  24176313.26340
  -1522416.77800  27125037.59900  -1100651.08840  27125041.18540
 96  9 11  4 10 30.0090000  0  8  3 14 18 19 22 27 29 31
  -2590896.59300  26685016.83300  -1963417.52140  26685021.38040
  23845645.50500  25904052.03600  18571362.10440  25904056.81740
 -10893916.00300  23287686.20800  -8164252.87940  23287689.74740
  -8295390.49900  24650752.71600  -6354509.46540  24650756.80640
   8555154.46300  25648205.92700   6695156.49040  25648209.71240
  -1351594.94300  27523808.85600   -960726.67740  27523813.93140
   9987642.10600  24190717.12200   7782584.29340  24190720.19240
  -1579938.50700  27114091.74700  -1145473.17940  27114096.37640
 96  9 11  4 11  0.0090000  0  8  3 14 18 19 22 27 29 31
  -2610655.24900  26681257.37200  -1978813.86440  26681261.64940
  23983365.17500  25930258.99700  18678676.13640  25930263.46240
 -10895448.00700  23287394.77800  -8165446.63640  23287398.29440
  -8312419.90700  24647512.04400  -6367779.12340  24647516.20440
   8677659.52800  25671517.80200   6790614.98540  25671521.51740
  -1396669.32700  27515231.16900   -995849.50640  27515236.40740
  10063688.81100  24205188.30200   7841841.46740  24205191.44240
  -1637453.06800  27103147.26300  -1190289.70840  27103151.66940
 96  9 11  4 11 30.0090000  0  8  3 14 18 19 22 27 29 31
  -2630082.21100  26677560.36400  -1993951.72740  26677564.68840
  24121210.80300  25956490.26300  18786088.31740  25956494.45840
 -10896658.43300  23287164.39500  -8166389.81340  23287167.84140
  -8329266.97100  24644306.27000  -6380906.67440  24644310.29040
   8800469.72600  25694887.70000   6886311.25240  25694892.13040
  -1441691.66700  27506664.13800  -1030931.82640  27506668.47440
  10140050.44800  24219719.62200   7901344.04940  24219722.71640
  -1694961.64500  27092204.21600  -1235101.57240  27092208.36440
 96  9 11  4 12  0.0090000  0  8  3 14 18 19 22 27 29 31
  -2649176.49000  26673926.46600  -2008830.37740  26673930.46240
  24259220.35600  25982752.78600  18893628.23140  25982757.72040
 -10897509.56600  23287002.58300  -8167053.02540  23287006.12240
  -8345914.55900  24641138.41100  -6393878.80140  24641142.89940
   8923596.48200  25718318.30200   6982254.17640  25718321.85240
  -1486651.59300  27498108.43500  -1065965.51740  27498113.07540
  10216742.96500  24234313.45800   7961104.45640  24234316.61040
  -1752421.86200  27081269.26300  -1279875.74540  27081272.87240
 96  9 11  4 12 30.0090000  0  8  3 14 18 19 22 27 29 31
  -2667944.01200  26670355.42700  -2023454.41140  26670359.65740
  24397402.04300  26009047.53600  19001302.27340  26009052.10640
 -10898005.98200  23286908.07500  -8167439.82740  23286911.48540
  -8362371.92900  24638006.78600  -6406702.67540  24638011.05240
   9047026.35900  25741806.11400   7078433.31440  25741810.23940
  -1531558.40200  27489563.56700  -1100957.76640  27489567.71640
  10293775.73800  24248972.59900   8021130.00440  24248975.62240
  -1809817.15200  27070346.84100  -1324599.32740  27070351.59940
 96  9 11  4 13  0.0090000  0  8  3 14 18 19 22 27 29 31
  -2686380.92400  26666846.96600  -2037820.81640  26666849.81340
  24535754.65600  26035375.07500  19109109.50640  26035380.03240
 -10898136.21700  23286883.19200  -8167541.29840  23286886.62640
  -8378627.96800  24634912.94200  -6419369.72540  24634917.27840
   9170728.13600  25765345.71600   7174824.31040  25765349.46640
  -1576406.13600  27481028.66100  -1135904.02240  27481034.40340
  10371152.82600  24263696.98100   8081423.84540  24263700.13440
  -1867153.49000  27059436.73100  -1369276.93840  27059441.23140
 96  9 11  4 13 30.0090000  0  8  3 14 18 19 22 27 29 31
  -2704491.67200  26663400.32500  -2051933.06540  26663404.50940
  24674283.83400  26061736.62200  19217054.31340  26061741.11040
 -10897895.23000  23286929.12200  -8167353.50040  23286932.59140
  -8394686.98000  24631857.21600  -6431883.21240  24631861.29440
   9294674.95400  25788931.81000   7271406.25440  25788935.09140
  -1621187.68700  27472507.50500  -1170798.68340  27472512.15740
  10448876.59800  24278487.35600   8141987.83540  24278490.36840
  -1924444.91800  27048534.98900  -1413919.60040  27048539.68840
 96  9 11  4 14  0.0090000  0  8  3 14 18 19 22 27 29 31
  -2722272.30700  26660016.66100  -2065788.08840  26660021.05640
  24813003.53600  26088134.06000  19325147.58640  26088138.18540
 -10897285.19600  23287045.06700  -8166878.13240  23287048.65340
  -8410550.83900  24628838.49700  -6444244.64540  24628842.83340
   9418862.90300  25812564.04400   7368176.09040  25812568.16940
  -1665893.75100  27463999.96600  -1205634.55940  27464004.02040
  10526977.08800  24293349.16100   8202845.36640  24293352.12640
  -1981698.74600  27037639.53600  -1458532.96040  27037643.43840
 96  9 11  4 14 30.0090000  0  8  3 14 18 19 22 27 29 31
  -2739713.56000  26656698.09100  -2079378.66340  26656702.26340
  24951870.73300  26114559.83300  19433355.79240  26114564.22740
 -10896330.90500  23287226.64500  -8166134.51340  23287230.11440
  -8426239.94700  24625852.88800  -6456469.91140  24625857.16540
   9543269.61400  25836237.91100   7465116.38440  25836241.23940
  -1710529.82200  27455505.46600  -1240415.85740  27455510.16540
  10605447.54900  24308281.71600   8263991.18740  24308284.96240
  -2038929.49500  27026748.60600  -1503128.28540  27026753.16540
 96  9 11  4 15  0.0100000  0  8  3 14 18 19 22 27 29 31
  -2756792.46900  26653448.04900  -2092686.88940  26653451.93940
  25090885.21000  26141013.43900  19541678.77340  26141018.71340
 -10895008.45700  23287478.14300  -8165104.01740  23287481.57640
  -8441736.60100  24622903.93200  -6468545.21440  24622908.13940
   9667918.75300  25859957.85300   7562245.59540  25859961.70940
  -1755095.03600  27447025.65800  -1275141.95940  27447031.24840
  10684281.75800  24323283.40800   8325420.45440  24323286.36140
  -2096111.80000  27015866.70500  -1547685.95540  27015871.00640
 96  9 11  4 15 30.0100000  0  8  3 14 18 19 22 27 29 31
  -2773520.53500  26650264.40800  -2105721.72440  26650268.79140
  25230028.18000  26167491.21300  19650101.86540  26167495.84240
 -10893328.64900  23287797.83000  -8163795.06840  23287801.31040
  -8457060.83900  24619987.80700  -6480486.16640  24619992.08440
   9792813.36500  25883724.60300   7659566.08640  25883728.31840
  -1799606.62200  27438554.88500  -1309826.29340  27438559.38540
  10763453.21000  24338349.05700   8387112.49640  24338352.18540
  -2153234.53100  27004996.95500  -1592197.12640  27005000.84640
 96  9 11  4 16  0.0100000  0  8  3 14 18 19 22 27 29 31
  -2789892.84100  26647149.15800  -2118479.34440  26647153.09640
  25369299.25600  26193993.80700  19758624.78240  26193998.67040
 -10891284.71700  23288186.95500  -8162202.38240  23288190.38940
  -8472217.36700  24617103.76000  -6492296.43540  24617108.17840
   9917962.45600  25907539.90800   7757084.85940  25907543.57640
  -1844074.46900  27430092.75200  -1344476.49940  27430098.02540
  10842947.03900  24353476.26000   8449055.73140  24353479.40040
  -2210280.13600  26994141.54100  -1636648.23040  26994143.39340
 96  9 11  4 16 30.0100000  0  8  3 14 18 19 22 27 29 31
  -2805896.29300  26644104.09600  -2130949.55040  26644108.35040
  25508701.93900  26220521.15000  19867250.25540  26220525.80340
 -10888862.51100  23288647.76000  -8160314.94540  23288651.32240
  -8487193.29800  24614253.68900  -6503965.95340  24614257.93240
  10043381.61300  25931406.29900   7854814.07640  25931410.40040
  -1888503.43900  27421638.57200  -1379096.42940  27421643.56440
  10922751.20600  24368662.49400   8511240.79640  24368665.50640
  -2267228.60500  26983304.84600  -1681023.65940  26983309.77940
 96  9 11  4 17  0.0100000  0  8  3 14 18 19 22 27 29 31
  -2821527.91200  26641129.01800  -2143130.01140  26641132.21740
  25648258.96100  26247078.40800  19975995.97040  26247083.20140
 -10886060.26000  23289181.15800  -8158131.34840  23289184.55740
  -8501971.45600  24611441.36900  -6515481.41240  24611445.67040
  10169081.03600  25955325.84600   7952761.68540  25955330.05340
  -1932882.19000  27413193.56400  -1413677.20940  27413197.87740
  11002879.25000  24383910.38500   8573678.22940  24383913.42040
  -2324088.98500  26972484.51800  -1725330.40440  26972487.40040
 96  9 11  4 17 30.0100000  0  8  3 14 18 19 22 27 29 31
  -2836810.25100  26638220.99400  -2155038.32340  26638225.62340
  25787949.95000  26273660.08800  20084846.10840  26273665.19740
 -10882909.22700  23289780.84600  -8155675.98740  23289784.32640
  -8516568.90900  24608663.89300  -6526856.00040  24608668.27540
  10295023.30400  25979291.81400   8050898.52540  25979295.37740
  -1977218.95600  27404756.49400  -1448225.31740  27404762.23640
  11083332.58800  24399220.33000   8636369.13740  24399223.33040
  -2380902.83100  26961673.43200  -1769600.92440  26961677.63940
 96  9 11  4 18  0.0100000  0  8  3 14 18 19 22 27 29 31
  -2851730.10600  26635381.82200  -2166664.16740  26635385.87740
  25927761.29800  26300265.72800  20193790.01740  26300270.46340
 -10879415.23500  23290445.61900  -8152953.38740  23290449.14640
  -8530978.13800  24605921.70500  -6538083.96440  24605926.07640
  10421203.80000  26003303.05700   8149220.99940  26003307.58040
  -2021496.62200  27396330.35300  -1482727.37540  27396334.92440
  11164126.24500  24414594.68900   8699325.22640  24414597.86540
  -2437671.86500  26950870.83000  -1813836.53140  26950874.74440
 96  9 11  4 18 30.0100000  0  8  3 14 18 19 22 27 29 31
  -2866292.80900  26632610.56400  -2178011.69840  26632613.27140
  26067682.61000  26326891.34600  20302819.62140  26326896.85340
 -10875590.63500  23291173.34600  -8149973.17540  23291176.80340
  -8545192.09000  24603217.02500  -6549159.77240  24603221.20940
  10547618.65600  26027359.25200   8247726.09840  26027363.31840
  -2065707.27000  27387917.78300  -1517177.17540  27387922.74040
  11245269.62100  24430035.61900   8762553.82340  24430038.66640
  -2494419.32900  26940071.17400  -1858055.30440  26940073.81040
 96  9 11  4 19  0.0100000  0  8  3 14 18 19 22 27 29 31
  -2880502.27600  26629906.26000  -2189083.99540  26629909.95140
  26207710.40700  26353538.25200  20411932.18440  26353542.31840
 -10871427.00000  23291965.76800  -8146728.77740  23291969.11940
  -8559212.12300  24600549.04900  -6560084.46040  24600553.46740
  10674276.57100  26051461.40000   8346420.58140  26051465.58440
  -2109838.10800  27379520.12700  -1551564.79640  27379525.18940
  11326766.41300  24445544.17400   8826057.80240  24445547.17440
  -2551139.37100  26929278.12700  -1902252.71740  26929282.61540
 96  9 11  4 19 30.0100000  0  8  3 14 18 19 22 27 29 31
  -2894354.82000  26627270.44700
  26347840.98100  26380203.51000  20521124.86040  26380208.61940
 -10866903.79000  23292826.30700  -8143204.22440  23292829.72840
  -8573041.27100  24597917.33000  -6570860.39940  24597921.54940
  10801179.95200  26075610.52500   8445306.34340  26075614.94340
  -2153893.72900  27371135.32200  -1585893.82740  27371140.73640
  11408602.64000  24461117.04100   8889826.27440  24461120.18240
  -2607804.85400  26918495.37700  -1946407.64040  26918499.23240
 96  9 11  4 20  0.0100000  0  8  3 14 18 19 22 27 29 31
  -2907849.75500  26624702.47100     -4873.66850  26624706.57240
  26488077.26200  26406890.00200  20630399.89140  26406894.83040
 -10862006.97100  23293758.28300  -8139388.50140  23293761.83440
  -8586685.32400  24595320.85300  -6581492.11640  24595324.96740
  10928328.84100  26099806.20500   8544383.40840  26099810.41240
  -2197882.43300  27362765.34600  -1620170.71140  27362770.33840
  11490765.18600  24476752.00200   8953849.02540  24476755.01440
  -2664403.13300  26907724.62700  -1990510.18540  26907728.37740
 96  9 11  4 20 30.0100000  0  8  3 14 18 19 22 27 29 31
  -2920987.80500  26622202.43200    -15111.10340  26622206.62740
  26628421.17300  26433596.65000  20739758.75940  26433601.52540
 -10856720.80100  23294764.25200  -8135269.40640  23294767.68540
  -8600141.28300  24592760.47100  -6591977.27640  24592764.61940
  11055707.66500  26124045.31400   8643639.63540  26124048.79540
  -2241819.68900  27354404.47800  -1654407.46640  27354409.03740
  11573249.68600  24492448.25200   9018122.66440  24492451.40440
  -2720928.57100  26896968.56400  -2034555.94140  26896972.88940
 96  9 11  4 21  0.0100000  0  8  3 14 18 19 22 27 29 31
  -2933770.18800  26619769.94700    -25071.39140  26619773.20540
  26768864.07500  26460321.65000  20849194.79040  26460326.86540
 -10851034.50600  23295846.25200  -8130838.53840  23295849.62740
  -8613427.92000  24590231.92400  -6602330.48040  24590236.09640
  11183306.79300  26148326.76000   8743067.54340  26148330.59240
  -2285719.92800  27346050.74400  -1688615.44640  27346055.39640
  11656054.90600  24508205.51000   9082646.21240  24508208.75640
  -2777366.25500  26886228.21300  -2078533.36540  26886231.85740
 96  9 11  4 21 30.0100000  0  8  3 14 18 19 22 27 29 31
  -2946176.68100  26617408.86900    -34738.75740  26617413.58040
  26909409.85400  26487066.49400  20958710.96940  26487071.89640
 -10844941.58300  23297005.82200  -8126090.80040  23297009.16240
  -8626529.48400  24587738.65000  -6612539.51640  24587743.04540
  11311107.79200  26172646.35300   8842652.74340  26172649.67040
  -2329573.46700  27337705.43200  -1722786.98940  27337711.38540
  11739194.52600  24524026.52500   9147430.33240  24524029.51440
  -2833710.92700  26875506.32200  -2122438.26340  26875509.70940
 96  9 11  4 22  0.0100000  0  8  3 14 18 19 22 27 29 31
  -2958194.73100  26615121.75200    -44103.46640  26615125.64340
  27050049.83000  26513829.76800  21068300.54840  26513834.78340
 -10838452.74400  23298240.58000  -8121034.55640  23298243.92040
  -8639444.63900  24585281.15800  -6622603.25140  24585285.65840
  11439109.77000  26197004.42400   8942394.53740  26197008.27940
  -2373373.45900  27329370.25200  -1756916.82640  27329375.59640
  11822681.61700  24539913.66600   9212485.20340  24539916.81840
  -2889961.68800  26864802.20500  -2166270.00640  26864805.58040
 96  9 11  4 22 30.0100000  0  8  3 14 18 19 22 27 29 31
  -2969848.82300  26612904.33800    -53184.55740  26612908.40440
  27190747.24500  26540603.64300  21177934.89840  26540609.43240
 -10831605.75000  23299543.36900  -8115699.22040  23299546.85040
  -8652212.35400  24582851.50200  -6632552.11440  24582855.73240
  11567278.37000  26221393.94700   9042266.20040  26221397.75640
  -2417145.25400  27321040.98600  -1791024.67440  27321045.93240
  11906486.19900  24555861.09600   9277787.47140  24555863.89640
  -2946146.84400  26854110.40800  -2210050.65140  26854113.50240
 96  9 11  4 23  0.0100000  0  8  3 14 18 19 22 27 29 31
  -2981119.34500  26610759.45500    -61966.75540  26610762.94740
  27331527.51200  26567393.26000  21287633.79440  26567398.04140
 -10824388.55300  23300916.81400  -8110075.43340  23300920.29540
  -8664822.96800  24580451.88500  -6642378.57940  24580455.91640
  11695646.10600  26245821.60300   9142293.00640  26245825.11940
  -2460855.14600  27312723.29100  -1825084.30740  27312727.51040
  11990622.05800  24571871.61900   9343347.88140  24571874.66640
  -3002235.95000  26843437.04900  -2253756.40440  26843441.12740
 96  9 11  4 23 30.0100000  0  8  3 14 18 19 22 27 29 31
  -2991985.64600  26608691.99400    -70433.99140  26608696.35340
  27472412.69300  26594202.87700  21397414.45040  26594206.80340
 -10816800.56300  23302360.72100  -8104162.71640  23302364.16640
  -8677256.03700  24578086.20500  -6652066.65340  24578090.23640
  11824221.73300  26270288.76000   9242481.81340  26270292.13540
  -2504478.85800  27304421.46300  -1859076.76140  27304426.90040
  12075091.04200  24587945.68900   9409167.86040  24587948.83040
  -3058205.04900  26832787.00200  -2297368.66640  26832791.67840
 96  9 11  4 24  0.0100000  0  8  3 14 18 19 22 27 29 31
  -3002463.01100  26606697.83800    -78598.13940  26606700.99040
  27613403.77900  26621032.47800  21507277.64240  26621036.93240
 -10808842.18500  23303875.28300  -8097961.37140  23303878.67040
  -8689537.48300  24575748.82200  -6661636.60840  24575752.88940
  11953007.76500  26294795.67400   9342834.55640  26294800.20940
  -2548032.91000  27296133.92400  -1893014.93840  27296138.90440
  12159886.08100  24604081.67400   9475241.90240  24604084.77940
  -3114065.14900  26822156.96300  -2340896.00540  26822161.34640
 96  9 11  4 24 30.0100000  0  8  3 14 18 19 22 27 29 31
  -3012550.38700  26604778.74400    -86458.41640  26604782.55340
  27754526.78400  26647887.49400  21617243.60240  26647891.40840
 -10800492.58100  23305464.13500  -8091455.20140  23305467.49840
  -8701649.81000  24573443.94700  -6671074.77940  24573448.11940
  12082021.13800  26319346.61100   9443364.46640  26319350.24440
  -2591508.92800  27287860.18900  -1926892.31240  27287864.95940
  12245017.15300  24620281.45500   9541577.78540  24620284.52540
  -3169807.05600  26811549.33800  -2384331.22240  26811554.17840
 96  9 11  4 25  0.0100000  0  8  3 14 18 19 22 27 29 31
  -3022254.12700  26602931.74400    -94019.76140  26602935.95140
  27895766.79300  26674764.21300  21727300.75340  26674769.13540
 -10791758.99700  23307126.04100  -8084649.80740  23307129.54540
  -8713583.27000  24571173.14300  -6680373.58040  24571177.32640
  12211265.77700  26343941.03300   9544074.56940  26343944.35040
  -2634914.56900  27279600.46300  -1960714.85540  27279604.62340
  12330486.50700  24636545.65800   9608177.25940  24636548.78740
  -3225434.97100  26800963.48600  -2427677.63240  26800968.11540
 96  9 11  4 25 30.0100000  0  8  3 14 18 19 22 27 29 31
  -3031549.66100  26601163.15800   -101263.01240  26601166.26440
  28037132.36400  26701665.41600  21837455.75340  26701669.93940
 -10782625.52200  23308864.04100  -8077532.81440  23308867.45140
  -8725314.86400  24568940.76000  -6689515.04540  24568945.04940
  12340742.88500  26368579.29900   9644965.85540  26368582.28740
  -2678238.10500  27271356.11100  -1994473.42540  27271359.92040
  12416318.32300  24652878.91600   9675059.17040  24652882.10340
  -3280940.54700  26790401.20500  -2470928.72040  26790404.26440
 96  9 11  4 26  0.0100000  0  8  3 14 18 19 22 27 29 31
  -3040441.44100  26599470.79900   -108191.65240  26599474.18540
  28178599.88400  26728585.54900  21947690.17540  26728588.52540
 -10773095.30100  23310677.58000  -8070106.65940  23310681.00240
  -8736843.89600  24566746.53300  -6698498.68640  24566750.78740
  12470464.42900  26393264.13500   9746047.56640  26393267.99040
  -2721499.98400  27263123.45500  -2028183.94640  27263127.70940
  12502513.53200  24669281.54100   9742224.25140  24669284.71740
  -3336340.39400  26779859.08800  -2514097.40640  26779862.65040
 96  9 11  4 26 30.0100000  0  8  3 14 18 19 22 27 29 31
  -3048933.82400  26597854.72800   -114809.07140  26597858.36140
  28320134.54100  26755519.22100  22057976.90840  26755524.23640
 -10763177.72700  23312565.00200  -8062378.66440  23312568.31840
  -8748165.46800  24564592.22800  -6707320.68540  24564596.37740
  12600426.75600  26417996.03300   9847316.91940  26417999.52540
  -2764710.69600  27254901.22100  -2061854.59540  27254905.32240
  12589052.96000  24685749.45500   9809657.55240  24685752.66640
  -3391627.03800  26769338.76000  -2557177.87840  26769343.02540
 96  9 11  4 27  0.0100000  0  8  3 14 18 19 22 27 29 31
  -3057014.01300  26596317.33800   -121105.31840  26596321.55740
  28461720.89000  26782462.03300  22168303.89940  26782465.30340
 -10752871.43400  23314526.08800  -8054347.77740  23314529.49840
  -8759289.47200  24562475.40000  -6715988.75040  24562479.65440
  12730612.51500  26442769.15800   9948760.37140  26442772.55740
  -2807874.58200  27246686.76800  -2095488.75740  27246691.80740
  12675926.99800  24702281.00200   9877351.59240  24702284.06040
  -3446794.73300  26758840.68200  -2600165.68640  26758845.01840
 96  9 11  4 27 30.0100000  0  8  3 14 18 19 22 27 29 31
  -3064677.73700  26594858.86900   -127077.02940  26594863.33440
  28603359.31100  26809414.64300  22278671.48440  26809419.11940
 -10742172.83300  23316561.95500  -8046011.20340  23316565.36540
  -8770233.10900  24560392.92400  -6724516.24540  24560397.17840
  12861003.18800  26467581.58800  10050363.49340  26467585.60740
  -2851011.65200  27238478.74400  -2129102.03940  27238481.92040
  12763123.11500  24718873.78300   9945296.59840  24718876.78340
  -3501846.55600  26748364.40000  -2643063.17140  26748368.57240
 96  9 11  4 28  0.0100000  0  8  3 14 18 19 22 27 29 31
  -3071920.36800  26593480.68200   -132720.60840  26593485.45140
  28745051.38400  26836378.23600  22389080.89540  26836382.64340
 -10731054.27500  23318677.79100  -8037347.38840  23318681.28340
  -8780991.57200  24558345.88500  -6732899.45040  24558350.15040
  12991605.16200  26492434.03300  10152131.28740  26492437.98240
  -2894116.10300  27230275.61100  -2162689.86740  27230280.40440
  12850650.40800  24735529.76800  10013499.66840  24735532.94340
  -3556760.98900  26737914.67400  -2685853.60640  26737919.12740
 96  9 11  4 28 30.0100000  0  8  3 14 18 19 22 27 29 31
  -3078755.99000  26592179.99400   -138047.05640  26592184.00240
  28886782.20300  26863348.33000  22499520.54140  26863353.43940
 -10719527.34200  23320871.18200  -8028365.36140  23320874.62740
  -8791590.37000  24556328.67400  -6741158.22540  24556332.84640
  13122360.05600  26517316.19700  10254018.20740  26517319.94740
  -2937188.29100  27222079.51800  -2196252.59140  27222083.93540
  12938479.99500  24752243.25200  10081938.29240  24752246.43940
  -3611549.83600  26727488.53300  -2728546.22940  26727492.04940
 96  9 11  4 29  0.0100000  0  8  3 14 18 19 22 27 29 31
  -3085150.89900  26590962.93200   -143030.09340  26590966.72840
  29028582.14400  26890331.73600  22610013.93840  26890336.36540
 -10707575.91200  23323145.54900  -8019052.56040  23323148.90040
  -8802013.87700  24554345.18200  -6749280.43040  24554349.24840
  13253264.24300  26542226.12700  10356021.47140  26542230.66240
  -2980196.72200  27213895.19700  -2229765.60740  27213900.37740
  13026651.46300  24769021.73600  10150643.31440  24769024.97140
  -3666185.29800  26717092.26800  -2771119.27340  26717095.95940
 96  9 11  4 29 30.0100000  0  8  3 14 18 19 22 27 29 31
  -3091156.51600  26589820.08000   -147709.78740  26589824.11140
  29170408.23200  26917320.75200  22720527.76640  26917325.66240
 -10695241.22400  23325492.70500  -8009441.10440  23325496.15040
  -8812293.70100  24552388.97100  -6757290.66640  24552393.04940
  13384279.88400  26567157.81400  10458111.56740  26567161.35340
  -3023161.21200  27205719.62700  -2263244.38440  27205723.96340
  13115140.38100  24785860.69700  10219595.70340  24785863.94340
  -3720710.40700  26706715.70500  -2813606.36740  26706719.67840
 96  9 11  4 30  0.0100000  0  8  3 14 18 19 22 27 29 31
  -3096762.48300  26588753.06400   -152078.03440  26588757.21340
  29312271.29900  26944316.30700  22831070.41840  26944321.05340
 -10682513.71400  23327914.68200  -7999523.57140  23327918.17440
  -8822409.01700  24550463.97800  -6765172.70340  24550467.98640
  13515416.09900  26592112.40800  10560295.64540  26592116.24040
  -3066052.38800  27197557.68200  -2296666.03640  27197563.07240
  13203960.08900  24802762.44700  10288805.84540  24802765.52940
  -3775109.96200  26696364.29100  -2855995.59540  26696368.36940
 96  9 11  4 30 30.0100000  0  8  3 14 18 19 22 27 29 31
  -3101957.65800  26587764.43200   -156126.20940  26587768.61540
  29454184.48600  26971321.52500  22941652.09540  26971325.67440
 -10669402.03200  23330409.84600  -7989306.67440  23330413.29140
  -8832351.11800  24548572.21300  -6772919.78840  24548576.36140
  13646682.14900  26617091.38500  10662580.87740  26617095.32240
  -3108867.83400  27189410.24400  -2330028.69840  27189413.74840
  13293123.28800  24819729.56400  10358283.64140  24819732.63540
  -3829379.70700  26686036.81400  -2898283.67840  26686041.97140
 96  9 11  4 31  0.0100000  0  8  3 14 18 19 22 27 29 31
  -3106742.40600  26586854.15000   -159854.57640  26586857.95940
  29596163.44200  26998339.14300  23052285.04140  26998343.72540
 -10655904.72100  23332978.18900  -7978789.29340  23332981.67040
  -8842118.53300  24546713.56400  -6780530.75340  24546717.68940
  13778109.20200  26642101.22800  10764991.55340  26642105.44740
  -3151617.07100  27181275.54100  -2363339.76040  27181280.68540
  13382644.51400  24836764.79900  10428040.41940  24836767.84640
  -3883513.93200  26675735.32200  -2940466.19840  26675739.61140
 96  9 11  4 31 30.0100000  0  8  3 14 18 19 22 27 29 31
  -3111099.63300  26586024.83000   -163249.81640  26586029.20140
  29738231.66500  27025373.90800  23162987.55240  27025378.05740
 -10641991.70200  23335625.64300  -7967947.98040  23335629.18240
  -8851683.84100  24544893.35300  -6787984.22340  24544897.45540
  13909733.66400  26667148.54900  10867556.08840  26667152.42840
  -3194277.17200  27173156.99400  -2396581.37140  27173160.40440
  13472523.49200  24853868.15000  10498075.96740  24853871.23240
  -3937492.90600  26665463.68200  -2982527.70440  26665467.23240
 96  9 11  4 32  0.0100000  0  8  3 14 18 19 22 27 29 31
  -3115022.98600  26585277.97100   -166306.95340  26585283.01040
  29880388.53500  27052425.51000  23273759.12840  27052429.71740
 -10627653.73800  23338354.17400  -7956775.55640  23338357.57240
  -8861046.44000  24543111.60300  -6795279.71740  24543115.62340
  14041554.61000  26692233.48600  10970273.68840  26692237.02540
  -3236868.42100  27165052.68900  -2429769.30840  27165056.08840
  13562746.26800  24871037.18200  10568379.41140  24871040.32240
  -3991303.16900  26655223.15800  -3024457.74440  26655226.81440
 96  9 11  4 32 30.0100000  0  8  3 14 18 19 22 27 29 31
  -3118540.63300  26584609.01800   -169047.95840  26584611.98240
  30022595.90400  27079486.35300  23384570.07340  27079491.55740
 -10612907.51200  23341160.34600  -7945284.98640  23341163.76840
  -8870228.99100  24541364.19700  -6802434.92240  24541368.42840
  14173558.91400  26717352.51800  11073134.19040  26717355.81040
  -3279414.73800  27156955.61100  -2462922.22240  27156958.86940
  13653278.08600  24888265.00200  10638923.67040  24888268.18940
  -4044961.20500  26645013.02500  -3066269.19140  26645017.45540
 96  9 11  4 33  0.0100000  0  8  3 14 18 19 22 27 29 31
  -3121624.21600  26584022.35300   -171450.74240  26584026.81840
  30164865.52600  27106560.18200  23495429.50540  27106565.15040
 -10597719.14900  23344050.62700  -7933449.89740  23344053.96740
  -8879204.89100  24539656.15800  -6809429.10940  24539660.38940
  14305773.09700  26742512.58800  11176158.21440  26742515.61140
  -3321877.53800  27148875.34600  -2496010.12240  27148878.99040
  13744138.21100  24905555.06400  10709723.75040  24905558.05340
  -4098443.35400  26634835.26000  -3107943.54940  26634838.09640
 96  9 11  4 33 30.0100000  0  8  3 14 18 19 22 27 29 31
  -3124275.83200  26583517.40800   -173516.91340  26583521.32240
  30307169.17300  27133639.26000  23606315.45740  27133643.79540
 -10582086.98600  23347025.22100  -7921268.98540  23347028.59640
  -8887976.72200  24537986.90000  -6816264.26440  24537990.92040
  14438185.68000  26767709.44700  11279336.84040  26767713.20940
  -3364260.88600  27140809.78300  -2529036.06440  27140813.86140
  13835326.00200  24922907.76800  10780779.16640  24922910.61540
  -4151746.16700  26624692.10300  -3149478.19140  26624695.67840
 96  9 11  4 34  0.0100000  0  8  3 14 18 19 22 27 29 31
  -3126497.52700  26583094.49400   -175248.09840  26583098.09240
  30449481.78200  27160719.91600  23717208.39440  27160724.35740
 -10566029.97100  23350080.72800  -7908757.02240  23350084.10340
  -8896574.86000  24536350.71300  -6822964.09140  24536354.75640
  14570773.74800  26792940.01800  11382652.22640  26792943.35740
  -3406589.58000  27132755.47100  -2562019.42840  27132758.74040
  13926841.94100  24940322.36900  10852090.28040  24940325.48640
  -4204879.99300  26614582.01000  -3190881.16640  26614585.81840
 96  9 11  4 34 30.0100000  0  8  3 14 18 19 22 27 29 31
  -3128278.61200  26582755.76800   -176635.94740  26582759.74040
  30591799.85100  27187802.04900  23828105.57740  27187806.99440
 -10549559.74900  23353215.10300  -7895923.08040  23353218.50240
  -8905011.05700  24534745.23600  -6829537.72440  24534749.45540
  14703525.40300  26818202.01800  11486095.06040  26818206.15440
  -3448860.54900  27124711.52500  -2594957.86140  27124715.87340
  14018695.13800  24957801.27500  10923664.19040  24957804.47540
  -4257845.88700  26604502.83000  -3232153.25540  26604508.11540
 96  9 11  4 35  0.0100000  0  8  3 14 18 19 22 27 29 31
  -3129587.79300  26582506.58000   -177656.06240  26582510.68240
  30734157.20700  27214891.97100  23939033.36440  27214897.49040
 -10532653.05000  23356432.26800  -7882749.02240  23356435.60740
  -8913272.84900  24533173.07200  -6835975.46340  24533177.10340
  14836440.14900  26843494.78300  11589664.98340  26843497.97140
  -3491054.12200  27116681.76800  -2627835.93140  27116687.12340
  14110926.40200  24975352.54900  10995532.70640  24975355.72540
  -4310607.33100  26594462.70500  -3273266.07940  26594466.31440
 96  9 11  4 35 30.0100000  0  8  3 14 18 19 22 27 29 31
  -3130441.01300  26582344.34600   -178320.90040  26582348.04940
  30876537.53500  27241986.54900  24049979.11040  27241992.56040
 -10515328.55500  23359728.86900  -7869249.41240  23359732.31440
  -8921379.65000  24531630.36900  -6842292.41440  24531634.43540
  14969485.05800  26868812.26000  11693336.34640  26868816.70140
  -3533194.39100  27108662.99400  -2660672.46940  27108667.26040
  14203496.48900  24992967.87700  11067665.23240  24992971.07640
  -4363173.56600  26584459.08800  -3314226.74440  26584461.87740
 96  9 11  4 36  0.0100000  0  8  3 14 18 19 22 27 29 31
  -3130818.67800  26582272.71300   -178615.17740  26582276.54540
  31018963.82300  27269089.05700  24160960.61240  27269094.58840
 -10497572.32000  23363107.77500  -7855413.37840  23363111.35040
  -8929306.74000  24530121.85300  -6848469.35840  24530126.06040
  15102660.51700  26894154.80700  11797109.41840  26894158.92040
  -3575259.58400  27100659.62700  -2693450.52740  27100663.44740
  14296405.64300  25010648.17400  11140061.97140  25010651.61940
  -4415534.26700  26574494.79900  -3355027.27940  26574498.61940
 96  9 11  4 36 30.0100000  0  8  3 14 18 19 22 27 29 31
  -3130745.33600  26582286.33800   -178558.00440  26582290.38140
  31161430.05900  27296199.51800  24271973.26740  27296204.08840
 -10479386.08700  23366568.47100  -7841242.28640  23366571.85740
  -8937035.70100  24528651.19700  -6854491.89640  24528655.32240
  15235961.10400  26919521.60300  11900979.99340  26919525.11940
  -3617251.95500  27092667.30700  -2726171.83040  27092671.84240
  14389636.89100  25028389.36900  11212709.69340  25028392.47540
  -4467699.48800  26564568.29100  -3395675.48640  26564572.04140
 96  9 11  4 37  0.0100000  0  8  3 14 18 19 22 27 29 31
  -3130242.08100  26582382.45500   -178165.84940  26582386.96740
  31303916.06500  27323314.42400  24383001.29840  27323319.53340
 -10460783.67400  23370108.47800  -7826746.89040  23370111.91240
  -8944580.67700  24527215.46300  -6860371.06740  24527219.45940
  15369374.36600  26944908.75200  12004938.37640  26944913.47540
  -3659180.61800  27084688.37700  -2758843.48740  27084692.86540
  14483160.98900  25046186.43200  11285585.60840  25046189.63140
  -4519689.90800  26554674.96300  -3436187.49240  26554679.34640
 96  9 11  4 37 30.0100000  0  8  3 14 18 19 22 27 29 31
  -3129323.88900  26582556.82200   -177450.35640  26582561.31040
  31446391.57500  27350426.08800  24494021.18440  27350430.68240
 -10441790.75200  23373722.70500  -7811947.20840  23373726.20940
  -8951957.25400  24525811.77500  -6866119.02240  24525815.71340
  15502894.27400  26970317.20500  12108979.85440  26970321.14340
  -3701070.92800  27076717.51800  -2791485.25640  27076721.11540
  14576956.11600  25064035.02500  11358672.71540  25064038.36540
  -4571534.35800  26544809.02500  -3476585.73840  26544813.30340
 96  9 11  4 38  0.0100000  0  8  3 14 18 19 22 27 29 31
  -3127977.61600  26582813.26000   -176401.29140  26582817.32640
  31588866.48500  27377537.70500  24605040.58740  27377542.96740
 -10422391.66900  23377414.11100  -7796831.03740  23377417.48640
  -8959158.06300  24524441.34600  -6871730.02540  24524445.33040
  15636545.62100  26995749.54900  12213123.76240  26995753.35740
  -3742908.77100  27068755.43900  -2824086.14340  27068760.57240
  14671070.89800  25081944.42400  11432008.89940  25081947.76440
  -4623210.01800  26534975.82200  -3516852.48240  26534980.67440
 96  9 11  4 38 30.0100000  0  8  3 14 18 19 22 27 29 31
  -3126204.49500  26583150.51000   -175019.62640  26583154.41240
  31731336.23000  27404649.29900  24716055.94440  27404654.61940
 -10402589.80500  23381182.23600  -7781401.01640  23381185.62340
  -8966198.63700  24523101.50200  -6877216.16840  24523105.49840
  15770334.93700  27021208.93900  12317375.14840  27021213.39340
  -3784697.44000  27060803.48600  -2856648.70940  27060808.17440
  14765523.32900  25099918.17400  11505608.18840  25099921.50240
  -4674697.65500  26525177.86100  -3556972.69340  26525181.26040
 96  9 11  4 39  0.0100000  0  8  3 14 18 19 22 27 29 31
  -3123983.80000  26583573.18900   -173289.19540  26583576.70540
  31873809.42600  27431760.76000  24827074.01640  27431766.10340
 -10382376.49600  23385028.90000  -7765650.38740  23385032.21740
  -8973089.53400  24521790.04900  -6882585.68040  24521794.04540
  15904270.24800  27046696.29900  12421740.33040  27046700.24840
  -3826435.08000  27052860.93900  -2889171.51440  27052866.71740
  14860318.93700  25117957.22800  11579474.88740  25117960.33440
  -4725980.07200  26515419.20500  -3596933.01440  26515422.90840
 96  9 11  4 39 30.0100000  0  8  3 14 18 19 22 27 29 31
  -3121321.79400  26584079.29900   -171214.90140  26584082.94340
  32016279.14900  27458871.83800  24938089.37640  27458875.22540
 -10361746.83600  23388954.58000  -7749575.31640  23388958.01440
  -8979824.37000  24520508.64300  -6887833.57740  24520512.73240
  16038353.35200  27072211.04100  12526220.67440  27072214.88540
  -3868140.99000  27044924.54100  -2921669.59340  27044928.73640
  14955456.62800  25136061.22100  11653608.13540  25136064.35040
  -4777051.18400  26505700.56400  -3636728.68440  26505704.36140
 96  9 11  4 40  0.0100000  0  8  3 14 18 19 22 27 29 31
  -3118193.17700  26584675.00200   -168777.00340  26584679.13940
  32158767.46500  27485986.97100  25049119.22140  27485990.49840
 -10340684.26700  23392962.57200  -7733162.92440  23392965.90040
  -8986368.66900  24519263.34600  -6892933.01440  24519267.22540
  16172585.52600  27097754.63500  12630817.14740  27097758.72540
  -3909795.80000  27036997.72100  -2954127.84640  27037002.27940
  15050936.58600  25154230.47100  11728008.09440  25154233.58840
  -4827891.24600  26496025.82200  -3676344.29940  26496030.12340
 96  9 11  4 40 30.0100000  0  8  3 14 18 19 22 27 29 31
  -3114600.82500  26585358.39300   -165977.76140  26585362.81040
  32301264.71800  27513102.90000  25160156.01940  27513107.00240
 -10319199.44200  23397051.22800  -7716421.49840  23397054.67440
  -8992721.63500  24518054.26000  -6897883.36140  24518058.32640
  16306945.50400  27123322.83800  12735513.21840  27123327.12740
  -3951417.81700  27029077.62700  -2986560.57040  27029081.74040
  15146719.42000  25172457.26000  11802644.05940  25172460.31840
  -4878519.04800  26486392.11900  -3715794.50240  26486396.03340
 96  9 11  4 41  0.0110000  0  8  3 14 18 19 22 27 29 31
  -3110534.99700  26586132.53800   -162809.56040  26586136.65140
  32443772.41100  27540221.03000  25271201.00140  27540226.44440
 -10297282.75600  23401221.67100  -7699343.57040  23401225.04640
  -8998880.04200  24516882.40500  -6902682.09240  24516886.41340
  16441430.01400  27148914.64700  12840306.34240  27148919.12440
  -3993005.09000  27021164.19400  -3018966.21640  27021168.65940
  15242799.78500  25190740.60800  11877511.85440  25190743.84340
  -4928949.60700  26476795.21000  -3755091.03940  26476799.24140
 96  9 11  4 41 30.0110000  0  8  3 14 18 19 22 27 29 31
  -3106001.23500  26586995.23300   -159276.75040  26586998.77240
  32586266.51600  27567335.51500  25382235.36240  27567339.80440
 -10274952.31000  23405471.02200  -7681943.22540  23405474.43340
  -9004853.27700  24515745.70200  -6907336.54340  24515749.80440
  16576003.45200  27174522.89700  12945168.78240  27174525.87440
  -4034549.16800  27013258.07700  -3051338.21140  27013262.24940
  15339175.72600  25209080.75700  11952609.97740  25209083.90940
  -4979188.00200  26467234.91300  -3794237.82940  26467238.62840
 96  9 11  4 42  0.0110000  0  8  3 14 18 19 22 27 29 31
  -3101001.69600  26587946.42100   -155381.00640  26587950.42940
  32728751.09100  27594451.21800  25493262.27340  27594455.63640
 -10252212.00200  23409798.35800  -7664223.50640  23409801.76840
  -9010662.06800  24514640.42100  -6911862.85840  24514644.53440
  16710660.93000  27200147.19400  13050096.66640  27200151.61240
  -4076037.15500  27005363.48300  -3083666.48140  27005368.72240
  15435857.90100  25227478.60100  12027946.71440  25227481.88240
  -5029233.32800  26457711.93600  -3833234.17740  26457716.68340
 96  9 11  4 42 30.0110000  0  8  3 14 18 19 22 27 29 31
  -3095539.72500  26588985.55400   -151124.92240  26588989.25740
  32871227.89000  27621563.39000  25604283.12440  27621566.15540
 -10229038.17200  23414208.10100  -7646165.98040  23414211.59340
  -9016315.82000  24513564.43600  -6916268.35840  24513568.45640
  16845427.96700  27225792.64700  13155109.94640  27225797.59340
  -4117444.88700  26997483.85800  -3115932.23540  26997487.39740
  15532874.17700  25245940.46000  12103543.79340  25245943.77640
  -5079064.08000  26448229.51500  -3872063.32140  26448232.71440
 96  9 11  4 43  0.0110000  0  8  3 14 18 19 22 27 29 31
  -3089627.07800  26590111.17100   -146517.64440  26590114.85140
  33013682.79600  27648671.64700  25715286.97340  27648676.75740
 -10205428.73000  23418700.83500  -7627769.01840  23418704.25740
  -9021826.20800  24512515.85100  -6920562.15340  24512519.85840
  16980296.48400  27251457.73300  13260202.29140  27251461.85840
  -4158769.51300  26989619.78000  -3148133.20740  26989623.75340
  15630230.43300  25264466.43600  12179405.79140  25264469.69440
  -5128670.32900  26438789.74900  -3910717.53040  26438793.96840
 96  9 11  4 43 30.0110000  0  8  3 14 18 19 22 27 29 31
  -3083264.76400  26591321.60100   -141559.98640  26591325.79640
  33156115.08000  27675775.46800  25826273.15340  27675781.12840
 -10181376.74300  23423277.98300  -7609027.21340  23423281.37040
  -9027182.02500  24511496.62400  -6924735.49640  24511500.53840
  17115273.20400  27277142.94400  13365378.94040  27277146.82340
  -4200018.40000  26981770.86600  -3180275.19240  26981774.46440
  15727925.85700  25283057.41300  12255532.08140  25283060.68340
  -5178035.86900  26429395.89000  -3949184.17940  26429400.20240
 96  9 11  4 44  0.0110000  0  8  3 14 18 19 22 27 29 31
  -3076463.74200  26592616.03800   -136260.47640  26592619.20240
  33298503.06400  27702871.58500  25937224.79540  27702876.44840
 -10156867.95000  23427941.74100  -7589929.44740  23427945.05840
  -9032385.56000  24510506.42900  -6928790.19040  24510510.53040
  17250353.47500  27302847.45200  13470636.27240  27302850.82740
  -4241210.95200  26973931.64700  -3212373.23940  26973935.57340
  15825937.24100  25301708.42100  12331904.58140  25301711.42140
  -5227171.48600  26420045.53800  -3987471.66740  26420049.61640
 96  9 11  4 44 30.0110000  0  8  3 14 18 19 22 27 29 31
  -3069207.55300  26593996.46000   -130606.30140  26594000.19840
  33440833.19100  27729955.21800  26048131.40240  27729961.25340
 -10131883.27200  23432696.24900  -7570460.87240  23432699.63640
  -9037412.86200  24509549.73300  -6932707.55540  24509553.83540
  17385531.99700  27328571.35100  13575970.18840  27328573.82340
  -4282350.38600  26966102.93600  -3244429.95940  26966107.40140
  15924263.78100  25320419.17900  12408522.64940  25320422.60140
  -5276070.52400  26410740.18600  -4025574.80540  26410744.40540
 96  9 11  4 45  0.0110000  0  8  3 14 18 19 22 27 29 31
  -3061476.02000  26595467.67900   -124581.72640  26595471.39340
  33583112.31300  27757030.51500  26158998.24040  27757035.48340
 -10106422.88800  23437541.17900  -7550621.61940  23437544.53040
  -9042253.25200  24508628.56100  -6936479.27440  24508632.62840
  17520801.87800  27354312.41300  13681375.27440  27354316.06940
  -4323438.24400  26958284.04600  -3276446.45440  26958287.70240
  16022905.86100  25339190.21000  12485386.60340  25339193.19840
  -5324725.61600  26401481.51500  -4063487.85040  26401484.93640
 96  9 11  4 45 30.0110000  0  8  3 14 18 19 22 27 29 31
  -3053261.67300  26597031.14700   -118180.91440  26597035.22640
  33725340.56300  27784095.52200  26269825.45840  27784102.49940
 -10080507.05000  23442472.81100  -7530427.46840  23442476.21040
  -9046901.89300  24507744.03800  -6940101.58640  24507748.09340
  17656162.11800  27380070.19400  13786850.80140  27380074.75340
  -4364478.77800  26950474.80400  -3308426.07540  26950480.03040
  16121860.85200  25358020.94400  12562494.36740  25358024.10840
  -5373146.85300  26392266.72600  -4101218.68740  26392271.09740
 96  9 11  4 46  0.0110000  0  8  3 14 18 19 22 27 29 31
  -3044558.88500  26598686.67900   -111399.53140  26598690.52240
  33867517.51000  27811150.63200  26380612.65940  27811155.46040
 -10054146.15300  23447489.05400  -7509886.51540  23447492.49940
  -9051358.34900  24506895.93600  -6943574.13440  24506899.94440
  17791611.55700  27405845.56100  13892395.79240  27405848.51540
  -4405461.25700  26942676.06100  -3340360.48640  26942680.15140
  16221138.04800  25376912.76500  12639853.20840  25376916.09340
  -5421326.07700  26383099.42100  -4138760.93540  26383102.65540
 96  9 11  4 46 30.0110000  0  8  3 14 18 19 22 27 29 31
  -3035370.10900  26600435.67900   -104239.43140  26600439.78040
  34009655.37900  27838199.34300  26491369.45640  27838204.13640
 -10027368.89100  23452584.58500  -7489021.12040  23452587.97240
  -9055632.29000  24506082.78000  -6946904.47340  24506086.74140
  17927147.99300  27431636.93600  13998008.57340  27431641.13240
  -4446397.47100  26934886.18600  -3372258.86040  26934890.78040
  16320739.94400  25395866.14700  12717465.04240  25395869.48740
  -5469256.06900  26373978.12400  -4176108.96940  26373981.68640
 96  9 11  4 47  0.0110000  0  9  3 14 16 18 19 22 27 29 31
  -3025698.22200  26602275.99900    -96702.88840  26602279.64340
  34151779.56200  27865244.34300  26602115.53940  27865249.01840
    -28554.83410  28041971.16300
 -10000185.08200  23457757.47600  -7467838.93740  23457760.92140
  -9059729.82600  24505303.06900  -6950097.34840  24505307.01840
  18062781.88900  27457446.88200  14103697.33040  27457450.91340
  -4487284.70300  26927105.82700  -3404119.02340  26927110.12840
  16420668.41600  25414882.15500  12795331.36840  25414885.58940
  -5516931.49700  26364905.79600  -4213258.65140  26364909.68640
 96  9 11  4 47 30.0110000  0  9  3 14 16 18 19 22 27 29 31
  -3015538.78700  26604209.17100    -88786.44240  26604212.81540
  34293891.33600  27892287.16300  26712851.98040  27892292.13240
    -78670.20300  28032434.79600
  -9972583.49500  23463010.11600  -7446331.22040  23463013.58540
  -9063649.63300  24504557.14000  -6953151.73240  24504561.11240
  18198527.40000  27483278.53800  14209473.03440  27483280.81140
  -4528119.59200  26919334.74100  -3435938.41440  26919339.21840
  16520927.59700  25433960.56100  12873455.38040  25433964.12440
  -5564343.66400  26355883.81900  -4250203.18840  26355887.53440
 96  9 11  4 48  0.0110000  0  9  3 14 16 18 19 22 27 29 31
  -3004905.86300  26606232.39000    -80501.04440  26606236.16340
  34435972.63900  27919324.72600  26823564.69740  27919328.45240
   -128447.36900  28022963.20200    -24536.61850  28022966.49540
  -9944547.79500  23468344.96800  -7424485.22640  23468348.53040
  -9067414.48600  24503840.78800  -6956085.38340  24503844.73740
  18334364.01500  27509127.98300  14315319.77140  27509131.74540
  -4568909.77100  26911572.96800  -3467722.98140  26911577.53840
  16621503.39500  25453099.52200  12951826.10240  25453102.64040
  -5611493.87400  26346911.10800  -4286943.61840  26346914.94040
 96  9 11  4 48 30.0110000  0  9  3 14 16 18 19 22 27 29 31
  -2993798.87900  26608346.57700    -71846.25740  26608350.36240
  34578020.77500  27946354.88200  26934251.50840  27946359.18340
   -177900.74100  28013550.41300    -63071.66840  28013554.49140
  -9916067.82600  23473764.46800  -7402293.03940  23473767.96040
  -9071029.84400  24503152.80400  -6958902.54440  24503156.75340
  18470292.14200  27534994.20200  14421237.76340  27534998.73740
  -4609652.26400  26903819.38200  -3499470.38540  26903823.85840
  16722381.76700  25472296.19400  13030432.60740  25472299.80440
  -5658388.09900  26337987.83500  -4323484.57940  26337991.58540
 96  9 11  4 49  0.0110000  0  9  3 14 16 18 19 22 27 29 31
  -2982211.94300  26610550.96800    -62817.46040  26610554.70640
  34720026.62500  27973378.00700  27044905.41240  27973383.59740
   -227021.09000  28004203.80400   -101347.31540  28004207.77640
  -9887124.54000  23479272.13200  -7379739.83540  23479275.64740
  -9074494.11900  24502493.48300  -6961601.96740  24502497.57340
  18606314.89700  27560879.16300  14527229.52240  27560883.92140
  -4650326.22900  26896079.47600  -3531164.36440  26896083.76540
  16823565.98300  25491550.64700  13109277.43240  25491553.71840
  -5705019.98900  26329114.16300  -4359821.11140  26329117.52640
 96  9 11  4 49 30.0110000  0  9  3 14 16 18 19 22 27 29 31
  -2970130.51400  26612850.07700    -53403.35240  26612853.37040
  34861982.36500  28000391.78000  27155520.27540  28000397.03040
   -275793.44000  27994921.81900   -139351.70240  27994927.24540
  -9857699.99800  23484871.28000  -7356811.63340  23484874.74940
  -9077799.17900  24501864.31900  -6964177.33240  24501868.33940
  18742422.06700  27586779.02200  14633287.02440  27586782.74940
  -4690923.99900  26888354.12400  -3562798.99240  26888358.82340
  16925069.46200  25510866.47600  13188371.02840  25510869.86240
  -5751375.90300  26320293.04600  -4395942.59940  26320297.39340
 96  9 11  4 50  0.0110000  0  9  3 14 16 18 19 22 27 29 31
  -2957557.86500  26615242.36600    -43606.46840  26615246.66740
  35003882.51800  28027393.89700  27266091.82440  28027397.74140
   -324212.22500  27985709.06900   -177080.63940  27985713.86240
  -9827797.88000  23490561.67100  -7333511.28840  23490565.15140
  -9080941.64700  24501266.53800  -6966626.01140  24501270.55840
  18878600.19600  27612692.74900  14739399.84040  27612694.50740
  -4731443.59900  26880643.40500  -3594372.70440  26880647.19040
  17026892.99000  25530242.85100  13267714.02840  25530246.08540
  -5797453.59500  26311524.56100  -4431847.28440  26311528.54640
 96  9 11  4 50 30.0110000  0  9  3 14 16 18 19 22 27 29 31
  -2944511.28000  26617725.68600    -33440.29940  26617729.09740
  35145708.40800  28054382.24100  27376605.46940  28054388.39340
   -372278.32500  27976562.71800   -214534.73440  27976567.03040
  -9797457.14100  23496335.47600  -7309869.17040  23496338.95640
  -9083928.66200  24500697.95200  -6968953.54940  24500702.06540
  19014840.09500  27638618.52200  14845560.80940  27638623.10440
  -4771908.50900  26872943.54600  -3625903.78440  26872947.56540
  17129021.71200  25549677.31900  13347294.82940  25549680.61240
  -5843270.88200  26302805.64000  -4467549.05940  26302809.99940
 96  9 11  4 51  0.0110000  0  9  3 14 16 18 19 22 27 29 31
  -2930985.72100  26620299.13200    -22900.91240  26620302.92940
  35287457.30500  28081355.88200  27487059.15340  28081360.10140
   -419989.49800  27967483.07700   -251712.26640  27967488.53840
  -9766684.08700  23502191.22600  -7285890.17840  23502194.72940
  -9086748.76300  24500161.30400  -6971151.02840  24500165.33540
  19151135.89300  27664554.77200  14951765.34540  27664557.87840
  -4812322.77300  26865252.79600  -3657395.38440  26865256.76840
  17231462.90600  25569171.03800  13427119.12240  25569174.07340
  -5888827.62800  26294136.21800  -4503047.82540  26294139.22940
 96  9 11  4 51 30.0110000  0  9  3 14 16 18 19 22 27 29 31
  -2916967.82700  26622966.59300    -11977.84940  26622970.58940
  35429138.61800  28108317.91300  27597460.12040  28108323.22240
   -467344.83300  27958471.10800   -288612.49740  27958476.47640
  -9735475.77800  23508130.24100  -7261572.02340  23508133.65140
  -9089372.80000  24499662.11600  -6973195.72740  24499665.99540
  19287498.02800  27690503.58500  15058021.56240  27690506.96040
  -4852677.63100  26857573.26500  -3688840.73040  26857577.28440
  17334213.04800  25588723.92100  13507184.14640  25588727.17940
  -5934108.66900  26285519.61600  -4538331.74740  26285524.17540
 96  9 11  4 52  0.0110000  0  8  3 16 18 19 22 27 29 31
  -2902452.49700  26625728.71800      -667.20040  26625732.32740
   -514359.04400  27949526.18600   -325246.97440  27949531.67140
  -9703836.33800  23514150.76500  -7236917.92540  23514154.22240
  -9091789.83400  24499202.16300  -6975079.12840  24499206.17140
  19423944.72200  27716467.81100  15164343.63540  27716472.83940
  -4892979.52400  26849904.53000  -3720244.80140  26849908.99540
  17437254.62500  25608331.85800  13587476.26540  25608335.14040
  -5979116.80900  26276955.31900  -4573403.01940  26276958.88240
 96  9 11  4 52 30.0110000  0  8  3 16 18 19 22 27 29 31
  -2887425.84200  26628588.36600     11041.89840  26628592.45640
   -561033.07200  27940642.10800   -361616.36140  27940648.46040
  -9671751.14700  23520256.51500  -7211916.48440  23520259.98340
  -9093983.13400  24498784.69400  -6976788.18740  24498788.77240
  19560489.37700  27742452.09300  15270742.04040  27742457.54240
  -4933228.08600  26842245.25700  -3751607.30240  26842249.66340
  17540589.20300  25627996.08500  13667996.69140  25627999.69440
  -6023845.93900  26268443.37400  -4608256.87240  26268446.92540
 96  9 11  4 53  0.0110000  0  8  3 16 18 19 22 27 29 31
  -2871875.26200  26631547.35100     23159.22840  26631550.74940
   -607361.01800  27931828.32700   -397716.03840  27931834.04640
  -9639192.64500  23526452.13200  -7186546.23140  23526455.55440
  -9095958.96900  24498408.76500  -6978327.79640  24498412.65540
  19697122.56600  27768452.51500  15377209.49140  27768454.40140
  -4973414.40700  26834597.69400  -3782921.29840  26834602.10140
  17644220.98600  25647716.40500  13748748.71240  25647719.80440
  -6068273.95900  26259988.85800  -4642876.11240  26259993.33540
 96  9 11  4 53 30.0110000  0  8  3 16 18 19 22 27 29 31
  -2855809.19700  26634604.70200     35678.26240  26634608.11240
   -653330.07400  27923079.46800   -433536.06640  27923083.99140
  -9606150.40500  23532739.82700  -7160799.03840  23532743.30840
  -9097737.13700  24498070.42900  -6979713.38440  24498074.40140
  19833831.65300  27794466.71800  15483736.03340  27794472.16740
  -5013552.61400  26826959.51500  -3814197.79940  26826963.54640
  17748143.59200  25667492.15500  13829727.35040  25667495.57740
  -6112387.28400  26251594.03800  -4677250.12040  26251598.32740
 96  9 11  4 54  0.0110000  0  8  3 16 18 19 22 27 29 31
  -2839219.01300  26637761.81100     48605.68740  26637765.52640
   -698915.18700  27914405.97600   -469056.93440  27914409.55040
  -9572602.66800  23539123.90500  -7134657.94440  23539127.43340
  -9099333.08700  24497766.69400  -6980956.97440  24497770.70240
  19970620.06100  27820496.64000  15590324.37740  27820500.03840
  -5053645.12100  26819330.10100  -3845438.69340  26819334.46040
  17852385.13200  25687328.89000  13910954.50840  25687332.35840
  -6156178.79700  26243261.12400  -4711373.37040  26243265.26140
 96  9 11  4 54 30.0110000  0  8  3 16 18 19 22 27 29 31
  -2822142.64100  26641011.31900     61911.96040  26641015.59740
   -744135.54100  27905799.68600   -504293.56740  27905805.40540
  -9538579.21700  23545598.34300  -7108146.17240  23545601.78840
  -9100787.69000  24497489.96800  -6982090.42640  24497493.92940
  20107437.44500  27846532.61600  15696935.35040  27846535.61640
  -5093708.03200  26811706.77200  -3876656.48040  26811710.96840
  17956928.70200  25707222.73300  13992417.01340  25707226.28440
  -6199676.82000  26234983.73300  -4745267.93840  26234987.65940
 96  9 11  4 55  0.0110000  0  8  3 16 18 19 22 27 29 31
  -2804565.14500  26644356.03800     75608.71540  26644360.02240
   -788974.45100  27897267.91300   -539232.96840  27897272.33140
  -9504075.77000  23552164.11600  -7081260.37640  23552167.53840
  -9102104.07900  24497239.34300  -6983116.18140  24497243.39740
  20244285.25200  27872574.35100  15803569.99040  27872578.45240
  -5133720.34900  26804093.21800  -3907834.90540  26804097.28440
  18061787.56300  25727176.81100  14074125.20140  25727179.98740
  -6242866.40500  26226764.80400  -4778922.14440  26226768.75340
 96  9 11  4 55 30.0110000  0  8  3 16 18 19 22 27 29 31
  -2786475.80300  26647798.66300     89704.32240  26647802.42540
   -833429.40700  27888807.39700   -573873.19740  27888810.93640
  -9469099.62900  23558819.75700  -7054006.23740  23558823.14340
  -9103262.38000  24497019.06900  -6984018.75140  24497022.94840
  20381177.53600  27898623.68600  15910239.28840  27898627.39040
  -5173677.15800  26796489.11600  -3938970.05840  26796493.73340
  18166968.62000  25747192.00700  14156084.44340  25747195.12440
  -6285757.57300  26218603.18600  -4812343.82240  26218607.24140
 96  9 11  4 56  0.0110000  0  8  3 16 18 19 22 27 29 31
  -2767874.01600  26651338.31100    104199.22940  26651341.27640
   -877500.85800  27880421.14700   -608214.54940  27880426.76140
  -9433662.92200  23565563.24900  -7026393.23740  23565566.72940
  -9104240.14500  24496833.06900  -6984780.64240  24496836.91340
  20518113.41100  27924681.62400  16016942.56340  27924684.27240
  -5213548.36300  26788901.58500  -3970038.49940  26788906.20240
  18272486.71200  25767271.47600  14238306.31540  25767274.97940
  -6328344.31800  26210498.92900  -4845528.29340  26210502.52640
 96  9 11  4 56 30.0110000  0  8  3 16 18 19 22 27 29 31
  -2748771.69900  26654973.49900    119084.15140  26654977.43640
   -921196.31600  27872106.90500   -642262.97340  27872111.33540
  -9397785.35800  23572390.34300  -6998436.70440  23572393.85840
  -9105033.79700  24496681.89700  -6985399.06940  24496685.74140
  20655079.74100  27950744.95200  16123669.59440  27950748.35140
  -5253330.43800  26781331.15500  -4001037.48340  26781335.03440
  18378329.73600  25787412.78800  14320781.38640  25787416.30440
  -6370621.88400  26202453.93600  -4878471.84840  26202457.38240
 96  9 11  4 57  0.0110000  0  9  3 10 16 18 19 22 27 29 31
  -2729185.01500  26658700.34300    134346.50740  26658703.87040
     -7128.34810  28135869.53800
   -964526.13400  27863862.19400   -676026.47340  27863867.10440
  -9361485.56300  23579298.02200  -6970151.14940  23579301.57340
  -9105657.25100  24496563.34300  -6985884.87840  24496567.28040
  20792074.36400  27976814.46000  16230418.61040  27976817.64740
  -5293039.86200  26773774.70200  -4031979.88840  26773779.39040
  18484478.03900  25807612.26500  14403494.33240  25807615.44040
  -6412589.36200  26194467.68600  -4911173.77540  26194471.61240
 96  9 11  4 57 30.0110000  0  9  3 10 16 18 19 22 27 29 31
  -2709098.28700  26662523.25700    149998.51840  26662527.22940
    -49665.24600  28127776.04600
  -1007448.25700  27855692.91300   -709472.24940  27855698.96040
  -9324721.05200  23586294.09300  -6941503.48740  23586297.50340
  -9106066.11400  24496485.28000  -6986203.47940  24496489.27640
  20929135.64600  28002896.60100  16337219.59040  28002899.28440
  -5332640.59200  26766239.06900  -4062837.57140  26766243.40540
  18590974.16200  25827878.05400  14486478.30540  25827880.85440
  -6454200.82100  26186549.09300  -4943598.27940  26186553.08940
 96  9 11  4 58  0.0110000  0  9  3 10 16 18 19 22 27 29 31
  -2688567.81800  26666429.65500    165996.29240  26666433.13640
    -91825.33200  28119753.00700
  -1049991.83500  27847597.01500   -742623.06840  27847602.93340
  -9287517.76500  23593373.71000  -6912513.91540  23593377.16740
  -9106314.62700  24496438.02200  -6986397.13040  24496441.90140
  21066222.96300  28028983.96800  16444040.89540  28028987.09740
  -5372178.49900  26758715.38200  -4093646.30240  26758719.58940
  18697766.55900  25848199.90500  14569693.14640  25848203.04640
  -6495486.38600  26178692.96000  -4975768.83740  26178696.75740
 96  9 11  4 58 30.0110000  0  9  3 10 16 18 19 22 27 29 31
  -2667556.15200  26670427.79600    182369.02840  26670431.72240
   -133567.89800  28111809.96800    -20560.98350  28111816.21440
  -1092129.77500  27839579.37400   -775457.84840  27839583.13640
  -9249837.18500  23600544.28000  -6883152.42940  23600547.78440
  -9106400.80100  24496421.59300  -6986464.28140  24496425.55440
  21203366.54900  28055081.00700  16550906.04140  28055083.89040
  -5411653.78500  26751203.32700  -4124406.24040  26751208.20240
  18804855.55300  25868578.05400  14653139.09940  25868581.14740
  -6536438.28700  26170900.03800  -5007679.41140  26170903.87040
 96  9 11  4 59  0.0110000  0  9  3 10 16 18 19 22 27 29 31
  -2646034.14700  26674523.24900    199139.42540  26674527.44440
   -174863.59900  28103951.37400    -52739.45640  28103956.39040
  -1133844.58100  27831640.89700   -807962.85440  27831644.70640
  -9211648.79100  23607810.84300  -6853395.24240  23607814.31140
  -9106305.48700  24496439.72600  -6986390.01140  24496443.79240
  21340573.01100  28081190.22600  16657820.11840  28081193.77640
  -5451059.76500  26743704.89700  -4155112.19640  26743709.19840
  18912248.72700  25889014.06900  14736822.06740  25889017.43340
  -6577044.11900  26163172.89700  -5039320.30540  26163176.36640
 96  9 11  4 59 30.0110000  0  9  3 10 16 18 19 22 27 29 31
  -2624011.97500  26678713.94400    216299.56740  26678717.92940
   -215732.59000  28096174.87400    -84585.33440  28096180.10140
  -1175151.57500  27823781.56900   -840150.12140  27823786.49140
  -9172963.50900  23615172.64000  -6823250.86940  23615176.17940
  -9106044.05800  24496489.53000  -6986186.29940  24496493.71440
  21477810.78300  28107305.68600  16764758.66040  28107308.34740
  -5490419.12300  26736214.90500  -4185781.78840  26736220.13240
  19019927.95900  25909505.21800  14820727.94940  25909508.66340
  -6617318.60300  26155509.10100  -5070703.01740  26155512.92140
 96  9 11  5  0  0.0110000  0  9  3 10 16 18 19 22 27 29 31
  -2601462.99800  26683005.02200    233870.21740  26683008.69040
   -256187.39700  28088476.40500   -116108.56740  28088482.45240
  -1216046.53800  27815998.83500   -872016.31440  27816004.35440
  -9133782.68800  23622628.40500  -6792720.37440  23622631.92140
  -9105614.62800  24496571.35100  -6985851.67740  24496575.32340
  21615081.32700  28133426.62400  16871722.69040  28133429.67140
  -5529730.85700  26728734.31900  -4216414.28140  26728739.22940
  19127881.00700  25930047.63200  14904847.19140  25930051.46440
  -6657259.26000  26147908.81900  -5101825.58740  26147912.55840
 96  9 11  5  0 30.0110000  0  9  3 10 16 18 19 22 27 29 31
  -2578359.68800  26687401.31900    251872.80640  26687405.06940
   -296232.05100  28080854.82700   -147312.19740  28080860.82740
  -1256525.25600  27808296.31900   -903558.15240  27808300.65540
  -9094116.92600  23630176.67100  -6761811.98540  23630180.12840
  -9104999.05000  24496688.45200  -6985372.00340  24496692.54240
  21752389.17800  28159556.39000  16978715.83640  28159559.72940
  -5568978.06400  26721265.87400  -4246996.53440  26721270.03440
  19236124.46300  25950645.90500  14989192.71840  25950649.51540
  -6696851.09800  26140374.56900  -5132676.37340  26140378.37840
 96  9 11  5  1  0.0110000  0  9  3 10 16 18 19 22 27 29 31
  -2554727.31900  26691898.81900    270287.64240  26691902.45240
   -335915.36000  28073305.92100   -178234.25640  28073310.77240
  -1296601.79700  27800670.17100   -934786.64040  27800674.28440
  -9053989.33100  23637812.78000  -6730543.74040  23637816.27240
  -9104197.74600  24496841.05400  -6984747.61540  24496845.05040
  21889713.42800  28185687.64000  17085721.74240  28185692.97240
  -5608174.92100  26713806.92100  -4277539.52140  26713812.28840
  19344654.95500  25971298.39700  15073761.92040  25971301.87840
  -6736093.95900  26132906.70200  -5163255.21240  26132910.39340
 96  9 11  5  1 30.0110000  0 10  2  3 10 16 18 19 22 27 29 31
    -10632.16410  28302304.91300
  -2530564.60400  26696496.71000    289115.74040  26696500.63640
   -375251.49700  28065818.86600   -208885.78540  28065822.95640
  -1336277.84200  27793119.03800   -965703.03540  27793124.12440
  -9013400.84000  23645536.39700  -6698916.35040  23645539.92540
  -9103208.24500  24497029.22600  -6983976.57540  24497033.12840
  22027077.46500  28211828.81100  17192758.65740  28211832.62040
  -5647310.94300  26706359.55400  -4308035.10940  26706363.73740
  19453480.15800  25992007.35100  15158560.76140  25992010.73740
  -6774978.49400  26125507.39000  -5193554.84340  26125511.16340
 96  9 11  5  2  0.0110000  0 10  2  3 10 16 18 19 22 27 29 31
    -74352.30300  28290179.61600
  -2505850.34200  26701199.68600    308373.61840  26701203.07340
   -414227.92000  28058403.55400   -239257.01340  28058407.64340
  -1375544.85500  27785646.55400   -996300.72540  27785653.26840
  -8972345.48200  23653348.96000  -6666925.16640  23653352.54640
  -9102019.45800  24497255.30400  -6983050.24440  24497259.34740
  22164491.13500  28237977.60800  17299834.27940  28237983.15140
  -5686380.54100  26698924.85100  -4338478.93940  26698928.26140
  19562614.84600  26012774.99100  15243600.76640  26012778.63640
  -6813494.60300  26118178.27200  -5223567.39240  26118181.24940
 96  9 11  5  2 30.0110000  0 10  2  3 10 16 18 19 22 27 29 31
   -137908.01200  28278084.95200
  -2480583.21000  26706007.35100    328062.29640  26706011.72240
   -452832.26400  28051055.95200   -269338.30640  28051060.18340
  -1414411.39200  27778249.69400  -1026586.34340  27778255.17940
  -8930809.46300  23661252.96000  -6634559.44640  23661256.48740
  -9100636.46200  24497518.60800  -6981972.58340  24497522.64040
  22301943.27000  28264133.53800  17406939.79740  28264136.18640
  -5725393.56000  26691500.53800  -4368878.70140  26691504.74540
  19672068.69500  26033603.45200  15328889.46740  26033606.75740
  -6851634.20400  26110920.17900  -5253286.54940  26110924.86640
 96  9 11  5  3  0.0110000  0 10  2  3 10 16 18 19 22 27 29 31
   -201329.95800  28266016.60800    -31287.51150  28266023.22940
  -2454792.37200  26710915.38200    348159.06040  26710919.13240
   -491075.86900  28043778.21000   -299138.52740  28043783.01540
  -1452905.16600  27770924.02200  -1056581.46640  27770928.90940
  -8888799.82100  23669247.20200  -6601824.66040  23669250.63640
  -9099086.98700  24497813.50700  -6980765.20240  24497817.46840
  22439408.99300  28290292.48300  17514055.93640  28290296.52640
  -5764377.21800  26684082.45200  -4399255.54440  26684087.33940
  19781824.95300  26054489.04600  15414413.80340  26054492.06940
  -6889416.87700  26103730.25700  -5282727.59440  26103734.54640
 96  9 11  5  3 30.0110000  0 10  2  3 10 16 18 19 22 27 29 31
   -264613.08700  28253973.99900    -80599.04240  28253978.97940
  -2428457.94500  26715927.22600    368679.39640  26715930.87040
   -528919.57100  28036576.56100   -328627.09540  28036580.69840
  -1491027.09200  27763670.45200  -1086286.86940  27763674.71840
  -8846315.93200  23677331.62400  -6568720.34140  23677335.18640
  -9097385.01900  24498137.41300  -6979438.99140  24498141.36240
  22576894.62200  28316453.59300  17621187.59540  28316457.72940
  -5803314.74600  26676672.74100  -4429596.46440  26676677.14740
  19891882.21000  26075432.53000  15500172.68540  26075436.09340
  -6926829.21200  26096611.26500  -5311880.03940  26096614.94440
 96  9 11  5  4  0.0110000  0  9  2  3 10 16 18 19 27 29 31
   -327772.91100  28241954.70200   -129814.48440  28241960.14040
  -2401559.31300  26721045.66300    389639.37240  26721049.37840
   -566319.84800  28029459.99100   -357770.16740  28029464.72640
  -1528755.00500  27756491.38200  -1115685.21740  27756495.74140
  -8803334.58700  23685510.61600  -6535228.39440  23685514.06140
  -9095528.58700  24498490.45200  -6977992.42140  24498494.44840
  -5842184.70200  26669276.10800  -4459884.71840  26669280.32740
  20002249.03000  26096434.60800  15586172.79140  26096438.20640
  -6963853.98800  26089565.09300  -5340730.50940  26089569.21840
 96  9 11  5  4 30.0110000  0  9  2  3 10 16 18 19 27 29 31
   -390830.43100  28229956.09300   -178950.14640  28229961.40140
  -2374128.30600  26726265.56100    411014.20640  26726269.54640
   -603281.14400  28022426.37400   -386571.11540  28022430.80440
  -1566093.80500  27749387.03000  -1144780.37840  27749390.72240
  -8759857.68800  23693784.09300  -6501350.29740  23693787.69040
  -9093534.73400  24498869.90500  -6976438.76640  24498874.06540
  -5880984.58000  26661892.82700  -4490118.38340  26661897.26840
  20112897.96700  26117490.44400  15672392.72340  26117493.84340
  -7000508.82700  26082590.49100  -5369292.71240  26082594.83940
 96  9 11  5  5  0.0110000  0  9  2  3 10 16 18 19 27 29 31
   -453783.62100  28217975.82700   -228004.63040  28217981.34740
  -2346174.23200  26731585.15500    432796.60540  26731588.41340
   -639799.45200  28015477.24100   -415027.01340  28015482.40940
  -1603034.27500  27742356.90500  -1173565.16140  27742360.60840
  -8715900.43200  23702148.71000  -6467097.88940  23702152.30840
  -9091403.10700  24499275.74100  -6974777.76040  24499279.78440
  -5919702.65600  26654524.74900  -4520288.29240  26654529.64740
  20223821.25100  26138598.50700  15758826.43840  26138602.08140
  -7036800.63100  26075684.17900  -5397572.02440  26075688.32740
 96  9 11  5  5 30.0110000  0  9  2  3 10 16 18 19 27 29 31
   -516595.54300  28206023.67100   -276948.94840  28206029.60140
  -2317675.27300  26737008.02200    455003.59040  26737011.40940
   -675859.65600  28008614.03800   -443125.82340  28008618.56140
  -1639549.57400  27735408.57700  -1202018.63540  27735412.78440
  -8671445.97600  23710608.14700  -6432458.05640  23710611.72240
  -9089104.56300  24499713.20200  -6972986.69240  24499717.11640
  -5958309.49800  26647178.06900  -4550371.51440  26647182.10140
  20335038.20900  26159762.14000  15845488.99640  26159765.69040
  -7072711.97000  26068850.49900  -5425554.86940  26068854.31940
 96  9 11  5  6  0.0110000  0  9  2  3 10 16 18 19 27 29 31
   -579247.77200  28194100.59300   -325768.87640  28194107.22640
  -2288645.67500  26742532.28800    477624.06840  26742535.81540
   -711470.97300  28001837.92900   -470874.82840  28001840.84740
  -1675619.76600  27728544.91300  -1230125.27140  27728549.50740
  -8626474.79400  23719166.15500  -6397415.58740  23719169.70640
  -9086610.90500  24500187.64000  -6971043.58440  24500191.56540
  -5996808.28100  26639852.17100  -4580370.54940  26639856.44840
  20446558.10800  26180984.06100  15932387.59540  26180987.72940
  -7108244.74600  26062089.17900  -5453242.73140  26062092.91740
 96  9 11  5  6 30.0110000  0  9  2  3 10 16 18 19 27 29 31
   -641743.01400  28182208.99900   -374466.45340  28182214.47240
  -2259125.45500  26748149.64000    500626.84240  26748153.14340
   -746675.83900  27995138.57700
  -1711262.51100  27721762.71800  -1257898.84040  27721766.83140
  -8581015.48000  23727816.76500  -6361992.75340  23727820.33940
  -9083931.49500  24500697.49900  -6968955.73940  24500701.33140
  -6035242.90900  26632537.99900  -4610319.57040  26632542.67540
  20558357.57300  26202258.59300  16019504.04140  26202262.20240
  -7143429.16300  26055393.56900  -5480659.17040  26055398.09340
 96  9 11  5  7  0.0120000  0  9  2  3 10 16 18 19 27 29 31
   -704067.71100  28170348.23000   -423031.14740  28170354.05540
  -2229070.89700  26753868.59000    524045.98840  26753872.05940
   -781466.85500  27988518.75400
  -1746468.22000  27715062.74600  -1285331.84440  27715067.97340
  -8535051.34000  23736563.42600  -6326176.54640  23736567.01240
  -9081034.16300  24501248.87900  -6966698.08040  24501252.84040
  -6073601.75300  26625238.76200  -4640209.56140  26625242.87540
  20670479.50700  26223594.25400  16106871.76340  26223597.75840
  -7178243.61600  26048768.50400  -5507787.29040  26048772.19540
 96  9 11  5  7 30.0120000  0  9  2  3 10 16 18 19 27 29 31
   -766234.77700  28158518.46500   -471473.02740  28158523.29340
  -2198494.86700  26759687.40200    547871.48240  26759691.55140
   -815856.05300  27981975.45700
  -1781237.91500  27708446.07400  -1312425.11740  27708449.61340
  -8488591.62900  23745404.36300  -6289974.17640  23745407.96140
  -9077927.30100  24501840.12100  -6964277.15240  24501844.01240
  -6111899.22400  26617950.85500  -4670051.72940  26617955.62540
  20782890.35800  26244985.37100  16194464.63040  26244988.96940
  -7212694.12200  26042212.91800  -5534631.83240  26042217.17240
 96  9 11  5  8  0.0120000  0  9  2  3 10 16 18 19 27 29 31
   -828246.06400  28146718.85500   -519793.47540  28146723.91840
  -2167390.65000  26765605.91000    572108.54340  26765609.09840
   -849824.37300  27975510.05100
  -1815550.98700  27701915.74600  -1339162.57140  27701920.26940
  -8441624.55200  23754341.87100  -6253376.45740  23754345.48040
  -9074605.80900  24502472.21500  -6961688.97640  24502476.01240
  -6150140.62700  26610673.72300  -4699850.19740  26610678.34040
  20895585.92300  26266430.54300  16282279.32340  26266433.76640
  -7246763.58200  26035729.59000  -5561179.43740  26035733.18740
 96  9 11  5  8 30.0120000  0  9  2  3 10 16 18 19 27 29 31
   -890110.35000  28134945.92600   -567999.39540  28134950.13340
  -2135739.27900  26771629.41800    596771.95240  26771632.93440
   -883353.69700  27969129.27700    -20000.48050  27969134.19940
  -1849414.28400  27695472.10500  -1365549.54940  27695477.14440
  -8394168.29300  23763372.59000  -6216397.55840  23763376.11740
  -9071065.99600  24503145.76900  -6958930.68040  24503149.68440
  -6188312.38100  26603409.96500  -4729594.37340  26603414.24240
  21008571.49900  26287931.50400  16370320.02840  26287935.14840
  -7280436.89000  26029321.86300  -5587418.37240  26029325.85940
 96  9 11  5  9  0.0120000  0  9  2  3 10 16 18 19 27 29 31
   -951849.56600  28123196.41000   -616107.88340  28123201.62540
  -2103552.57900  26777754.44100    621852.51140  26777758.30940
   -916449.39400  27962832.34000    -45789.31440  27962837.81240
  -1882842.81700  27689110.85500  -1391597.73840  27689115.73040
  -8346254.16700  23772490.36300  -6179061.88240  23772493.96140
  -9067327.73400  24503857.09800  -6956017.75240  24503861.02340
  -6226426.29500  26596157.09800  -4759293.52340  26596162.31240
  21121835.48900  26309484.86300  16458577.64840  26309488.13340
  -7313715.08400  26022989.04300  -5613349.41940  26022992.93440
 96  9 11  5  9 30.0120000  0  9  2  3 10 16 18 19 27 29 31
  -1013463.42700  28111472.02700   -664118.64440  28111477.79340
  -2070839.03400  26783979.34800    647343.59340  26783982.38340
   -949081.70800  27956623.47300    -71217.02640  27956628.24240
  -1915812.93400  27682836.69900  -1417288.73940  27682842.06640
  -8297884.13500  23781694.63700  -6141370.94940  23781698.32840
  -9063391.83200  24504606.15200  -6952950.81140  24504610.16040
  -6264484.05000  26588914.88700  -4788948.87940  26588919.01240
  21235380.95200  26331091.97300  16547054.62540  26331095.24240
  -7346575.43400  26016735.87100  -5638954.87140  26016739.43440
 96  9 11  5 10  0.0120000  0  9  2  3 10 16 18 19 27 29 31
  -1074932.17400  28099775.55100   -712016.36840  28099780.21540
  -2037577.14600  26790308.67600    673261.95340  26790312.62540
   -981222.94600  27950506.24600    -96262.17340  27950511.06240
  -1948313.62400  27676652.80900  -1442613.95440  27676658.50440
  -8249039.86100  23790989.51200  -6103310.47540  23790993.09840
  -9059241.72600  24505395.85500  -6949716.96340  24505399.81640
  -6302461.43500  26581688.13700  -4818541.62240  26581692.37940
  21349255.46300  26352761.59800  16635787.99540  26352764.94940
  -7378987.07500  26010568.51900  -5664210.67440  26010572.84440
 96  9 11  5 10 30.0120000  0  9  2  3 10 16 18 19 27 29 31
  -1136260.44800  28088105.10500   -759804.62640  28088110.40240
  -2003764.02000  26796743.01900    699609.84040  26796747.91840
  -1012880.33300  27944481.27700   -120930.27740  27944486.59840
  -1980345.66000  27670556.59000
  -8199728.79900  23800373.14400  -6064886.26640  23800376.76640
  -9054891.72600  24506223.72300  -6946327.35240  24506227.43740
  -6340362.29300  26574475.61300  -4848074.72040  26574479.93740
  21463465.61000  26374494.83200  16724782.89140  26374498.57040
  -7410956.72100  26004484.93400  -5689122.08140  26004488.60140
 96  9 11  5 11  0.0120000  0  9  2  3 10 16 18 19 27 29 31
  -1197443.09000  28076461.61300   -807479.37240  28076467.49640
  -1969399.07600  26803282.51200    726387.73740  26803286.62540
  -1044071.01500  27938546.43400   -145234.66340  27938552.07040
  -2011895.91100  27664553.52700
  -8149929.74700  23809849.50400  -6026081.81240  23809853.06640
  -9050353.23900  24507087.44900  -6942790.87340  24507091.17640
  -6378189.44900  26567277.25400  -4877550.41340  26567281.41440
  21577996.66000  26396289.44900  16814027.84640  26396292.60140
  -7442486.17800  25998485.12100  -5713690.48040  25998488.71940
 96  9 11  5 11 30.0120000  0  9  2  3 10 16 18 19 27 29 31
  -1258465.57100  28064850.00400   -855029.34440  28064855.91040
  -1934482.27200  26809927.20700    753595.64340  26809931.02740
  -1074812.72500  27932696.96500   -169189.25040  27932701.07840
  -2042965.73200  27658640.49600
  -8099629.37000  23819421.45700  -5986886.73140  23819425.06640
  -9045632.75300  24507985.65200  -6939112.57640  24507989.48440
  -6415922.76100  26560096.91000  -4906952.97940  26560100.91840
  21692833.21100  26418142.09000  16903510.84640  26418145.95740
  -7473574.45400  25992568.73800  -5737915.09340  25992572.47640
 96  9 11  5 12  0.0120000  0  9  2  3 10 16 18 19 27 29 31
  -1319317.77000  28053270.24600   -902446.61740  28053275.83640
  -1899030.84600  26816673.31600    781220.13940  26816676.52740
  -1105141.43200  27926925.88700   -192821.98140  27926930.73840
  -2073577.43100  27652815.22300
  -8048828.13500  23829088.57400  -5947301.36640  23829092.26640
  -9040751.85500  24508914.29300  -6935309.27240  24508918.19540
  -6453569.39900  26552933.15200  -4936287.96940  26552937.41840
  21807940.98200  26440046.55100  16993205.20240  26440049.98440
  -7504242.74400  25986732.93400  -5761812.44740  25986736.50840
 96  9 11  5 12 30.0120000  0  9  2  3 10 16 18 19 27 29 31
  -1379979.50400  28041726.76900   -949715.46440  28041731.71540
  -1863039.32700  26823522.31600    809265.48140  26823526.17240
  -1135055.61700  27921232.25400   -216131.76740  27921238.76940
  -2103721.44300  27647078.82400    -16402.88750  27647082.84440
  -7997512.84400  23838853.43400  -5907315.42840  23838857.07840
  -9035701.88500  24509875.22300  -6931374.23540  24509879.13740
  -6491134.17300  26545784.87100  -4965559.19340  26545789.32440
  21923308.59000  26462000.36300  17083102.01240  26462003.71540
  -7534488.26500  25980977.15200  -5785380.37140  25980980.50440
 96  9 11  5 13  0.0120000  0  9  2  3 10 16 18 19 27 29 31
  -1440446.56900  28030220.03500   -996832.63740  28030223.55140
  -1826510.35200  26830473.67600    837729.62640  26830477.21540
  -1164558.28100  27915618.66000   -239120.81240  27915622.63340
  -2133412.90700  27641429.90200    -39539.08340  27641434.28540
  -7945688.08600  23848715.49600  -5866932.50640  23848719.04740
  -9030474.43800  24510870.19900  -6927300.89940  24510874.16040
  -6528614.84500  26538652.65200  -4994764.88140  26538657.42240
  22038925.33700  26484001.35500  17173192.97240  26484004.93040
  -7564313.38900  25975301.63700  -5808620.71740  25975305.35140
 96  9 11  5 13 30.0120000  0  9  2  3 10 16 18 19 27 29 31
  -1500733.64300  28018747.80100  -1043809.54440  28018753.97640
  -1789470.75600  26837522.26200    866591.65540  26837526.01240
  -1193640.03700  27910085.07400   -261781.91140  27910090.04340
  -2162677.74600  27635859.57400    -62342.82540  27635864.76640
  -7893374.42500  23858670.29300  -5826168.60740  23858673.83240
  -9025091.13700  24511894.41800  -6923106.12540  24511898.25040
  -6566041.56600  26531530.59800  -5023928.53140  26531534.51240
  22154784.47700  26506048.84000  17263472.80540  26506053.12940
  -7593735.64100  25969702.62100  -5831547.13140  25969706.06640
 96  9 11  5 14  0.0120000  0  9  2  3 10 16 18 19 27 29 31
  -1560856.32700  28007307.01200  -1090658.35340  28007311.87540
  -1751904.28800  26844670.55100    895864.24840  26844674.89840
  -1222261.29600  27904638.39400   -284084.17940  27904643.41040
  -2191502.08900  27630375.62100    -84803.32940  27630380.75440
  -7840566.17600  23868719.47300  -5785019.33640  23868723.07040
  -9019536.85100  24512951.58200  -6918778.11040  24512955.46140
  -6603425.93300  26524416.53500  -5053059.17940  26524420.20340
  22270903.16500  26528145.12900  17353954.87640  26528148.23440
  -7622738.49100  25964183.68400  -5854146.73440  25964187.65640
 96  9 11  5 14 30.0120000  0  9  2  3 10 16 18 19 27 29 31
  -1620833.51600  27995893.65200  -1137393.83240  27995899.01940
  -1713803.52600  26851921.38700    925553.15340  26851925.23040
  -1250410.02300  27899281.41800   -306018.22040  27899285.76640
  -2219874.41700  27624975.74600   -106911.66240  27624980.92640
  -7787264.36500  23878862.48000  -5743485.46840  23878866.07840
  -9013795.95500  24514043.86300  -6914304.68440  24514047.81240
  -6640749.14600  26517314.05100  -5082142.18140  26517318.09440
  22387294.26700  26550293.86300  17444649.21040  26550297.85940
  -7651313.51100  25958746.18400  -5876412.96640  25958750.03940
 96  9 11  5 15  0.0120000  0  9  2  3 10 16 18 19 27 29 31
  -1680674.61000  27984505.69100  -1184023.17640  27984510.16840
  -1675166.49800  26859273.48800    955659.94840  26859277.42640
  -1278091.08800  27894014.67600   -327587.90440  27894019.15240
  -2247792.62100  27619662.81600   -128666.08640  27619667.98440
  -7733467.21200  23889099.87900  -5701565.60540  23889103.45340
  -9007877.62000  24515170.06600  -6909692.99340  24515174.00440
  -6677996.21000  26510226.08200  -5111165.82640  26510230.10140
  22503952.86500  26572493.18400  17535552.00740  26572497.15640
  -7679450.28500  25953392.05900  -5898337.70540  25953396.43040
 96  9 11  5 15 30.0120000  0  9  2  3 10 16 18 19 27 29 31
  -1740378.58500  27973144.71500  -1230545.73740  27973149.10940
  -1635996.40700  26866727.15200    986182.10340  26866731.18440
  -1305307.99900  27888834.37900   -348795.86340  27888839.23040
  -2275249.10600  27614438.19100   -150060.74440  27614443.25440
  -7679165.68100  23899432.92600  -5659252.72240  23899436.55940
  -9001776.92100  24516331.02700  -6904939.20340  24516334.87140
  -6715161.31900  26503153.67600  -5140125.61940  26503157.43740
  22620881.22500  26594744.01200  17626664.98040  26594747.36340
  -7707130.59400  25948124.62900  -5919906.76540  25948128.30940
 96  9 11  5 16  0.0120000  0  9  2  3 10 16 18 19 27 29 31
  -1799930.65100  27961812.69900  -1276949.94540  27961816.68440
  -1596268.75700  26874287.08200   1017138.70840  26874290.08240
  -1332071.73200  27883741.47300   -369650.71340  27883745.55140
  -2302220.80900  27609306.22300   -171077.64440  27609310.53540
  -7624350.77400  23909863.96500  -5616539.82240  23909867.56240
  -8995470.23800  24517531.11300  -6900024.90640  24517535.20340
  -6752218.48800  26496101.76200  -5169001.32240  26496105.75840
  22738091.54300  26617048.53500  17717997.68840  26617052.82440
  -7734341.01700  25942946.80100  -5941109.67540  25942950.69140
 96  9 11  5 16 30.0120000  0  9  2  3 10 16 18 19 27 29 31
  -1859322.75900  27950510.48800  -1323229.47140  27950515.97340
  -1556000.13600  26881949.79300   1048516.87140  26881953.71940
  -1358411.96000  27878729.60500   -390175.55940  27878734.00040
  -2328734.94600  27604260.67600   -191738.00740  27604264.98840
  -7569035.24600  23920390.16000  -5573436.81240  23920393.73440
  -8988978.06900  24518766.66000  -6894966.07040  24518770.55140
  -6789173.80900  26489069.46500  -5197797.65340  26489074.07040
  22855563.51400  26639402.52700  17809534.25340  26639406.54740
  -7761105.27200  25937853.73000  -5961964.92240  25937856.85940
 96  9 11  5 17  0.0120000  0  9  2  3 10 16 18 19 27 29 31
  -1918527.73200  27939244.12100  -1369363.21940  27939250.54340
  -1515168.46700  26889720.01200   1080333.75940  26889723.66840
  -1384313.65800  27873800.97300   -410358.67740  27873805.84840
  -2354788.64300  27599303.16000   -212039.57440  27599307.43740
  -7513212.42100  23931012.80100  -5529938.50640  23931016.42240
  -8982296.37000  24520038.12100  -6889759.55440  24520042.01240
  -6826045.46800  26482053.10500  -5226528.78940  26482056.89140
  22973303.94700  26661808.16000  17901280.03340  26661811.87540
  -7787411.31800  25932847.68400  -5982463.12440  25932851.51640
 96  9 11  5 17 30.0120000  0  9  2  3 10 16 18 19 27 29 31
  -1977556.01600  27928010.83200  -1415359.26840  27928015.68440
  -1473786.97200  26897594.64400   1112579.07540  26897598.55940
  -1409769.25000  27868956.89400   -430194.22940  27868961.94540
  -2380388.79300  27594431.41800   -231987.73040  27594436.72640
  -7456909.58100  23941727.09800  -5486066.18040  23941730.68440
  -8975420.41800  24521346.45700  -6884401.66440  24521350.48840
  -6862851.39600  26475048.72300  -5255208.71140  26475052.60140
  23091317.76900  26684264.94100  17993238.83840  26684268.21140
  -7813277.78500  25927925.40200  -6002618.79840  25927929.01240
 96  9 11  5 18  0.0120000  0  9  2  3 10 16 18 19 27 29 31
  -2036394.26800  27916814.37900  -1461207.24640  27916818.90240
  -1431839.71100  26905576.82400   1145265.26940  26905580.34040
  -1434753.23800  27864202.87900   -449662.23240  27864207.30940
  -2405525.08600  27589647.99600   -251574.45140  27589652.71940
  -7400116.47200  23952534.37100  -5441811.81340  23952537.96940
  -8968350.55300  24522691.81600  -6878892.67240  24522695.81240
  -6899585.69300  26468058.80100  -5283832.81040  26468063.26640
  23209615.40700  26706776.51200  18085418.80040  26706780.13340
  -7838700.14300  25923087.73800  -6022428.40640  25923091.55940
 96  9 11  5 18 30.0120000  0  9  2  3 10 16 18 19 27 29 31
  -2095040.91400  27905654.62100  -1506905.92240  27905658.17240
  -1389326.39400  26913667.00400   1178392.53240  26913671.16440
  -1459247.33400  27859540.59000   -468748.55240  27859545.87540
  -2430191.97300  27584954.48800   -270795.38440  27584958.60140
  -7342831.00100  23963435.44900  -5397173.78640  23963438.96540
  -8961086.45800  24524074.19100  -6873232.33540  24524078.17640
  -6936253.29600  26461081.21500  -5312404.93840  26461085.21140
  23328192.46600  26729341.01200  18177816.49140  26729344.70340
  -7863670.41300  25918335.91000  -6041885.74440  25918339.67240
 96  9 11  5 19  0.0120000  0  9  2  3 10 16 18 19 27 29 31
  -2153505.09400  27894529.23000  -1552462.38740  27894534.35140
  -1346249.42000  26921864.03500   1211959.01240  26921866.57840
  -1483248.45400  27854973.39400   -487450.71840  27854979.37140
  -2454380.79700  27580351.27700   -289643.80240  27580356.35140
  -7285064.68700  23974428.01200  -5352161.07440  23974431.55140
  -8953627.88700  24525493.51200  -6867420.46340  24525497.49640
  -6972865.17200  26454114.22300  -5340933.65940  26454118.26640
  23447042.27500  26751957.44100  18270426.70940  26751960.95740
  -7888189.90200  25913670.14400  -6060991.82640  25913673.80140
 96  9 11  5 19 30.0120000  0  9  2  3 10 16 18 19 27 29 31
  -2211789.55600  27883438.11300  -1597878.84440  27883442.90640
  -1302613.44100  26930167.98000   1245961.07340  26930172.01240
  -1506749.28800  27850501.79300   -505763.04140  27850506.76240
  -2478075.57300  27575842.31600   -308107.25140  27575846.89840
  -7226811.41500  23985513.30900  -5306768.92240  23985516.90640
  -8945973.34300  24526949.98800  -6861455.87740  24526954.01940
  -7009399.24200  26447162.12100  -5369401.76040  26447166.31640
  23566169.32800  26774626.69100  18363252.97840  26774629.77340
  -7912250.72100  25909091.34000  -6079740.48940  25909095.30140
 96  9 11  5 20  0.0120000  0  9  2  3 10 16 18 19 27 29 31
  -2269897.99600  27872380.61300  -1643158.14940  27872384.82040
  -1258422.30400  26938576.87100   1280395.72740  26938580.91440
  -1529768.38400  27846120.81600   -523699.99340  27846125.65640
  -2501273.32200  27571428.06600   -326183.40640  27571433.38740
  -7168062.52500  23996692.60500  -5260990.56540  23996696.18040
  -8938148.39400  24528439.16800  -6855358.50640  24528443.03540
  -7045863.85500  26440222.75400  -5397815.72340  26440226.82040
  23685554.39500  26797344.82400  18456280.30640  26797348.34040
  -7935850.93500  25904600.51200  -6098130.24740  25904604.05140
 96  9 11  5 20 30.0120000  0  9  2  3 10 16 18 19 27 29 31
  -2327816.60500  27861358.62100  -1688289.51040  27861363.59040
  -1213673.92900  26947092.12100   1315264.62640  26947096.02340
  -1552292.96800  27841834.87900   -541251.62040  27841839.12140
  -2523954.77200  27567111.05100   -343857.27240  27567115.36340
  -7108810.32000  24007968.14400  -5214820.02140  24007971.83640
  -8930140.18500  24529962.87900  -6849118.33340  24529966.89840
  -7082248.89800  26433298.84000  -5426167.68940  26433302.95340
  23805214.70800  26820115.12100  18549522.09140  26820118.97640
  -7958973.60900  25900200.44100  -6116147.89640  25900204.37940
 96  9 11  5 21  0.0120000  0  9  2  3 10 16 18 19 27 29 31
  -2385550.58500  27850373.05900  -1733277.03040  27850378.96540
  -1168388.86300  26955709.99600   1350551.68040  26955713.95740
  -1574339.22100  27837639.82400   -558430.49140  27837645.07440
  -2546138.17600  27562890.66800   -361143.01340  27562895.15640
  -7049059.45800  24019338.26200  -5168260.90840  24019341.89440
  -8921958.07400  24531520.00400  -6842742.66140  24531524.03540
  -7118557.44000  26426389.69900  -5454460.04240  26426393.27340
  23925145.51400  26842937.09000  18642974.65540  26842940.35940
  -7981621.32100  25895890.31600  -6133795.44640  25895893.93740
 96  9 11  5 21 30.0120000  0  9  2  3 10 16 18 19 27 29 31
  -2443116.43500  27839417.91000  -1778133.50340  27839422.86740
  -1122597.03700  26964423.51900   1386233.60940  26964427.37540
  -1595933.08500  27833530.73800   -575256.85740  27833535.80140
  -2567835.98300  27558761.50400   -378050.39040  27558766.03940
  -6988817.78000  24030801.98800  -5121319.35240  24030805.56240
  -8913621.22100  24533106.76900  -6836246.40940  24533110.71940
  -7154803.56900  26419492.52700  -5482703.75740  26419496.52340
  24045333.86900  26865808.65200  18736627.89440  26865811.85140
  -8003808.03100  25891668.51200  -6151083.77240  25891672.40240
 96  9 11  5 22  0.0120000  0  9  2  3 10 16 18 19 27 29 31
  -2500471.09600  27828504.15200  -1822825.41940  27828508.60540
  -1076268.18900  26973239.94900   1422334.03140  26973243.51240
  -1617039.50600  27829514.10500   -591703.42240  27829519.64840
  -2589023.86000  27554729.60500   -394560.41640  27554734.60940
  -6928042.53700  24042367.13700  -5073962.02940  24042370.76940
  -8905079.49100  24534731.82400  -6829590.50340  24534735.94940
  -7190953.17100  26412613.12900  -5510872.25940  26412617.50040
  24165808.92700  26888733.72300  18830504.56740  26888737.39140
  -8025501.82100  25887540.34800  -6167988.00940  25887544.35540
 96  9 11  5 22 30.0120000  0  9  2  3 10 16 18 19 27 29 31
  -2557615.97300  27817629.60500  -1867353.88640  27817635.19540
  -1029404.83100  26982157.70700   1458850.93240  26982160.75440
  -1637654.76200  27825590.70700   -607767.24940  27825594.50440
  -2609723.76400  27550790.76200   -410690.22840  27550795.39140
  -6866747.05200  24054031.18400  -5026199.31440  24054034.84040
  -8896315.72800  24536399.47300  -6822761.59740  24536403.39840
  -7227010.30900  26405752.05100  -5538968.71140  26405755.85940
  24286559.98200  26911712.15200  18924596.27540  26911716.38340
  -8046706.13000  25883505.44100  -6184510.82440  25883509.32040
 96  9 11  5 23  0.0120000  0  9  2  3 10 16 18 19 27 29 31
  -2614553.86500  27806794.62100  -1911721.07440  27806798.85140
   -981991.51400  26991180.44100   1495796.38040  26991183.88740
  -1657782.88200  27821761.07400   -623451.49140  27821766.23040
  -2629943.65300  27546942.88700   -426445.97940  27546947.32840
  -6804931.53900  24065794.43400  -4978031.38940  24065797.97340
  -8887315.60200  24538112.30900  -6815748.50440  24538116.23440
  -7262974.07400  26398908.25400  -5566992.41140  26398912.29740
  24407576.17900  26934740.94900  19018894.60740  26934745.13340
  -8067421.43200  25879563.27700  -6200652.60240  25879567.10940
 96  9 11  5 23 30.0120000  0  9  2  3 10 16 18 19 27 29 31
  -2671296.04900  27795996.92600  -1955935.73440  27796002.22340
   -934008.08200  27000311.05900   1533186.07940  27000314.09440
  -1677416.10400  27818024.86300   -638750.11440  27818028.74240
  -2649683.59300  27543186.50400   -441827.73840  27543192.17640
  -6742593.53800  24077656.81600  -4929456.32640  24077660.40240
  -8878079.83400  24539869.77700  -6808551.79840  24539873.70340
  -7298839.91000  26392083.37100  -5594939.79240  26392087.73040
  24528850.51600  26957818.59000  19113394.06440  26957822.93740
  -8087633.92800  25875717.19100  -6216402.57740  25875721.31640
 96  9 11  5 24  0.0120000  0  9  2  3 10 16 18 19 27 29 31
  -2727837.85900  27785237.34800  -1999994.26740  27785243.41840
   -885432.52700  27009554.76200   1571037.16140  27009558.17240
  -1696546.42700  27814383.85500   -653656.85340  27814388.19140
  -2668956.27200  27539518.69100   -456845.40440  27539523.97640
  -6679744.71100  24089616.69900  -4880483.22840  24089620.23840
  -8868607.21300  24541672.34000  -6801170.53040  24541676.20740
  -7334609.14700  26385276.33200  -5622811.91640  26385280.58640
  24650384.41600  26980945.81600  19208095.78840  26980949.29740
  -8107327.08800  25871969.48800  -6231747.87740  25871973.18040
 96  9 11  5 24 30.0120000  0  9  2  3 10 16 18 19 27 29 31
  -2784172.63600  27774517.42600  -2043891.46840  27774521.62140
   -836255.08300  27018912.81600   1609357.26040  27018916.75440
  -1715169.41900  27810840.38700   -668168.26340  27810845.51940
  -2687754.42400  27535941.87900   -471493.32040  27535946.50840
  -6616390.00700  24101672.59000  -4831115.93440  24101676.30540
  -8858913.61500  24543517.00400  -6793617.06840  24543520.90640
  -7370285.97900  26378487.30900  -5650612.01740  26378491.51640
  24772182.35700  27004123.12100  19303003.27240  27004125.98040
  -8126486.87300  25868323.48800  -6246677.55940  25868327.27340
 96  9 11  5 25  0.0120000  0  9  2  3 10 16 18 19 27 29 31
  -2840307.56200  27763834.48000  -2087632.93640  27763839.62540
   -786498.83700  27028381.17600   1648128.37040  27028385.03140
  -1733302.72000  27807390.21500   -682298.09640  27807394.22340
  -2706075.74700  27532454.70700   -485769.64240  27532460.12140
  -6552538.88300  24113823.10500  -4781361.81940  24113826.71540
  -8849031.19900  24545397.46500  -6785916.47940  24545401.41440
  -7405874.23200  26371715.12100  -5678343.10540  26371719.03540
  24894230.87800  27027348.03500  19398106.00340  27027351.86740
  -8145122.19400  25864776.91000  -6261198.57740  25864780.46140
 96  9 11  5 25 30.0120000  0  9  2  3 10 16 18 19 27 29 31
  -2896239.37500  27753191.45700  -2131216.16440  27753197.55140
   -736178.19800  27037956.52700   1687339.25740  27037960.16040
  -1750944.06100  27804032.95700   -696044.58240  27804037.04740
  -2723907.26100  27529062.54300   -499664.33240  27529066.96140
  -6488194.33300  24126067.51200  -4731223.21540  24126071.18040
  -8838975.15100  24547311.01900  -6778080.58640  24547315.02740
  -7441374.24800  26364959.72300  -5706005.43740  26364963.68440
  25016526.32500  27050620.23800  19493401.13840  27050624.09440
  -8163238.94300  25861329.80100  -6275315.51540  25861333.56240
 96  9 11  5 26  0.0120000  0  9  2  3 10 16 18 19 27 29 31
  -2951958.82200  27742588.41000  -2174633.88840  27742594.00040
   -685319.84600  27047634.68400   1726969.15240  27047638.38740
  -1768096.33400  27800768.97300   -709409.96640  27800774.75040
  -2741242.53700  27525763.05900   -513172.30540  27525768.19140
  -6423367.18600  24138403.59800  -4680708.56240  24138407.19540
  -8828743.98600  24549257.97300  -6770108.24940  24549261.96940
  -7476807.48800  26358216.85500  -5733615.72840  26358220.99240
  25139056.90700  27073937.47300  19588879.49440  27073941.00040
  -8180870.83000  25857974.59000  -6289054.62540  25857978.35140
 96  9 11  5 26 30.0120000  0  9  2  3 10 16 18 19 27 29 31
  -3007469.99000  27732025.26900  -2217889.33140  27732031.11740
   -633936.81600  27057412.69100   1767007.89040  27057416.24240
  -1784746.42700  27797600.05900   -722384.08340  27797604.23040
  -2758050.92300  27522564.41800   -526269.77440  27522568.69540
  -6358040.57000  24150834.84800  -4629804.71340  24150838.57440
  -8818333.09500  24551239.27700  -6761995.85540  24551243.19140
  -7512165.81000  26351488.75400  -5761167.64040  26351492.75040
  25261819.62700  27097298.21500  19684538.75440  27097301.35540
  -8198019.92500  25854711.05100  -6302417.53540  25854714.41440
 96  9 11  5 27  0.0120000  0  9  2  3 10 16 18 19 27 29 31
  -3062785.37300  27721499.04300  -2260992.16740  27721504.94940
   -582025.66200  27067290.85500   1807458.15440  27067294.11340
  -1800889.99700  27794528.21500   -734963.49440  27794533.92240
  -2774309.66000  27519470.44900   -538938.90840  27519474.80940
  -6292202.50000  24163363.57400  -4578502.32640  24163367.18440
  -8807726.34200  24553257.59000  -6753730.84840  24553261.43440
  -7547433.84000  26344777.29300  -5788649.20640  26344781.09040
  25384827.29300  27120705.62900  19780388.84940  27120709.62540
  -8214683.51800  25851540.28500  -6315402.14140  25851544.14140
 96  9 11  5 27 30.0120000  0  9  2  3 10 16 18 19 27 29 31
  -3117928.74500  27711005.54300  -2303961.03440  27711010.26640
   -529581.01400  27077270.80900   1848324.13140  27077274.52340
  -1816529.76400  27791552.18400   -747150.31140  27791556.74240
  -2790026.89900  27516479.68400   -551186.07940  27516485.20340
  -6225866.46800  24175986.77700  -4526811.91640  24175990.45740
  -8796923.66600  24555313.31600  -6745313.16940  24555317.25440
  -7582629.69500  26338079.59000  -5816074.52840  26338083.78540
  25508082.54700  27144160.37100  19876431.88440  27144163.52340
  -8230875.93900  25848458.77700  -6328019.60340  25848462.43440
 96  9 11  5 28  0.0120000  0  9  2  3 10 16 18 19 27 29 31
  -3172909.17200  27700542.89400  -2346802.91240  27700548.15640
   -476610.78300  27087350.92600   1889599.64040  27087355.15640
  -1831679.33000  27788669.95700   -758955.14540  27788675.10140
  -2805219.62900  27513588.59000   -563024.59240  27513594.13340
  -6159036.56300  24188704.09800  -4474736.67740  24188707.77740
  -8785940.71000  24557403.19100  -6736755.01440  24557406.98840
  -7617758.52700  26331394.79300  -5843447.62840  26331398.88340
  25631586.18900  27167662.18400  19972668.48240  27167666.13340
  -8246587.76000  25845468.87900  -6340262.55940  25845472.61740
 96  9 11  5 28 30.0120000  0  9  2  3 10 16 18 19 27 29 31
  -3227701.94600  27690116.69900  -2389498.54640  27690121.70340
   -423083.13100  27097536.95700   1931309.49640  27097540.93040
  -1846320.18700  27785883.22300   -770363.58540  27785888.25040
  -2819860.16400  27510802.03500   -574432.80440  27510807.18040
  -6091684.88200  24201520.72300  -4422254.85240  24201524.27340
  -8774764.72700  24559529.99600  -6728046.44640  24559533.91040
  -7652779.06000  26324730.46500  -5870736.34040  26324734.28540
  25755371.19900  27191218.01200  20069124.30740  27191220.51940
  -8261778.25000  25842578.24600  -6352099.29240  25842581.76240
 96  9 11  5 29  0.0120000  0  9  2  3 10 16 18 19 27 29 31
  -3282309.85600  27679724.98000  -2432050.14640  27679731.21540
   -369005.63000  27107827.36300   1973447.82840  27107830.66840
  -1860469.00700  27783190.63700   -781388.64440  27783195.28940
  -2833978.33200  27508115.46500   -585433.94840  27508120.92640
  -6023829.04700  24214433.31600  -4369380.17640  24214436.90240
  -8763405.71200  24561691.41000  -6719195.26340  24561695.38340
  -7687700.91200  26318085.16800  -5897948.15640  26318089.37540
  25879419.52900  27214823.37100  20165785.32640  27214826.40640
  -8276465.98900  25839783.68400  -6363544.26440  25839787.15240
 96  9 11  5 29 30.0120000  0  9  2  3 10 16 18 19 27 29 31
  -3336722.16600  27669370.12900  -2474449.32740  27669374.04340
   -314390.25800  27118220.47300   2016005.26540  27118224.39840
  -1874128.20300  27780591.45700   -792032.20040  27780595.28940
  -2847596.77900  27505524.97300   -596045.70340  27505530.15240
  -5955486.31300  24227438.56600  -4316126.11140  24227442.25840
  -8751871.97700  24563886.33200  -6710207.93240  24563890.17640
  -7722548.94200  26311453.79300  -5925102.45440  26311457.56640
  26003706.77200  27238474.71500  20262632.51340  27238478.40640
  -8290647.09500  25837084.66000  -6374594.46640  25837088.23440
 96  9 11  5 30  0.0120000  0  9  2  3 10 16 18 19 27 29 31
  -3390901.17600  27659060.41000  -2516666.72440  27659065.37940
   -259239.58800  27128715.05900   2058979.83240  27128718.87940
  -1887281.25500  27778089.55100   -802281.28640  27778094.39140
  -2860697.45400  27503031.72300   -606254.05240  27503036.34040
  -5886647.36700  24240538.23800  -4262485.37740  24240541.82440
  -8740152.74400  24566116.42600  -6701076.05640  24566120.38740
  -7757309.85000  26304839.38700  -5952188.85140  26304842.97340
  26128231.87200  27262170.84800  20359665.03440  27262174.92640
  -8304293.98700  25834487.81600  -6385228.38340  25834491.27340
 96  9 11  5 30 30.0120000  0  9  2  3 10 16 18 19 27 29 31
  -3444825.98600  27648798.70700  -2558686.04740  27648804.09840
   -203528.45700  27139316.80100   2102391.10340  27139320.41040
  -1899887.90000  27775689.32400   -812104.65240  27775693.60140
  -2873257.88100  27500640.84800   -616041.34740  27500645.14840
  -5817294.43400  24253735.51200  -4208444.13640  24253739.15640
  -8728211.20800  24568388.82400  -6691770.96440  24568392.71540
  -7791964.37000  26298244.68400  -5979192.34640  26298248.92640
  26253005.24600  27285914.44900  20456891.03840  27285918.94940
  -8317381.57800  25831997.30100  -6395426.49440  25832000.94540
 96  9 11  5 31  0.0120000  0  9  2  3 10 16 18 19 27 29 31
  -3498519.85000  27638581.23000  -2600525.37240  27638585.82440
   -147283.09700  27150019.79300   2146218.67840  27150023.29740
  -1911956.75900  27773393.48800   -821508.90840  27773398.30540
  -2885311.97500  27498347.15200   -625434.23040  27498351.05540
  -5747456.84500  24267025.34000  -4154025.24240  24267028.97340
  -8716053.85600  24570702.17600  -6682297.69440  24570706.24240
  -7826544.96300  26291663.93400  -6006138.23540  26291667.59040
  26377998.72600  27309700.16800  20554288.53740  27309703.44940
  -8329915.45300  25829612.06600  -6405193.13640  25829615.98040
 96  9 11  5 31 30.0120000  0  9  2  3 10 16 18 19 27 29 31
  -3551993.02900  27628405.62900  -2642192.80340  27628410.91440
    -90511.54600  27160822.84800   2190456.25240  27160826.15240
  -1923502.58700  27771196.42600   -830505.74540  27771201.41840
  -2896861.74100  27496149.08200   -634433.87940  27496152.51640
  -5677140.52300  24280405.94100  -4099233.30840  24280409.58640
  -8703697.08900  24573053.59800  -6672669.03540  24573057.57040
  -7861069.02000  26285094.24600  -6033040.07940  26285098.05540
  26503202.22700  27333525.34000  20651849.69740  27333528.51640
  -8341898.82800  25827331.82400  -6414530.81640  25827335.41040
 96  9 11  5 32  0.0120000  0  9  2  3 10 16 18 19 27 29 31
  -3605239.92900  27618273.09800  -2683683.88040  27618279.08640
    -33194.05200  27171729.69100   2235119.24140  27171733.96940
  -1934513.73100  27769099.94900   -839085.80640  27769104.56640
  -2907887.21000  27494051.26200   -643025.23040  27494055.69140
  -5606327.76500  24293881.19900  -4044054.54340  24293884.77340
  -8691126.20100  24575445.73800  -6662873.54040  24575449.67640
  -7895503.21100  26278541.39400  -6059871.89440  26278545.34440
  26628640.04200  27357396.01900  20749593.42440  27357398.52740
  -8353326.60200  25825157.04300  -6423435.55540  25825160.51240
 96  9 11  5 32 30.0120000  0  9  2  3 10 16 18 19 27 29 31
  -3658287.83800  27608178.45700  -2725019.88840  27608182.85140
     24668.83400  27182741.30100   2280207.21440  27182744.35940
  -1944999.53400  27767105.82400   -847256.54740  27767109.53940
  -2918410.20600  27492049.12900   -651224.97140  27492053.28940
  -5535020.34900  24307450.69900  -3988490.32340  24307454.37940
  -8678345.71900  24577877.76900  -6652914.71240  24577881.63740
  -7929854.86300  26272004.61300  -6086639.38740  26272008.45740
  26754303.58300  27381308.49600  20847513.05440  27381311.85940
  -8364219.71800  25823084.29300  -6431923.67540  25823088.05540
 96  9 11  5 33  0.0120000  0  9  2  3 10 16 18 19 27 29 31
  -3711128.11400  27598123.24600  -2766194.11440  27598128.08640
     83085.41000  27193857.49600   2325726.61840  27193861.25840
  -1954977.21700  27765205.66800   -855031.35540  27765208.66840
  -2928419.84900  27490144.28500   -659024.67040  27490149.32440
  -5463215.97000  24321114.24600  -3932538.86640  24321117.96140
  -8665363.35100  24580348.23800  -6642798.57340  24580352.10540
  -7964124.18000  26265483.28500  -6113342.73040  26265487.39840
  26880199.37500  27405265.89400  20945613.65740  27405269.49240
  -8374587.22000  25821111.29300  -6440002.23440  25821114.80940
 96  9 11  5 33 30.0130000  0  9  2  3 10 16 18 19 27 29 31
  -3763764.83400  27588106.59500  -2807209.72140  27588111.17740
    142065.36600  27205080.93800   2371685.04740  27205084.60640
  -1964457.60800  27763402.45400   -862418.57840  27763406.08740
  -2937903.92700  27488339.71200   -666414.93040  27488346.40340
  -5390906.60600  24334874.41500  -3876193.91140  24334878.15340
  -8652193.42900  24582854.61000  -6632536.28940  24582858.52440
  -7998295.29900  26258980.88400  -6139969.54540  26258984.75140
  27006339.90900  27429270.15700  21043904.96440  27429274.29440
  -8384430.50700  25819238.18100  -6447672.30340  25819241.79040
 96  9 11  5 34  0.0130000  0  9  2  3 10 16 18 19 27 29 31
  -3816207.01400  27578127.04800  -2848073.73740  27578132.55640
    201588.91300  27216407.65700   2418067.04240  27216412.11040
  -1973440.52500  27761693.64200   -869418.35240  27761699.17340
  -2946875.42300  27486631.70400   -673405.63040  27486635.54840
  -5318113.42400  24348726.36800  -3819471.95340  24348729.90740
  -8638846.85300  24585394.12600  -6622136.34940  24585397.89940
  -8032371.97800  26252496.47700  -6166522.77740  26252500.29840
  27132708.46000  27453316.93100  21142373.96740  27453320.97440
  -8393755.66800  25817463.56300  -6454938.64140  25817467.38440
